     2.11           OBSERVATION DATA    G (GPS)             RINEX VERSION / TYPE
teqc 2010Oct21 OPUS Account 20111028 14:56:28UTC            PGM / RUN BY / DATE
H 1526                                                      MARKER NAME
3046                                                        MARKER NUMBER
CSMIDDLETON NGS                                             OBSERVER / AGENCY
0220320152 TRIMBLE 5700 2.01                                REC # / TYPE / VERS
12214372 TRM41249.00 NONE                                   ANT # / TYPE
  -754582.4473 -5566736.1640  3010320.7669                  APPROX POSITION XYZ
        2.0000        0.0000        0.0000                  ANTENNA: DELTA H/E/N
     1     1                                                WAVELENGTH FACT L1/2
     5    L1    L2    C1    P1    P2                        # / TYPES OF OBSERV
    15                                                      LEAP SECONDS
  2011     8    22     0     0   30.0000000     GPS         TIME OF FIRST OBS
                                                            END OF HEADER
 11  8 22  0  0 30.0000000  0  8G10G12G09G17G05G04G25G02
 -27236867.34858 -21212871.66456  20978742.0234                   20978740.3484
 -20072404.03958 -15629370.73856  21801066.4924                   21801063.3754
 -14347234.03157 -11167781.96154  23367370.3284                   23367369.5554
 -29932879.28157 -23312215.60255  23015962.2584                   23015960.8524
 -15300302.91857 -11910480.34455  22449872.2194                   22449872.0124
 -31397488.68458 -24452997.80956  21425407.6724                   21425406.1054
   -449216.87156   -338440.75454  24660636.3674                   24660638.3094
 -31044687.20758 -24178663.74257  20698014.3054                   20698009.8524
 11  8 22  0  1  0.0000000  0  9G10G12G09G17G05G04G25G02G30
 -27277729.28948 -21244712.11746  20970966.5394                   20970964.1254
 -20168903.19148 -15704564.84446  21782703.1484                   21782700.8164
 -14300888.97747 -11131668.99244  23376189.2504                   23376189.1174
 -29910764.48047 -23294983.30145  23020170.3674                   23020169.6414
 -15423096.67647 -12006163.69546  22426505.4144                   22426504.9144
 -31351207.40648 -24416934.50046  21434214.7194                   21434212.6564
   -578866.30946   -439466.20343  24635965.1094                   24635966.0784
 -31078676.87548 -24205149.18047  20691546.1724                   20691541.9224
   -191694.23456   -137275.98053  24395745.9384                   24395745.3594
 11  8 22  0  1 30.0000000  0  9G10G12G09G17G05G04G25G02G30
 -27317983.53948 -21276079.03946  20963306.2894                   20963304.1884
 -20265042.17648 -15779478.30546  21764408.5394                   21764405.8014
 -14254306.93447 -11095371.37144  23385053.5004                   23385053.8554
 -29888517.81247 -23277648.24645  23024404.1174                   23024403.1334
 -15545663.55947 -12101670.25446  22403181.5864                   22403180.6884
 -31304751.19948 -24380734.88346  21443055.4144                   21443052.8914
   -708413.45746   -540411.98844  24611313.7114                   24611314.5004
 -31112362.89848 -24231398.00847  20685135.8524                   20685131.8984
   -323180.97746   -239733.14143  24370724.7034                   24370723.8874
 11  8 22  0  2  0.0000000  0  9G10G12G09G17G05G04G25G02G30
 -27357633.23848 -21306974.89146  20955761.2894                   20955759.0434
 -20360822.10948 -15854111.98046  21746182.2194                   21746179.4574
 -14207494.97747 -11058894.58644  23393961.7734                   23393962.0904
 -29866142.23847 -23260212.77045  23028662.4924                   23028661.2774
 -15668004.28147 -12197000.58645  22379900.9844                   22379899.8984
 -31258126.12148 -24344403.68046  21451928.1804                   21451926.1414
   -837859.71946   -641279.13743  24586679.9304                   24586681.5594
 -31145749.91048 -24257413.84847  20678782.5394                   20678778.1564
   -454498.93746   -342058.75443  24345736.4774                   24345734.9964
 11  8 22  0  2 30.0000000  0  9G10G12G09G17G05G04G25G02G30
 -27396669.87548 -21337393.03946  20948332.5554                   20948330.6334
 -20456233.27048 -15928458.30146  21728025.7974                   21728022.9774
 -14160449.10547 -11022235.53944  23402914.2974                   23402914.3874
 -29843629.80947 -23242670.63345  23032946.6564                   23032945.1094
 -15790108.14147 -12292146.35945  22356665.2194                   22356664.4304
 -31211326.83648 -24307936.71946  21460833.2664                   21460832.0704
   -967195.09446   -742059.90243  24562068.7814                   24562069.2384
 -31178831.25048 -24283191.50046  20672487.6414                   20672483.0004
   -585637.64146   -444244.69143  24320780.7194                   24320779.8794
 11  8 22  0  3  0.0000000  0  9G10G12G09G17G05G04G25G02G30
 -27435088.56648 -21367329.66446  20941021.9924                   20941019.8134
 -20551268.70348 -16002511.85246  21709941.2034                   21709938.4964
 -14113168.10547 -10985393.26644  23411911.5234                   23411911.5824
 -29820975.38347 -23225017.85245  23037257.5234                   23037255.9614
 -15911968.02047 -12387102.01645  22333475.9694                   22333475.0354
 -31164351.09048 -24271332.25446  21469772.3364                   21469771.1174
  -1096412.60546   -842748.85543  24537479.0084                   24537480.4494
 -31211604.15648 -24308728.81247  20666250.8754                   20666246.6804
   -716590.11346   -546285.50443  24295861.4384                   24295859.8364
 11  8 22  0  3 30.0000000  0  9G10G12G09G17G05G04G25G02G30
 -27472882.89548 -21396779.76646  20933830.1414                   20933828.2814
 -20645920.23848 -16076266.25846  21691929.3674                   21691926.6804
 -14065650.36347 -10948366.52344  23420954.1564                   23420954.2704
 -29798173.25847 -23207249.98445  23041596.6804                   23041594.8984
 -16033575.35547 -12481860.88346  22310334.7664                   22310333.8914
 -31117195.80948 -24234587.89546  21478745.9614                   21478744.0984
  -1225504.45746   -943339.87943  24512913.8524                   24512913.7934
 -31244063.94548 -24334022.13347  20660073.9064                   20660069.2624
   -847348.19946   -648174.84043  24270979.0554                   24270977.8634
 11  8 22  0  4  0.0000000  0  9G10G12G09G17G05G04G25G02G30
 -27510051.08648 -21425741.98046  20926756.9304                   20926755.1174
 -20740185.10948 -16149719.37546  21673991.3674                   21673988.7194
 -14017898.66847 -10911157.47744  23430041.1644                   23430040.9774
 -29775221.98847 -23189365.88345  23045963.6954                   23045963.0204
 -16154927.02747 -12576420.53946  22287242.1334                   22287240.9924
 -31069862.25048 -24197704.60946  21487753.0084                   21487751.2384
  -1354467.38346  -1043830.41043  24488371.8834                   24488373.7074
 -31276210.86348 -24359071.66047  20653956.6724                   20653952.2154
   -977908.36346   -749910.00843  24246133.8284                   24246132.5594
 11  8 22  0  4 30.0000000  0  9G10G12G09G17G05G04G25G02G30
 -27546586.76248 -21454211.32846  20919804.8674                   20919802.3754
 -20834054.85248 -16222864.59846  21656128.7194                   21656125.7154
 -13969910.38747 -10873764.08244  23439172.6174                   23439173.1914
 -29752115.01647 -23171360.48045  23050361.0864                   23050359.3284
 -16276013.78947 -12670773.78146  22264200.0634                   22264199.2734
 -31022346.84048 -24160679.62946  21496795.1024                   21496792.9224
  -1483293.14546  -1144214.06243  24463857.0944                   24463858.7154
 -31308040.62148 -24383874.05547  20647899.4924                   20647895.1684
  -1108261.80946   -851484.08243  24221327.9924                   24221327.0044
 11  8 22  0  5  0.0000000  0  9G10G12G09G17G05G04G25G02G30
 -27582492.53548 -21482189.82846  20912971.6174                   20912969.6804
 -20927530.03147 -16295702.37546  21638340.8054                   21638338.4614
 -13921691.96947 -10836191.36744  23448348.4384                   23448349.0904
 -29728854.94947 -23153235.76245  23054787.4064                   23054785.8404
 -16396836.12147 -12764920.96546  22241208.1564                   22241206.9804
 -30974654.91848 -24123517.09046  21505870.5314                   21505869.4774
  -1611982.30546  -1244491.22343  24439368.7894                   24439370.5354
 -31339556.86348 -24408432.14547  20641902.4224                   20641898.0944
  -1238409.22746   -952897.64543  24196561.8284                   24196560.0164
 11  8 22  0  5 30.0000000  0  9G10G12G09G17G05G04G25G02G30
 -27617766.63748 -21509676.11346  20906259.3284                   20906257.3984
 -21020607.34447 -16368230.11746  21620628.7974                   21620626.1724
 -13873246.18746 -10798441.48444  23457567.7114                   23457567.8484
 -29705440.17247 -23134990.50045  23059243.1564                   23059241.7464
 -16517389.87547 -12858858.86746  22218267.6804                   22218266.9224
 -30926787.59048 -24086217.86346  21514979.4844                   21514978.5354
  -1740531.38347  -1344659.29344  24414907.1884                   24414908.6294
 -31370759.71548 -24432746.03947  20635964.4384                   20635960.0944
  -1368346.73446  -1054147.58643  24171836.1024                   24171833.9454
 11  8 22  0  6  0.0000000  0  9G10G12G09G17G05G04G25G02G30
 -27652406.56248 -21536668.24246  20899667.4384                   20899665.4264
 -21113282.26647 -16440444.32846  21602993.3754                   21602990.6214
 -13824574.03546 -10760515.19944  23466829.9064                   23466829.9144
 -29681868.05547 -23116622.64845  23063728.6414                   23063726.7704
 -16637670.26247 -12952583.75046  22195379.0164                   22195377.8984
 -30878744.95748 -24048782.03546  21524121.3054                   21524120.1414
  -1868935.77047  -1444714.59044  24390472.9534                   24390473.8404
 -31401648.32448 -24456815.06247  20630086.9534                   20630082.2464
  -1498069.44546  -1155230.14843  24147150.4304                   24147149.0164
 11  8 22  0  6 30.0000000  0  9G10G12G09G17G05G04G25G02G30
 -27686409.91848 -21563164.34446  20893196.9924                   20893194.7584
 -21205550.78947 -16512341.85946  21585435.2734                   21585432.8244
 -13775677.73047 -10722414.23044  23476134.5004                   23476134.1994
 -29658136.68447 -23098130.69145  23068244.3284                   23068242.8444
 -16757672.72747 -13046092.08246  22172543.2584                   22172542.4344
 -30830527.48048 -24011209.98445  21533297.0004                   21533295.4264
  -1997191.55147  -1544654.09844  24366066.6484                   24366067.6214
 -31432222.36348 -24480638.97347  20624268.4534                   20624264.1994
  -1627573.18746  -1256142.07043  24122506.4924                   24122504.9654
 11  8 22  0  7  0.0000000  0  9G10G12G09G17G05G04G25G02G30
 -27719778.55148 -21589165.85546  20886847.1334                   20886844.8594
 -21297412.80147 -16583922.62146  21567954.4224                   21567952.0124
 -13726562.77347 -10684142.90244  23485480.5704                   23485480.7074
 -29634247.67647 -23079515.90645  23072790.3984                   23072789.0664
 -16877396.80947 -13139383.48446  22149760.2974                   22149759.4534
 -30782139.66448 -23973505.19146  21542504.3914                   21542503.3834
  -2125298.52347  -1644477.62544  24341688.6254                   24341689.3794
 -31462485.46548 -24504220.59447  20618509.7034                   20618505.1254
  -1756857.40246  -1356882.93743  24097904.4614                   24097903.3134
 11  8 22  0  7 30.0000000  0  9G10G12G09G17G05G04G25G02G30
 -27752511.19548 -21614671.78146  20880618.4694                   20880616.2704
 -21388865.48847 -16655184.43746  21550551.1484                   21550548.9924
 -13677231.84047 -10645703.27744  23494867.8984                   23494868.0234
 -29610199.53547 -23060777.10245  23077366.6174                   23077366.0704
 -16996838.59847 -13232454.91046  22127031.3204                   22127030.0744
 -30733583.03548 -23935668.84445  21551744.7114                   21551743.8954
  -2253253.42247  -1744182.64144  24317339.3834                   24317341.0234
 -31492437.68448 -24527559.97747  20612809.8444                   20612805.4414
  -1885918.75046  -1457450.14844  24073344.5314                   24073344.0204
 11  8 22  0  8  0.0000000  0  9G10G12G09G17G05G04G25G02G30
 -27784605.43448 -21639680.24646  20874511.0474                   20874509.0944
 -21479904.27047 -16726123.73446  21533227.6724                   21533225.1564
 -13627686.54747 -10607096.61344  23504296.1724                   23504296.6914
 -29585989.95747 -23041912.51245  23081974.0474                   23081972.8404
 -17115993.41447 -13325302.73446  22104356.7664                   22104355.9494
 -30684857.64848 -23897701.00046  21561016.9384                   21561016.0704
  -2381051.67647  -1843765.62144  24293019.9774                   24293021.4344
 -31522078.28948 -24550656.54347  20607169.3984                   20607165.2424
  -2014752.30147  -1557839.84044  24048828.8054                   24048827.4654
 11  8 22  0  8 30.0000000  0  9G10G12G09G17G05G04G25G02G30
 -27816064.21547 -21664193.55146  20868524.3134                   20868522.3284
 -21570530.20747 -16796741.34446  21515982.1484                   21515979.6804
 -13577933.99246 -10568328.47344  23513764.2194                   23513764.0164
 -29561621.73847 -23022924.29345  23086611.0004                   23086609.4734
 -17234861.90647 -13417927.44946  22081736.6884                   22081735.6094
 -30635969.13748 -23859606.05546  21570320.4844                   21570319.0864
  -2508694.39147  -1943227.38744  24268729.8054                   24268731.6684
 -31551411.66448 -24573513.70747  20601587.5784                   20601583.1484
  -2143358.86347  -1658052.69543  24024356.3674                   24024354.4184
 11  8 22  0  9  0.0000000  0  9G10G12G09G17G05G04G25G02G30
 -27846886.28148 -21688210.71946  20862659.0864                   20862657.5234
 -21660740.40247 -16867034.98846  21498815.4384                   21498813.1254
 -13527977.02346 -10529401.02344  23523270.2194                   23523270.1724
 -29537093.74647 -23003811.58245  23091278.1094                   23091277.5204
 -17353440.60247 -13510326.35946  22059171.7974                   22059171.0514
 -30586919.13748 -23821385.28945  21579654.5004                   21579652.5634
  -2636178.44946  -2042565.54344  24244470.7664                   24244471.8204
 -31580438.68048 -24596132.14147  20596063.7424                   20596059.6024
  -2271735.13346  -1758086.05543  23999926.6174                   23999925.5084
 11  8 22  0  9 30.0000000  0  9G10G12G09G17G05G04G25G02G30
 -27877071.29747 -21711731.48846  20856915.1024                   20856913.5744
 -21750532.69147 -16937002.98446  21481728.7974                   21481725.9494
 -13477818.87147 -10490316.81244  23532815.4384                   23532815.2384
 -29512405.48047 -22984574.00445  23095976.1484                   23095975.7704
 -17471726.75847 -13602497.30946  22036662.7734                   22036661.8404
 -30537709.65248 -23783040.24245  21589018.4924                   21589016.4414
  -2763501.26647  -2141778.02344  24220241.5634                   24220242.9024
 -31609160.27747 -24618512.60247  20590598.2584                   20590593.9454
  -2399878.22346  -1857937.71943  23975541.4304                   23975540.5394
 11  8 22  0 10  0.0000000  0  9G10G12G09G17G05G04G25G02G30
 -27906619.45747 -21734756.00446  20851292.2114                   20851290.1604
 -21839904.61347 -17006643.43446  21464721.6564                   21464718.9924
 -13427463.15646 -10451078.67644  23542397.8914                   23542397.2894
 -29487556.79347 -22965211.43045  23100704.7274                   23100703.7814
 -17589717.61747 -13694438.15646  22014209.6644                   22014208.7544
 -30488342.93448 -23744572.67645  21598412.3054                   21598411.2344
  -2890660.56246  -2240863.10544  24196043.9304                   24196045.7344
 -31637577.57047 -24640655.94547  20585190.6024                   20585186.2424
  -2527785.76246  -1957605.87543  23951201.1644                   23951200.4264
 11  8 22  0 10 30.0000000  0  9G10G12G09G17G05G04G25G02G30
 -27935529.81247 -21757283.52746  20845790.9454                   20845788.7664
 -21928853.36347 -17075954.12946  21447795.3444                   21447792.8164
 -13376912.98446 -10411688.98844  23552017.8674                   23552016.2774
 -29462546.49647 -22945722.91844  23105464.3204                   23105462.8714
 -17707409.67247 -13786146.18046  21991813.6564                   21991812.4774
 -30438820.49248 -23705983.77746  21607836.6564                   21607834.9104
  -3017653.19147  -2339818.32444  24171878.0864                   24171879.4774
 -31665691.83647 -24662563.16447  20579840.4774                   20579836.3014
  -2655454.22746  -2057087.68443  23926907.2034                   23926906.0744
 11  8 22  0 11  0.0000000  0  9G10G12G09G17G05G04G25G02G30
 -27963803.03147 -21779314.57046  20840410.2894                   20840408.8754
 -22017377.52047 -17144933.96546  21430949.6724                   21430947.0354
 -13326172.91447 -10372151.32444  23561673.1954                   23561672.8984
 -29437374.93447 -22926108.75045  23110254.6174                   23110253.2074
 -17824801.22347 -13877620.03946  21969474.4384                   21969473.8554
 -30389145.69148 -23667276.16845  21617289.1644                   21617287.3444
  -3144477.74247  -2438642.57444  24147744.4694                   24147746.0634
 -31693504.88347 -24684235.66047  20574548.0084                   20574543.6604
  -2782882.03946  -2156382.01243  23902658.1954                   23902656.8204
 11  8 22  0 11 30.0000000  0  9G10G12G09G17G05G04G25G02G30
 -27991436.78947 -21800847.33646  20835152.0634                   20835150.2344
 -22105473.19147 -17213579.93046  21414185.9844                   21414182.9104
 -13275244.56247 -10332466.97744  23571364.5234                   23571364.6804
 -29412040.02347 -22906367.28145  23115075.4534                   23115074.1054
 -17941887.64147 -13968856.12146  21947193.8754                   21947192.6884
 -30339318.65248 -23628449.91845  21626770.9224                   21626769.0984
  -3271129.95747  -2537332.54344  24123642.8284                   24123644.3554
 -31721016.21548 -24705673.06646  20569312.5944                   20569308.2854
  -2910064.54746  -2255485.16043  23878455.9144                   23878454.7544
 11  8 22  0 12  0.0000000  0  9G10G12G09G17G05G04G25G02G30
 -28018432.96147 -21821883.30146  20830014.9924                   20830012.4884
 -22193140.05947 -17281891.74646  21397503.5084                   21397500.7544
 -13224133.35547 -10292640.12944  23581090.4614                   23581090.7544
 -29386543.10547 -22886499.58645  23119927.5234                   23119926.0354
 -18058668.06647 -14059853.77046  21924971.0704                   21924969.7034
 -30289343.70748 -23589508.43445  21636280.5864                   21636278.8634
  -3397609.18047  -2635887.68744  24099574.6884                   24099576.3054
 -31748229.01248 -24726877.83247  20564134.2894                   20564129.8954
  -3037001.10546  -2354396.69143  23854300.7664                   23854299.2664
 11  8 22  0 12 30.0000000  0  9G10G12G09G17G05G04G25G02G30
 -28044790.93747 -21842421.95746  20824998.9924                   20824997.0234
 -22280375.30547 -17349867.24246  21380903.0004                   21380900.4414
 -13172842.16447 -10252673.04744  23590851.0864                   23590851.3444
 -29360883.01247 -22866504.73845  23124810.3914                   23124808.9414
 -18175138.82847 -14150610.12946  21902807.4924                   21902806.2034
 -30239221.98448 -23550452.57445  21645819.0084                   21645817.3954
  -3523912.33647  -2734305.64844  24075539.7734                   24075541.3054
 -31775143.85247 -24747850.43747  20559012.7814                   20559008.2624
  -3163688.18447  -2453113.80543  23830193.2734                   23830191.6914
 11  8 22  0 13  0.0000000  0  9G10G12G09G17G05G04G25G02G30
 -28070510.53147 -21862463.17646  20820104.7894                   20820102.6764
 -22367176.99647 -17417504.89146  21364385.0234                   21364382.5824
 -13121374.95747 -10212568.81244  23600644.5084                   23600644.9964
 -29335059.47347 -22846382.52045  23129724.2034                   23129722.6604
 -18291297.62947 -14241123.40646  21880702.9144                   21880701.5354
 -30188955.92648 -23511284.24645  21655383.8674                   21655382.8364
  -3650037.16847  -2832584.66844  24051539.6484                   24051540.3874
 -31801762.18747 -24768591.99646  20553947.3444                   20553942.9104
  -3290123.39547  -2551634.66443  23806132.6334                   23806131.3554
 11  8 22  0 13 30.0000000  0  9G10G12G09G17G05G04G25G02G30
 -28095588.51247 -21882004.44946  20815332.5704                   20815330.7194
 -22453539.05147 -17484799.97346  21347950.5704                   21347948.3324
 -13069731.39847 -10172327.15644  23610472.0634                   23610472.3954
 -29309068.60247 -22826129.93444  23134670.3134                   23134669.2504
 -18407138.50847 -14331388.94146  21858659.5784                   21858658.2704
 -30138544.18748 -23472002.39845  21664976.9774                   21664975.7344
  -3775977.58647  -2930719.97744  24027573.6724                   24027574.6214
 -31828081.62948 -24789100.65247  20548939.0704                   20548934.2114
  -3416300.45347  -2649954.38743  23782122.5864                   23782120.2234
 11  8 22  0 14  0.0000000  0  9G10G12G09G17G05G04G25G02G30
 -28120025.91847 -21901046.55946  20810682.2194                   20810679.8834
 -22539460.85547 -17551751.99646  21331600.7194                   21331597.8094
 -13017916.47347 -10131951.97744  23620332.0864                   23620332.8914
 -29282911.49647 -22805747.83244  23139648.1414                   23139646.7624
 -18522659.78947 -14421405.43746  21836676.3914                   21836675.1254
 -30087990.46548 -23432609.91445  21674597.0864                   21674595.5784
  -3901732.60947  -3028710.83244  24003643.3134                   24003643.9924
 -31854104.87148 -24809378.50847  20543986.9774                   20543982.2734
  -3542218.02347  -2748071.88743  23758161.0084                   23758159.6604
 11  8 22  0 14 30.0000000  0  9G10G12G09G17G05G04G25G02G30
 -28143819.60948 -21919587.07446  20806154.5164                   20806152.5084
 -22624937.46547 -17618357.12946  21315334.8834                   21315331.7854
 -12965930.95347 -10091443.88744  23630225.0084                   23630225.3634
 -29256584.71147 -22785233.49244  23144658.2034                   23144656.4774
 -18637856.05147 -14511168.69146  21814755.6024                   21814754.1644
 -30037293.71548 -23393105.98845  21684244.3834                   21684243.2344
  -4027297.00447  -3126553.12944  23979748.9144                   23979750.2854
 -31879830.44948 -24829424.41046  20539092.0084                   20539086.9694
  -3667870.77047  -2845983.05543  23734250.2814                   23734248.5274
 11  8 22  0 15  0.0000000  0  9G10G12G09G17G05G04G25G02G30
 -28166970.96147 -21937627.07046  20801748.5394                   20801746.9884
 -22709967.41447 -17684614.20346  21299153.7274                   21299151.2384
 -12913779.07847 -10050806.13744  23640148.9384                   23640149.7934
 -29230088.87947 -22764587.45345  23149699.3984                   23149698.3914
 -18752725.04747 -14600676.93046  21792896.0234                   21792894.9414
 -29986457.05148 -23353493.03145  21693918.6884                   21693917.1134
  -4152669.03147  -3224245.50844  23955891.5704                   23955892.5164
 -31905260.56648 -24849240.07446  20534252.3834                   20534248.0434
  -3793256.73847  -2943686.30544  23710390.2974                   23710388.0784
 11  8 22  0 15 30.0000000  0  9G10G12G09G17G05G04G25G02G30
 -28189480.05148 -21955166.60546  20797465.9614                   20797463.4844
 -22794548.79747 -17750521.75846  21283058.8524                   21283056.1334
 -12861464.51646 -10010041.62944  23650104.0634                   23650104.9884
 -29203423.37547 -22743809.17644  23154774.1174                   23154772.9804
 -18867264.73847 -14689928.55546  21771099.8054                   21771098.4414
 -29935482.65247 -23313772.75045  21703618.5944                   21703616.6564
  -4277846.35247  -3321786.19944  23932070.4304                   23932071.7234
 -31930396.40247 -24868826.43447  20529469.0784                   20529464.9534
  -3918373.24647  -3041179.58644  23686580.6174                   23686579.4344
 11  8 22  0 16  0.0000000  0  9G10G12G09G17G05G04G25G02G30
 -28211343.73048 -21972203.23046  20793305.2034                   20793302.9064
 -22878676.59047 -17816075.84846  21267050.0004                   21267047.2774
 -12808987.82446  -9969150.80144  23660090.4844                   23660090.8914
 -29176585.08247 -22722896.25444  23159881.4064                   23159879.6804
 -18981469.27047 -14778919.03146  21749367.5864                   21749366.0234
 -29884369.62147 -23273944.44145  21713344.8284                   21713343.8754
  -4402823.55947  -3419170.94544  23908288.4844                   23908289.5594
 -31955236.50848 -24888182.35247  20524742.2344                   20524737.9064
  -4043214.84047  -3138458.68044  23662823.8674                   23662822.7814
 11  8 22  0 16 30.0000000  0  9G10G12G09G17G05G04G25G02G30
 -28232562.79348 -21988737.54746  20789267.0864                   20789264.7894
 -22962348.83647 -17881274.98446  21251127.2274                   21251124.7774
 -12756353.00447  -9928136.75044  23670106.6804                   23670107.5354
 -29149573.70747 -22701848.45344  23165021.2424                   23165019.9064
 -19095336.23047 -14867646.45746  21727698.9924                   21727697.8954
 -29833120.52348 -23234010.10245  21723097.3594                   21723095.7544
  -4527598.46547  -3516398.04744  23884544.5704                   23884545.7304
 -31979782.47748 -24907309.07447  20520071.1024                   20520066.8984
  -4167779.05547  -3235521.60944  23639120.4534                   23639119.1844
 11  8 22  0 17  0.0000000  0  9G10G12G09G17G05G04G25G02G30
 -28253137.66848 -22004769.90646  20785351.7814                   20785349.9844
 -23045564.07447 -17946118.01246  21235292.1884                   21235289.2074
 -12703563.95747  -9887002.53944  23680151.8134                   23680152.5474
 -29122389.57847 -22680666.02744  23170194.3204                   23170193.4654
 -19208863.37947 -14956109.10246  21706095.4384                   21706094.3834
 -29781737.67648 -23193971.54345  21732875.2344                   21732873.9414
  -4652169.05547  -3613465.95344  23860839.4924                   23860840.7194
 -32004035.94547 -24926207.87947  20515456.1644                   20515451.4924
  -4292063.65247  -3332366.68043  23615469.3984                   23615467.9844
 11  8 22  0 17 30.0000000  0  9G10G12G09G17G05G04G25G02G30
 -28273070.40248 -22020301.88346  20781558.8754                   20781556.7774
 -23128321.95747 -18010604.66846  21219543.8674                   21219540.9264
 -12650626.27347  -9845752.48844  23690226.2504                   23690226.4964
 -29095034.30947 -22659350.27344  23175400.0864                   23175398.5904
 -19322049.84447 -15044306.26646  21684556.9064                   21684556.0594
 -29730225.22348 -23153831.98445  21742677.9064                   21742676.0514
  -4776534.71947  -3710374.18444  23837173.3834                   23837175.0234
 -32028000.26647 -24944881.36746  20510895.8594                   20510891.2154
  -4416067.91046  -3428993.30543  23591872.3754                   23591871.2234
 11  8 22  0 18  0.0000000  0  9G10G12G09G17G05G04G25G02G30
 -28292360.60248 -22035333.19946  20777887.9384                   20777886.2934
 -23210619.98847 -18074732.99646  21203883.3204                   21203880.1524
 -12597542.58247  -9804388.63344  23700327.8284                   23700327.3794
 -29067506.71147 -22637900.24644  23180638.5474                   23180637.2424
 -19434892.62147 -15132235.65246  21663083.6024                   21663082.1844
 -29678584.57848 -23113592.54345  21752504.9384                   21752503.1054
  -4900692.44947  -3807120.38744  23813547.1414                   23813548.2464
 -32051676.04748 -24963330.01646  20506390.3754                   20506385.7934
  -4539788.43746  -3525398.80144  23568329.3364                   23568327.6484
 11  8 22  0 18 30.0000000  0  9G10G12G09G17G05G04G25G02G30
 -28311005.66848 -22049861.79746  20774339.9304                   20774337.8324
 -23292453.46948 -18138499.34046  21188310.5864                   21188308.0004
 -12544313.69147  -9762911.64544  23710456.7194                   23710456.3714
 -29039803.18747 -22616313.12144  23185910.3284                   23185909.0474
 -19547385.84847 -15219892.65646  21641677.1414                   21641675.4384
 -29626814.82048 -23073252.48045  21762356.2734                   21762354.1684
  -5024636.75847  -3903700.27744  23789960.9304                   23789962.5984
 -32075061.80548 -24981552.67647  20501940.4304                   20501935.7974
  -4663219.69946  -3621578.92244  23544840.7974                   23544839.1644
 11  8 22  0 19  0.0000000  0  9G10G12G09G17G05G04G25G02G30
 -28329004.23448 -22063886.64146  20770915.0234                   20770913.1914
 -23373818.19547 -18201900.41846  21172827.3054                   21172824.5944
 -12490941.74647  -9721323.18044  23720612.9144                   23720612.3834
 -29011922.09447 -22594587.63744  23191215.5944                   23191214.4534
 -19659525.82847 -15307274.38746  21620337.3284                   21620335.8364
 -29574916.74248 -23032812.44545  21772232.3134                   21772230.4654
  -5148363.79347  -4000110.85244  23766416.7584                   23766416.8324
 -32098157.34048 -24999549.18447  20497545.2034                   20497540.7774
  -4786357.57046  -3717530.42243  23521407.5634                   23521406.9774
 11  8 22  0 19 30.0000000  0  9G10G12G09G17G05G04G25G02G30
 -28346362.16848 -22077412.28146  20767611.8914                   20767609.9384
 -23454717.60247 -18264938.90646  21157432.8054                   21157429.9844
 -12437435.69147  -9679630.22744  23730795.2894                   23730795.1604
 -28983868.60947 -22572727.80144  23196554.1174                   23196553.5864
 -19771315.08647 -15394382.83646  21599064.2424                   21599063.1764
 -29522897.66848 -22992278.10945  21782131.0864                   21782129.6294
  -5271876.38347  -4096354.35944  23742912.4924                   23742913.8754
 -32120969.32448 -25017324.74647  20493204.4844                   20493199.8054
  -4909204.79346  -3813255.44144  23498031.1484                   23498029.5824
 11  8 22  0 20  0.0000000  0  9G10G12G09G17G05G04G25G02G30
 -28363076.32848 -22090436.29746  20764431.1724                   20764428.8984
 -23535146.43047 -18327610.70746  21142127.6174                   21142125.0124
 -12383795.25847  -9637832.58244  23741002.0704                   23741002.6454
 -28955638.82847 -22550730.59844  23201926.2584                   23201924.8014
 -19882747.70347 -15481213.38346  21577859.7194                   21577858.2234
 -29470756.04348 -22951648.28145  21792053.1254                   21792052.0274
  -5395168.61347  -4192426.14144  23719451.1254                   23719451.5164
 -32143495.90247 -25034877.92247  20488917.8444                   20488913.4534
  -5031755.19947  -3908749.17244  23474710.8444                   23474709.0554
 11  8 22  0 20 30.0000000  0  9G10G12G09G17G05G04G25G02G30
 -28379147.69948 -22102959.43046  20761373.2274                   20761370.8094
 -23615103.54347 -18389914.94546  21126912.2894                   21126909.6914
 -12330024.83647  -9595933.66844  23751234.6564                   23751235.3404
 -28927233.41047 -22528596.53544  23207331.3524                   23207330.4144
 -19993821.55547 -15567764.37546  21556722.8444                   21556721.0434
 -29418494.85948 -22910925.30545  21801998.3984                   21801996.8634
  -5518238.86347  -4288324.98444  23696031.4774                   23696032.3834
 -32165738.99648 -25052210.19547  20484685.0164                   20484680.4494
  -5154006.89147  -4004010.14844  23451446.5004                   23451445.5634
 11  8 22  0 21  0.0000000  0  9G10G12G09G17G05G04G25G02G30
 -26819157.35548 -20887382.52046  21058229.1644                   21058227.4774
 -22119164.93048 -17224248.48046  21411579.8524                   21411576.9614
 -10700710.77347  -8326338.41044  24061283.0474                   24061283.5824
 -27323233.52347 -21278726.53544  23512562.7424                   23512561.6254
 -18529111.30547 -14426431.64846  21835448.0164                   21835446.3714
 -27790698.88748 -21642512.87545  22111757.3914                   22111756.0164
  -4065661.37947  -3156446.37144  23972448.2194                   23972448.0394
 -30612280.26648 -23841722.86347  20780298.4224                   20780293.5594
  -3700534.16847  -2871433.93444  23728033.6804                   23728031.5314
 11  8 22  0 21 30.0000000  0  9G10G12G09G17G05G04G25G02G30
 -26833943.44148 -20898904.14146  21055415.4774                   21055413.6524
 -22198170.87947 -17285811.54746  21396545.4304                   21396543.0314
 -10646689.68746  -8284244.17244  24071563.2344                   24071563.7854
 -27294473.58647 -21256316.24244  23518035.1484                   23518034.5394
 -18639458.55947 -14512416.45746  21814449.2504                   21814448.0394
 -27738203.21148 -21601607.16845  22121746.9144                   22121745.0744
  -4188278.50447  -3251992.12144  23949113.9304                   23949115.1414
 -30633958.94148 -23858615.33647  20776172.7504                   20776168.5234
  -3822178.98847  -2966222.06244  23704885.0864                   23704883.9384
 11  8 22  0 22  0.0000000  0  9G10G12G09G17G05G04G25G02G30
 -26848088.70348 -20909926.41446  21052723.3754                   21052721.5044
 -22276699.64847 -17347002.78546  21381601.7734                   21381599.1914
 -10592549.78146  -8242057.35244  24081865.1564                   24081866.0434
 -27265537.54747 -21233768.73044  23523542.1804                   23523540.9774
 -18749440.11347 -14598116.31246  21793520.6724                   21793519.0554
 -27685594.64547 -21560613.49645  22131758.0554                   22131757.1844
  -4310666.84047  -3347359.60544  23925824.7504                   23925825.1994
 -30655358.93448 -23875290.65246  20772100.5474                   20772095.9694
  -3943517.78147  -3060771.71944  23681795.3674                   23681793.2194
 11  8 22  0 22 30.0000000  0  9G10G12G09G17G05G04G25G02G30
 -26861594.39148 -20920450.32046  21050153.4774                   21050151.5044
 -22354750.37548 -17407821.51246  21366749.3204                   21366746.5164
 -10538295.51247  -8199781.41444  24092189.7974                   24092189.9384
 -27236425.72747 -21211084.23044  23529081.2344                   23529080.6884
 -18859054.09847 -14683529.75046  21772661.7814                   21772660.2624
 -27632876.02048 -21519534.07445  22141790.5164                   22141789.0664
  -4432824.64847  -3442547.47344  23902578.4924                   23902579.4304
 -30676482.51248 -23891750.58247  20768080.9224                   20768076.3794
  -4064548.72747  -3155081.50444  23658763.6334                   23658761.6994
 11  8 22  0 23  0.0000000  0  9G10G12G09G17G05G04G25G02G30
 -26874459.39548 -20930474.99246  21047705.5944                   21047703.2814
 -22432318.87148 -17468264.48846  21351988.5394                   21351986.0744
 -10483928.44147  -8157417.57844  24102534.8984                   24102536.1564
 -27207136.02047 -21188261.12544  23534654.5864                   23534654.4224
 -18968296.34847 -14768653.52046  21751873.4534                   21751871.6954
 -27580047.32848 -21478368.88345  22151843.0164                   22151842.1804
  -4554747.59047  -3537552.30144  23879377.5554                   23879377.7194
 -30697329.03948 -23907994.63746  20764114.0634                   20764109.8054
  -4185267.23047  -3249147.84044  23635792.1254                   23635789.6374
 11  8 22  0 23 30.0000000  0  9G10G12G09G17G05G04G25G02G30
 -26886681.94148 -20939999.05546  21045379.7034                   21045377.3594
 -22509401.19148 -17528328.60946  21337320.5164                   21337317.7034
 -10429450.07447  -8114967.02344  24112902.5084                   24112903.5514
 -27177665.62147 -21165297.24244  23540263.8524                   23540263.5124
 -19077162.03947 -14853483.85946  21731156.9844                   21731155.3984
 -27527108.50847 -21437117.88745  22161917.2664                   22161915.6174
  -4676430.89147  -3632370.43444  23856222.4614                   23856222.8444
 -30717897.65248 -23924022.12546  20760200.2734                   20760195.5594
  -4305668.57047  -3342967.01244  23612880.0004                   23612878.5554
 11  8 22  0 24  0.0000000  0  9G10G12G09G17G05G04G25G02G30
 -26898263.77748 -20949023.85946  21043175.7424                   21043173.2854
 -22585996.56248 -17588013.30146  21322744.6644                   21322742.0594
 -10374864.68447  -8072433.07044  24123290.1804                   24123290.5824
 -27148015.59847 -21142193.37944  23545905.6564                   23545905.1524
 -19185649.51247 -14938019.50046  21710512.3594                   21710511.1684
 -27474062.62147 -21395783.44945  22172011.6804                   22172010.2894
  -4797873.22747  -3727000.77744  23833111.7344                   23833113.4414
 -30738190.67648 -23939834.87547  20756338.4924                   20756333.5434
  -4425751.05147  -3436537.74644  23590029.1024                   23590027.4264
 11  8 22  0 24 30.0000000  0  9G10G12G09G17G05G04G25G02G30
 -26909204.64148 -20957549.20346  21041093.7734                   21041091.5084
 -22662101.97348 -17647316.19146  21308262.6254                   21308259.6564
 -10320175.28147  -8029818.04744  24133697.0704                   24133698.1764
 -27118184.52347 -21118948.43444  23551582.3284                   23551581.7154
 -19293755.33647 -15022257.73446  21689940.6954                   21689939.0824
 -27420910.83247 -21354366.48445  22182125.8054                   22182124.7424
  -4919071.19947  -3821440.72744  23810048.6024                   23810049.9224
 -30758208.76648 -23955433.39846  20752528.9224                   20752524.4304
  -4545511.17646  -3529857.27044  23567239.1334                   23567237.6804
 11  8 22  0 25  0.0000000  0  9G10G12G09G17G05G04G25G02G30
 -26919505.07048 -20965575.51246  21039133.5704                   21039131.6024
 -22737715.91448 -17706236.12946  21293873.4774                   21293870.7154
 -10265385.09447  -7987124.51244  24144124.0164                   24144124.3954
 -27088172.26646 -21095562.30144  23557293.3524                   23557293.0004
 -19401477.25448 -15106196.82446  21669441.8054                   21669440.3594
 -27367654.90247 -21312868.38745  22192260.2034                   22192259.0664
  -5040022.28547  -3915688.28544  23787032.9774                   23787033.5864
 -30777953.44148 -23970818.87147  20748771.8054                   20748767.1334
  -4664946.32047  -3622923.57844  23544511.6484                   23544510.3054
 11  8 22  0 25 30.0000000  0  9G10G12G09G17G05G04G25G02G30
 -26929168.45748 -20973105.40646  21037294.8524                   21037293.1764
 -22812838.82048 -17764773.43446  21279578.0474                   21279575.3324
 -10210500.09846  -7944357.06644  24154567.3134                   24154568.6174
 -27057981.35946 -21072036.95344  23563038.5634                   23563038.0474
 -19508815.44947 -15189836.92646  21649016.1564                   21649014.1094
 -27314299.28147 -21271292.61745  22202413.7894                   22202411.5164
  -5160726.57047  -4009743.54745  23764063.8364                   23764064.2704
 -30797428.37548 -23985994.15647  20745065.8284                   20745060.9734
  -4784056.32847  -3715736.52044  23521846.2114                   23521844.1454
 11  8 22  0 26  0.0000000  0  9G10G12G09G17G05G04G25G02G30
 -26938195.67248 -20980139.60946  21035577.0234                   21035575.1254
 -22887469.23448 -17822926.98446  21265376.2584                   21265373.8524
 -10155523.95347  -7901518.60244  24165029.0634                   24165029.7424
 -27027611.38746 -21048372.07444  23568818.1484                   23568818.0274
 -19615767.26648 -15273175.94546  21628663.9614                   21628662.0594
 -27260846.46147 -21229641.09845  22212585.1644                   22212583.3634
  -5281181.73847  -4103604.68045  23741141.5634                   23741142.4884
 -30816635.28148 -24000960.59447  20741410.7274                   20741406.2194
  -4902838.83247  -3808294.31244  23499242.4454                   23499240.4574
 11  8 22  0 26 30.0000000  0  9G10G12G09G17G05G04G25G02G30
 -26946585.51648 -20986677.13346  21033980.1334                   21033978.4384
 -22961603.32448 -17880693.79746  21251269.1564                   21251266.1454
 -10100458.53546  -7858610.56643  24175508.1954                   24175508.4224
 -26997060.11746 -21024565.94144  23574632.0474                   23574631.4184
 -19722328.50448 -15356210.62146  21608385.9614                   21608384.0944
 -27207296.20747 -21187913.65645  22222775.8674                   22222774.3164
  -5401383.41847  -4197268.28145  23718267.6484                   23718268.6454
 -30835573.45348 -24015717.61746  20737807.0554                   20737802.3164
  -5021289.25447  -3900593.28544  23476702.2274                   23476699.9774
 11  8 22  0 27  0.0000000  0  9G10G12G09G17G05G04G25G02G30
 -26954337.34048 -20992717.51646  21032505.0864                   21032502.8874
 -23035237.91448 -17938071.38346  21237256.9924                   21237254.2504
 -10045305.84446  -7815634.53543  24186002.8834                   24186004.2584
 -26966325.77046 -21000617.14844  23580479.8984                   23580480.0164
 -19828495.12548 -15438937.78546  21588182.7424                   21588181.4024
 -27153648.97347 -21146110.63745  22232984.4614                   22232982.8054
  -5521327.75047  -4290731.34845  23695443.4844                   23695444.1994
 -30854243.16848 -24030265.45747  20734254.2194                   20734250.0664
  -5139403.59046  -3992630.38744  23454225.4614                   23454223.9844
 11  8 22  0 27 30.0000000  0  9G10G12G09G17G05G04G25G02G30
 -26961455.64548 -20998264.24646  21031151.0314                   21031148.0864
 -23108375.02748 -17995061.32046  21223339.5314                   21223336.7664
  -9990072.99246  -7772596.05943  24196513.5394                   24196514.8364
 -26935412.32047 -20976528.80944  23586363.0474                   23586361.4534
 -19934268.37148 -15521358.44146  21568054.8524                   21568053.0594
 -27099910.70347 -21104236.69545  22243210.9844                   22243209.7664
  -5641016.03947  -4383994.91444  23672667.6094                   23672668.1954
 -30872649.77048 -24044608.28147  20730751.5784                   20730747.4024
  -5257183.00446  -4084406.50444  23431813.1254                   23431811.5124
 11  8 22  0 28  0.0000000  0  9G10G12G09G17G05G04G25G02G30
 -26967938.60548 -21003315.90246  21029916.9384                   21029914.8834
 -23181010.44948 -18051660.34446  21209517.4614                   21209514.6954
  -9934761.09046  -7729496.00043  24207038.5784                   24207040.2544
 -26904316.64847 -20952298.45744  23592280.5314                   23592279.6414
 -20039643.89548 -15603469.18446  21548002.9844                   21548001.0084
 -27046080.96147 -21062291.46545  22253453.9694                   22253452.5514
  -5760443.41847  -4477055.16444  23649941.0474                   23649941.4884
 -30890791.89148 -24058745.00447  20727299.3524                   20727295.0784
  -5374622.56247  -4175917.79744  23409464.9224                   23409462.9264
 11  8 22  0 28 30.0000000  0  9G10G12G09G17G05G04G25G02G30
 -26973786.69948 -21007872.85246  21028804.0554                   21028801.7894
 -23253141.35548 -18107866.22746  21195791.2584                   21195788.3594
  -9879372.66846  -7686336.33643  24217579.1804                   24217580.2074
 -26873037.76647 -20927925.35944  23598232.8914                   23598231.7734
 -20144618.12948 -15685267.23446  21528026.7344                   21528025.1134
 -26992160.52347 -21020275.56245  22263714.6024                   22263712.9654
  -5879606.34847  -4569909.33644  23627265.6414                   23627265.7194
 -30908670.06648 -24072676.06247  20723897.3284                   20723892.8324
  -5491718.60947  -4267161.42244  23387182.0634                   23387180.4224
 11  8 22  0 29  0.0000000  0  9G10G12G09G17G05G04G25G02G30
 -26979003.00848 -21011937.50446  21027811.7194                   21027809.5704
 -23324768.37548 -18163679.48846  21182160.9064                   21182158.2934
  -9823913.52346  -7643121.51243  24228133.2974                   24228134.1484
 -26841577.48447 -20903410.91444  23604219.0784                   23604218.5314
 -20249190.80548 -15766752.38746  21508126.9614                   21508125.3164
 -26938153.41847 -20978192.12945  22273991.6724                   22273990.2814
  -5998504.67647  -4662557.34044  23604639.5394                   23604639.7384
 -30926287.99648 -24086404.32447  20720544.7504                   20720540.3444
  -5608470.76247  -4358137.05944  23364964.9774                   23364963.3244
 11  8 22  0 29 30.0000000  0  9G10G12G09G17G05G04G25G02G30
 -26983584.23048 -21015507.28146  21026939.8284                   21026938.0944
 -23395885.52348 -18219095.44546  21168627.5704                   21168625.3204
  -9768382.76646  -7599850.91043  24238700.9694                   24238701.4734
 -26809931.51247 -20878751.76644  23610241.7734                   23610240.3834
 -20353355.31248 -15847919.48046  21488305.2504                   21488303.2854
 -26884057.49247 -20936039.48445  22284286.3284                   22284285.1134
  -6117131.70747  -4754993.92645  23582065.2274                   23582065.9534
 -30943642.57848 -24099927.38347  20717242.0634                   20717237.9574
  -5724872.28147  -4448839.48044  23342814.0164                   23342812.7034
 11  8 22  0 30  0.0000000  0  9G10G12G09G17G05G04G25G02G30
 -26987532.76248 -21018584.06246  21026188.1414                   21026186.4104
 -23466492.82448 -18274114.12146  21155191.8754                   21155189.3594
  -9712785.59446  -7556528.55943  24249280.4454                   24249281.5234
 -26778101.13747 -20853948.93744  23616298.4144                   23616297.9184
 -20457110.85948 -15928767.90646  21468561.2114                   21468559.3754
 -26829876.21947 -20893820.33245  22294596.4694                   22294595.3674
  -6235486.57847  -4847218.44944  23559543.0784                   23559543.9574
 -30960737.24248 -24113247.90647  20713989.1024                   20713984.8204
  -5840922.27747  -4539267.99244  23320730.5474                   23320728.7074
 11  8 22  0 30 30.0000000  0  9G10G12G09G17G05G04G25G02G30
 -26990848.43448 -21021167.70346  21025557.4304                   21025555.1844
 -23536587.84048 -18328733.61746  21141853.2344                   21141850.2704
  -9657124.44946  -7513156.35944  24259872.2974                   24259873.6174
 -26746085.43047 -20829001.68744  23622390.9454                   23622390.6524
 -20560454.36348 -16009295.26246  21448895.2504                   21448893.6174
 -26775610.53147 -20851535.39145  22304922.5004                   22304921.4224
  -6353565.94147  -4939228.29344  23537073.4304                   23537073.6684
 -30977572.35548 -24126366.18046  20710785.3054                   20710781.2114
  -5956617.12547  -4629419.77044  23298714.7894                   23298712.4024
 11  8 22  0 31  0.0000000  0  9G10G12G09G17G05G04G25G02G30
 -26993533.71148 -21023260.12946  21025046.4774                   21025044.2464
 -23606169.85548 -18382953.37146  21128612.2274                   21128609.2074
  -9601404.23446  -7469738.12143  24270475.2424                   24270477.2544
 -26713885.41847 -20803910.82444  23628518.6334                   23628517.9534
 -20663384.65248 -16089500.64146  21429308.3524                   21429306.6454
 -26721263.81247 -20809187.31245  22315264.3444                   22315262.8164
  -6471368.62547  -5031022.54744  23514656.1254                   23514656.6094
 -30994150.97348 -24139284.57847  20707630.5784                   20707626.1254
  -6071955.56247  -4719293.82444  23276766.6484                   23276764.6914
 11  8 22  0 31 30.0000000  0  9G10G12G09G17G05G04G25G02G30
 -26995589.63348 -21024862.13746  21024655.2734                   21024653.1094
 -23675237.44148 -18436772.27746  21115469.2664                   21115466.6414
  -9545628.12546  -7426276.33244  24281089.2584                   24281091.4344
 -26681500.40247 -20778675.80144  23634681.1254                   23634680.4414
 -20765899.32848 -16169382.16046  21409800.5164                   21409798.9384
 -26666837.53947 -20766777.26245  22325621.6174                   22325620.6914
  -6588891.93747  -5122599.10244  23492292.4224                   23492292.4924
 -31010473.89848 -24152003.74247  20704524.9304                   20704520.4024
  -6186934.91046  -4808888.08244  23254886.6724                   23254885.1454
 11  8 22  0 32  0.0000000  0  9G10G12G09G17G05G04G25G02G30
 -26997017.52348 -21025974.77046  21024383.6334                   21024381.4534
 -23743788.89548 -18490188.99646  21102424.0004                   21102421.4964
  -9489799.91846  -7382773.94944  24291713.5554                   24291714.2974
 -26648930.80946 -20753296.95344  23640878.7194                   23640879.2274
 -20867995.99648 -16248937.95346  21390371.8674                   21390370.5314
 -26612333.71547 -20724306.77745  22335993.7974                   22335992.2584
  -6706133.61747  -5213956.21144  23469981.7664                   23469982.2274
 -31026542.87548 -24164525.01647  20701466.6024                   20701462.3834
  -6301552.75446  -4898200.62944  23233075.0784                   23233073.3634
 11  8 22  0 32 30.0000000  0  9G10G12G09G17G05G04G25G02G30
 -26997816.19148 -21026597.11346  21024231.2504                   21024229.3834
 -23811820.02348 -18543200.27746  21089478.2034                   21089475.3954
  -9433920.46947  -7339231.65644  24302347.1724                   24302348.4734
 -26616174.13747 -20727772.32444  23647112.5704                   23647111.9534
 -20969669.84048 -16328164.27746  21371024.1804                   21371022.5004
 -26557751.93747 -20681775.53145  22346379.9144                   22346379.3524
  -6823088.91847  -5305090.16045  23447726.3754                   23447726.8444
 -31042356.79348 -24176847.54746  20698457.4844                   20698453.3594
  -6415804.21947  -4987227.69144  23211334.0234                   23211332.2154
 11  8 22  0 33  0.0000000  0  9G10G12G09G17G05G04G25G02G30
 -26997985.47348 -21026729.01646  21024199.4384                   21024197.2464
 -23879328.48448 -18595804.27746  21076631.7664                   21076629.3714
  -9377992.31646  -7295651.38743  24312989.5084                   24312991.3754
 -26583228.56246 -20702100.52344  23653381.6484                   23653382.0274
 -21070917.85548 -16407058.79346  21351757.2894                   21351755.3054
 -26503093.21147 -20639184.34445  22356781.0944                   22356780.4774
  -6939754.33247  -5395998.24645  23425525.4144                   23425525.7814
 -31057916.36348 -24188971.88347  20695496.3054                   20695491.9844
  -6529685.80547  -5075966.54344  23189662.8444                   23189661.9964
 11  8 22  0 33 30.0000000  0  9G10G12G09G17G05G04G25G02G30
 -26997524.82848 -21026370.07846  21024287.0784                   21024285.2504
 -23946311.22748 -18647998.62946  21063885.4454                   21063882.8204
  -9322016.98446  -7252034.40643  24323641.9304                   24323643.1724
 -26550092.71146 -20676280.44944  23659687.2114                   23659686.5434
 -21171736.31248 -16485618.58246  21332572.4064                   21332570.3404
 -26448357.32847 -20596533.02345  22367197.3204                   22367195.6954
  -7056125.68447  -5486677.18745  23403380.7664                   23403381.0434
 -31073221.29748 -24200897.79746  20692584.3364                   20692579.8754
  -6643193.13747  -5164413.78144  23168063.4144                   23168062.0044
 11  8 22  0 34  0.0000000  0  9G10G12G09G17G05G04G25G02G30
 -26996440.04348 -21025524.77746  21024493.5004                   21024490.9734
 -24012771.22348 -18699785.65646  21051238.1804                   21051235.7424
  -9266002.58646  -7208386.92643  24334300.2664                   24334302.9494
 -26516770.78146 -20650315.35544  23666028.5314                   23666027.7504
 -21272127.25848 -16563845.25046  21313468.4614                   21313466.1564
 -26393550.75447 -20553826.63345  22377626.2424                   22377624.4774
  -7172204.96947  -5577128.53945  23381291.3134                   23381292.0124
 -31088277.42248 -24212629.84847  20689719.2034                   20689714.8094
  -6756328.20347  -5252570.95744  23146534.5474                   23146533.0044
 11  8 22  0 34 30.0000000  0  9G10G12G09G17G05G04G25G02G30
 -26994731.09848 -21024193.13346  21024818.7344                   21024816.4024
 -24078705.43448 -18751162.97746  21038691.5084                   21038688.7424
  -9209951.29346  -7164710.75043  24344967.4534                   24344968.8284
 -26483261.35546 -20624204.18444  23672405.1334                   23672404.0124
 -21372087.07048 -16641735.96946  21294446.4454                   21294444.6374
 -26338674.12947 -20511065.64545  22388069.3594                   22388067.2934
  -7287988.63747  -5667349.55545  23359258.4614                   23359259.2774
 -31103085.19948 -24224168.37547  20686901.3834                   20686896.9454
  -6869087.38747  -5340435.23044  23125077.0394                   23125075.4224
 11  8 22  0 35  0.0000000  0  9G10G12G09G17G05G04G25G02G30
 -26992396.66848 -21022374.08246  21025262.8364                   21025260.8054
 -24144109.68748 -18802127.34046  21026245.5394                   21026242.7584
  -9153863.71146  -7121006.25043  24355640.3674                   24355641.3754
 -26449561.80546 -20597944.83644  23678817.4614                   23678816.5784
 -21471610.81648 -16719286.89546  21275507.7424                   21275505.7774
 -26283726.60547 -20468249.40245  22398525.1254                   22398523.8754
  -7403471.46147  -5757336.14145  23337282.9144                   23337283.6524
 -31117643.23448 -24235512.28546  20684130.9224                   20684126.6564
  -6981465.37147  -5428002.46944  23103692.6254                   23103690.7384
 11  8 22  0 35 30.0000000  0  9G10G12G09G17G05G04G25G02G30
 -26989437.77747 -21020068.45346  21025826.2114                   21025823.9454
 -24208982.19548 -18852677.35546  21013900.7424                   21013898.2424
  -9097743.20746  -7077276.08643  24366319.6334                   24366321.2974
 -26415671.59846 -20571536.93444  23685267.7664                   23685265.8914
 -21570696.20748 -16796496.25046  21256652.5704                   21256650.6484
 -26228709.63747 -20425379.06245  22408995.1414                   22408993.6994
  -7518650.81247  -5847086.25845  23315364.7664                   23315365.1954
 -31131952.60548 -24246662.44546  20681407.9924                   20681403.4454
  -7093459.37947  -5515270.50044  23082380.2894                   23082378.8794
 11  8 22  0 36  0.0000000  0  9G10G12G09G17G05G04G25G02G30
 -26985855.25048 -21017276.86346  21026507.4924                   21026505.2114
 -24273321.45348 -18902811.84846  21001657.6884                   21001654.7584
  -9041592.64546  -7033522.55143  24377005.0164                   24377006.4414
 -26381590.02046 -20544979.90644  23691752.4454                   23691750.9694
 -21669340.51648 -16873361.89846  21237881.0164                   21237878.9144
 -26173624.55147 -20382455.65245  22419477.2194                   22419476.2234
  -7633523.86347  -5936597.69945  23293504.5704                   23293505.9064
 -31146014.28148 -24257619.59046  20678732.2274                   20678727.5744
  -7205066.59847  -5602237.13744  23061142.1174                   23061140.3444
 11  8 22  0 36 30.0000000  0  9G10G12G09G17G05G04G25G02G30
 -26981651.05548 -21014000.86346  21027307.6724                   21027305.0084
 -24337126.24648 -18952529.87146  20989515.9384                   20989513.3134
  -8985416.20346  -6989748.80943  24387695.3984                   24387696.6294
 -26347317.56646 -20518274.14144  23698274.1174                   23698273.0594
 -21767542.15648 -16949882.60946  21219193.5944                   21219191.7774
 -26118473.80147 -20339481.04745  22429971.6884                   22429970.2704
  -7748088.58647  -6025868.87545  23271704.2734                   23271705.4224
 -31159830.28148 -24268385.30546  20676103.1484                   20676098.3834
  -7316284.98047  -5688900.77044  23039977.9454                   23039976.1644
 11  8 22  0 37  0.0000000  0  9G10G12G09G17G05G04G25G02G30
 -26976822.00847 -21010237.95746  21028226.6094                   21028224.6914
 -24400390.66048 -19001826.81646  20977476.7504                   20977474.3954
  -8929212.65246  -6945953.97343  24398391.2194                   24398392.1564
 -26312849.86346 -20491416.25843  23704833.0944                   23704832.4654
 -21865294.43448 -17026053.16846  21200592.2424                   21200590.2774
 -26063254.59447 -20296453.12545  22440480.0314                   22440478.2034
  -7862338.13347  -6114894.46145  23249962.8134                   23249963.8524
 -31173397.66048 -24278957.28546  20673520.8834                   20673516.4414
  -7427107.56247  -5775256.02344  23018889.2814                   23018887.6954
 11  8 22  0 37 30.0000000  0  9G10G12G09G17G05G04G25G02G30
 -26971374.22347 -21005992.91846  21029263.3134                   21029261.1684
 -24463118.24248 -19050705.45346  20965540.4614                   20965537.7234
  -8872989.91446  -6902144.18443  24409090.4224                   24409091.1484
 -26278191.41046 -20464409.71143  23711428.6254                   23711427.5514
 -21962599.69948 -17101875.40646  21182075.5704                   21182073.4264
 -26007973.37547 -20253376.88345  22450999.4454                   22450998.0124
  -7976274.79747  -6203676.23845  23228281.7814                   23228282.7424
 -31186722.50448 -24289340.28546  20670985.6024                   20670981.0474
  -7537536.65647  -5861304.62544  22997875.3754                   22997873.3714
 11  8 22  0 38  0.0000000  0  9G10G12G09G17G05G04G25G02G30
 -26965305.20347 -21001263.80146  21030418.0634                   21030415.9574
 -24525303.31648 -19099161.35946  20953706.8594                   20953704.2384
  -8816747.72346  -6858319.21544  24419792.5554                   24419794.1334
 -26243337.82046 -20437251.11743  23718061.0944                   23718060.6604
 -22059452.34848 -17177344.95746  21163644.8674                   21163643.2894
 -25952628.12147 -20210250.73445  22461531.4534                   22461530.1254
  -8089892.28547  -6292209.30145  23206660.9844                   23206661.4694
 -31199802.69948 -24299532.64846  20668496.5944                   20668492.2274
  -7647565.84047  -5947041.61744  22976937.4454                   22976935.3164
 11  8 22  0 38 30.0000000  0  9G10G12G09G17G05G04G25G02G30
 -26958616.00448 -20996051.43046  21031690.7894                   21031688.8524
 -24586944.52748 -19147193.46546  20941977.0554                   20941974.1134
  -8760489.34046  -6814481.66043  24430498.4924                   24430499.7074
 -26208289.24646 -20409940.57444  23724730.8204                   23724729.6764
 -22155849.69948 -17252459.73446  21145301.1644                   21145299.3594
 -25897220.27047 -20167075.81645  22472074.9924                   22472073.7544
  -8203187.94147  -6380491.59045  23185101.2424                   23185101.6024
 -31212639.37548 -24309535.24646  20666053.5164                   20666048.8204
  -7757192.46147  -6032464.92244  22956075.7034                   22956074.4384
 11  8 22  0 39  0.0000000  0  9G10G12G09G17G05G04G25G02G30
 -26951308.63348 -20990357.37146  21033081.8054                   21033079.4304
 -24648040.98848 -19194801.09046  20930350.6564                   20930347.7584
  -8704218.27746  -6770634.18043  24441206.2194                   24441207.8874
 -26173045.71146 -20382478.12144  23731438.0394                   23731436.8634
 -22251790.20748 -17327218.52746  21127044.1414                   21127042.5554
 -25841751.91447 -20123853.75445  22482630.6254                   22482628.9964
  -8316159.78147  -6468521.53144  23163603.7584                   23163603.6484
 -31225234.20748 -24319349.40646  20663657.2344                   20663652.5314
  -7866414.48847  -6117572.96144  22935291.7424                   22935290.3284
 11  8 22  0 39 30.0000000  0  9G10G12G09G17G05G04G25G02G30
 -26943385.10548 -20984183.18446  21034589.4224                   21034586.8984
 -24708591.93448 -19241983.62546  20918828.2504                   20918825.6954
  -8647938.38746  -6726779.85243  24451915.6414                   24451917.8524
 -26137608.14546 -20354864.49644  23738180.8444                   23738181.0394
 -22347272.26648 -17401620.09446  21108874.5784                   21108872.8834
 -25786225.35947 -20080586.34045  22493196.7274                   22493195.2774
  -8428805.77047  -6556297.58645  23142167.8134                   23142168.3364
 -31237589.07448 -24328976.57446  20661305.9694                   20661301.5704
  -7975229.84447  -6202364.09444  22914584.4614                   22914583.3164
 11  8 22  0 40  0.0000000  0  9G10G12G09G17G05G04G25G02G30
 -26934847.71148 -20977530.66846  21036213.7504                   21036211.9384
 -24768596.52348 -19288740.43446  20907409.8134                   20907407.0824
  -8591653.55146  -6682921.67243  24462626.9144                   24462628.4184
 -26101976.58246 -20327099.66444  23744961.8594                   23744960.9924
 -22442294.16448 -17475663.09446  21090792.4144                   21090790.7424
 -25730642.87147 -20037275.35945  22503773.9144                   22503772.6454
  -8541124.07847  -6643818.28145  23120794.0474                   23120794.9654
 -31249705.89548 -24338418.25046  20659000.3594                   20658995.6844
  -8083636.77047  -6286836.96944  22893955.3134                   22893953.6094
 11  8 22  0 40 30.0000000  0  9G10G12G09G17G05G04G25G02G30
 -26925697.18748 -20970400.37946  21037955.2114                   21037953.4694
 -24828052.92648 -19335070.07446  20896095.3984                   20896093.0824
  -8535366.61746  -6639061.84443  24473336.5084                   24473339.2584
 -26066150.05946 -20299182.93744  23751779.0314                   23751778.5784
 -22536853.41848 -17549345.58246  21072798.5234                   21072796.6294
 -25675005.63347 -19993921.69545  22514361.1724                   22514359.8054
  -8653111.76647  -6731081.36345  23099483.0314                   23099484.0944
 -31261585.75048 -24347675.28946  20656739.8754                   20656735.2074
  -8191632.17247  -6370989.18044  22873404.8444                   22873402.9964
 11  8 22  0 41  0.0000000  0  9G10G12G09G17G05G04G25G02G30
 -26915933.04348 -20962791.94546  21039813.0084                   21039811.2544
 -24886957.71948 -19380969.89546  20884886.3754                   20884883.6294
  -8479078.85245  -6595201.39143  24484048.9774                   24484050.5354
 -26030126.84846 -20271112.92644  23758634.0004                   23758632.9024
 -22630945.80548 -17622664.29746  21054893.4614                   21054891.2464
 -25619313.06247 -19950524.91845  22524959.0234                   22524958.4924
  -8764764.42247  -6818083.38345  23078236.8134                   23078237.2894
 -31273228.10948 -24356747.26646  20654524.1334                   20654519.7234
  -8299211.66047  -6454817.29744  22852932.7664                   22852931.6844
 11  8 22  0 41 30.0000000  0  9G10G12G09G17G05G04G25G02G30
 -26905552.55548 -20954703.24246  21041788.2974                   21041786.2774
 -24945305.22748 -19426435.46146  20873783.1334                   20873780.2894
  -8422789.28546  -6551339.44943  24494761.0084                   24494762.0474
 -25993902.27347 -20242886.02044  23765527.4924                   23765526.3834
 -22724564.99648 -17695614.27046  21037077.8134                   21037076.3014
 -25563562.56647 -19907082.98844  22535568.2034                   22535566.9534
  -8876075.11747  -6904818.95745  23057054.7974                   23057056.1954
 -31284629.76648 -24365631.67246  20652354.4384                   20652350.0084
  -8406368.30547  -6538315.92644  22832541.6724                   22832539.4454
 11  8 22  0 42  0.0000000  0  9G10G12G09G17G05G04G25G02G30
 -26894563.33248 -20946140.20346  21043879.5234                   21043877.4454
 -25003100.30548 -19471470.56246  20862784.8984                   20862782.1524
  -8366507.12146  -6507483.38343  24505471.1724                   24505472.5164
 -25957482.63747 -20214507.11744  23772457.7344                   23772457.2584
 -22817714.93748 -17768198.60246  21019351.9844                   21019350.1524
 -25507761.96947 -19863602.05545  22546187.3284                   22546186.0984
  -8987047.54347  -6991290.92245  23035937.6724                   23035938.0434
 -31295798.41048 -24374334.51646  20650229.4224                   20650224.8054
  -8513105.80147  -6621487.95744  22812230.4304                   22812228.2664
 11  8 22  0 42 30.0000000  0  9G10G12G09G17G05G04G25G02G30
 -26882965.50048 -20937102.93046  21046086.5394                   21046084.4184
 -25060339.98848 -19516072.89146  20851892.7424                   20851889.7384
  -8310234.00846  -6463634.29743  24516179.3674                   24516181.5164
 -25920866.02346 -20185974.72744  23779426.0474                   23779426.3874
 -22910391.88748 -17840414.36746  21001716.2504                   21001714.2934
 -25451911.03547 -19820081.85945  22556815.2194                   22556814.2504
  -9097677.49247  -7077496.02345  23014885.7034                   23014885.5044
 -31306733.53148 -24382855.37946  20648148.1804                   20648143.6884
  -8619419.96947  -6704330.12144  22791999.2584                   22791998.0864
 11  8 22  0 43  0.0000000  0  9G10G12G09G17G05G04G25G02G30
 -26870757.98848 -20927590.58246  21048410.0164                   21048407.5784
 -25117020.79348 -19560239.73446  20841106.7734                   20841103.6254
  -8253970.80946  -6419792.98443  24526886.6174                   24526887.9694
 -25884049.85247 -20157286.84445  23786432.0394                   23786431.7154
 -23002591.57048 -17912258.24246  20984171.3674                   20984169.4774
 -25396008.88747 -19776521.77345  22567452.8834                   22567452.0704
  -9207960.26247  -7163430.59045  22993899.0164                   22993899.4734
 -31317434.24648 -24391193.60546  20646112.0234                   20646107.3554
  -8725305.96147  -6786838.63744  22771849.5944                   22771848.3134
 11  8 22  0 43 30.0000000  0  9G10G12G09G17G05G04G25G02G30
 -26857944.31648 -20917605.90646  21050847.9924                   21050845.7854
 -25173143.03948 -19603971.34046  20830426.8834                   20830423.9734
  -8197722.44947  -6375963.18443  24537590.5004                   24537591.1254
 -25847035.84447 -20128444.78544  23793475.7424                   23793475.3524
 -23094313.76648 -17983730.03946  20966717.3674                   20966715.3014
 -25340058.96547 -19732924.44945  22578099.8524                   22578098.2344
  -9317895.13347  -7249094.08245  22972979.2734                   22972979.9144
 -31327903.78948 -24399351.69146  20644119.7504                   20644115.1294
  -8830763.30947  -6869013.13344  22751781.6334                   22751779.8014
 11  8 22  0 44  0.0000000  0  9G10G12G09G17G05G04G25G02G30
 -26844525.34048 -20907149.57446  21053401.6174                   21053399.4694
 -25228704.80148 -19647266.20346  20819853.9924                   20819851.3324
  -8141491.19147  -6332146.69543  24548290.5634                   24548290.8794
 -25809822.96947 -20099447.77044  23800556.9064                   23800556.3014
 -23185555.08248 -18054827.13746  20949354.5004                   20949352.7814
 -25284062.17247 -19689290.61345  22588755.4224                   22588753.8134
  -9427478.70347  -7334483.82845  22952126.2504                   22952127.4224
 -31338142.30948 -24407329.76646  20642171.1804                   20642166.8484
  -8935788.48847  -6950850.88744  22731796.3284                   22731794.1954
 11  8 22  0 44 30.0000000  0  9G10G12G09G17G05G04G25G02G30
 -26830502.32448 -20896222.54346  21056070.1484                   21056068.3134
 -25283703.99648 -19690122.70746  20809388.0164                   20809385.1954
  -8085280.16847  -6288345.96943  24558987.3134                   24558987.5274
 -25772410.87147 -20070295.53144  23807676.2114                   23807676.2624
 -23276313.25448 -18125547.75446  20932083.8444                   20932081.4804
 -25228019.28947 -19645620.87545  22599419.9924                   22599418.9534
  -9536708.20747  -7419597.67245  22931340.5864                   22931341.2154
 -31348151.14548 -24415128.85546  20640266.6644                   20640262.4414
  -9040378.68047  -7032349.69144  22711893.3984                   22711891.3364
 11  8 22  0 45  0.0000000  0  9G10G12G09G17G05G04G25G02G30
 -26815878.21148 -20884827.12946  21058852.9454                   21058851.0744
 -25338142.06648 -19732541.96946  20799029.0084                   20799025.8794
  -8029093.72747  -6244564.43743  24569678.9534                   24569680.9344
 -25734800.31247 -20040988.60944  23814833.5394                   23814832.8134
 -23366588.21548 -18195891.84446  20914905.0554                   20914903.1844
 -25171933.46547 -19601917.66045  22610093.0634                   22610091.6604
  -9645582.49647  -7504434.73045  22910622.3834                   22910622.9064
 -31357932.73848 -24422750.86346  20638405.5554                   20638401.0004
  -9144532.96547  -7113508.82845  22692073.5474                   22692071.6914
 11  8 22  0 45 30.0000000  0  9G10G12G09G17G05G04G25G02G30
 -26800655.42648 -20872965.22746  21061749.7424                   21061748.0164
 -25392017.48448 -19774522.79746  20788776.3754                   20788773.5354
  -7972935.45746  -6200804.89143  24580365.2664                   24580368.1134
 -25696992.57846 -20011528.05944  23822028.2274                   23822027.5514
 -23456378.28948 -18265858.10246  20897818.6954                   20897816.4694
 -25115806.58247 -19558182.46144  22620773.9384                   22620772.2274
  -9754099.71547  -7588993.54745  22889972.3594                   22889973.0004
 -31367489.32048 -24430197.56247  20636586.7664                   20636582.3634
  -9248249.27347  -7194326.67644  22672336.8444                   22672335.3134
 11  8 22  0 46  0.0000000  0  9G10G12G09G17G05G04G25G02G30
 -26784836.32048 -20860638.65646  21064760.2034                   21064757.8754
 -25445329.73448 -19816064.80546  20778631.4534                   20778628.6884
  -7916809.32046  -6157070.39844  24591046.1334                   24591049.0274
 -25658987.95746 -19981914.07044  23829259.4224                   23829258.8134
 -23545681.78148 -18335445.20746  20880824.5554                   20880822.4614
 -25059640.87147 -19514417.00044  22631461.4694                   22631460.6174
  -9862257.99647  -7673272.68745  22869390.4774                   22869391.1804
 -31376822.66448 -24437470.29747  20634810.7894                   20634806.6994
  -9351525.94547  -7274801.96545  22652684.1024                   22652682.1054
 11  8 22  0 46 30.0000000  0  9G10G12G09G17G05G04G25G02G30
 -26768421.64548 -20847848.02046  21067883.8984                   21067881.4844
 -25498077.02048 -19857166.57846  20768594.0944                   20768591.2894
  -7860717.56246  -6113362.68444  24601719.8674                   24601723.1644
 -25620785.16446 -19952145.70344  23836529.0944                   23836528.0634
 -23634495.92648 -18404651.00046  20863923.5314                   20863921.6524
 -25003436.85947 -19470621.70345  22642156.9534                   22642154.8754
  -9970053.99247  -7757269.52045  22848877.5084                   22848878.1564
 -31385933.02048 -24444569.27046  20633077.1564                   20633072.7194
  -9454359.59047  -7354932.03145  22633115.4694                   22633113.4224
 11  8 22  0 47  0.0000000  0  9G10G12G09G17G05G04G25G02G30
 -26751412.19948 -20834593.91046  21071120.8054                   21071118.1604
 -25550256.91448 -19897826.23446  20758664.5084                   20758661.8364
  -7804662.28946  -6069683.39143  24612387.1884                   24612389.8594
 -25582382.94946 -19922221.92244  23843837.4224                   23843836.6764
 -23722817.75448 -18473473.18446  20847116.7814                   20847114.3954
 -24947194.92647 -19426796.84444  22652859.1884                   22652857.7154
 -10077484.21147  -7840981.34045  22828434.5164                   22828434.1484
 -31394820.94148 -24451494.92646  20631385.6174                   20631381.5124
  -9556746.85547  -7434714.27345  22613631.6724                   22613629.9064
 11  8 22  0 47 30.0000000  0  9G10G12G09G17G05G04G25G02G30
 -26733807.33648 -20820875.84846  21074470.4534                   21074468.4024
 -25601866.07448 -19938041.16046  20748843.5164                   20748840.6724
  -7748644.41846  -6026033.28143  24623047.1954                   24623048.9454
 -25543779.29746 -19892141.18044  23851183.4224                   23851183.5554
 -23810642.88348 -18541908.30546  20830404.1334                   20830402.2304
 -24890914.36747 -19382941.89844  22663569.6254                   22663568.0084
 -10184543.83247  -7924404.39145  22808061.6564                   22808061.6454
 -31403485.21548 -24458246.31246  20629737.1414                   20629732.7504
  -9658682.86747  -7514144.89844  22594233.2894                   22594232.1454
 11  8 22  0 48  0.0000000  0  9G10G12G09G17G05G04G25G02G30
 -26715609.68048 -20806695.86346  21077933.7034                   21077931.6214
 -25652904.61748 -19977811.45346  20739131.5084                   20739128.4614
  -7692667.85546  -5982415.33643  24633699.0864                   24633702.0744
 -25504974.99646 -19861904.09044  23858568.0634                   23858566.2544
 -23897970.71548 -18609955.93446  20813786.0634                   20813784.2034
 -24834597.45747 -19339058.60944  22674286.0314                   22674285.8954
 -10291231.45347  -8007537.57445  22787759.5004                   22787759.8444
 -31411928.44548 -24464825.44946  20628130.0784                   20628125.9654
  -9760166.34447  -7593222.89545  22574921.9224                   22574921.0084
 11  8 22  0 48 30.0000000  0  9G10G12G09G17G05G04G25G02G30
 -26696820.09448 -20792054.63346  21081509.2424                   21081507.2304
 -25703370.02048 -20017135.15246  20729527.8054                   20729525.1564
  -7636734.41846  -5938831.05143  24644342.6644                   24644345.4064
 -25465968.50846 -19831509.41444  23865990.5554                   23865989.2734
 -23984797.93448 -18677613.47746  20797263.2274                   20797261.0904
 -24778244.45747 -19295147.21144  22685009.4924                   22685008.7624
 -10397543.30947  -8090377.94545  22767529.3984                   22767528.8524
 -31420150.68048 -24471232.38746  20626565.5784                   20626561.2344
  -9861193.53147  -7671945.34444  22555696.8594                   22555695.2504
 11  8 22  0 49  0.0000000  0  9G10G12G09G17G05G04G25G02G30
 -26677441.34048 -20776954.30946  21085196.8914                   21085194.7814
 -25753262.56248 -20056012.45746  20720033.7974                   20720030.8674
  -7580848.22346  -5895283.54343  24654978.5704                   24654981.4024
 -25426761.14846 -19800958.24644  23873451.4614                   23873450.5394
 -24071123.67648 -18744880.25046  20780835.9384                   20780834.0164
 -24721857.62547 -19251209.44144  22695739.3674                   22695738.2814
 -10503477.98047  -8172924.41845  22747370.3674                   22747370.5664
 -31428153.82848 -24477468.60546  20625042.5314                   20625038.1374
  -9961763.19147  -7750311.27045  22536559.1484                   22536557.8054
 11  8 22  0 49 30.0000000  0  9G10G12G09G17G05G04G25G02G30
 -26657472.73848 -20761394.36746  21088997.0164                   21088994.6134
 -25802578.08648 -20094440.14546  20710649.7664                   20710646.5234
  -7525009.80546  -5851773.27743  24665603.7274                   24665606.2384
 -25387350.05946 -19770248.35243  23880950.6414                   23880950.3714
 -24156943.36748 -18811752.70346  20764505.3284                   20764502.7114
 -24665435.93747 -19207244.50444  22706476.5084                   22706475.4064
 -10609030.46147  -8255173.07845  22727284.3204                   22727284.6994
 -31435936.78548 -24483533.25846  20623561.3984                   20623557.2194
 -10061870.21147  -7828316.71945  22517509.4144                   22517507.7344
 11  8 22  0 50  0.0000000  0  9G10G12G09G17G05G04G25G02G30
 -26636917.66048 -20745377.42646  21092908.3984                   21092906.1884
 -25851317.49248 -20132418.90646  20701374.3444                   20701372.1054
  -7469223.76646  -5808303.81243  24676220.0004                   24676222.5554
 -25347736.30946 -19739380.53544  23888488.4614                   23888488.6954
 -24242256.88748 -18878230.75046  20748270.5704                   20748268.2734
 -24608982.26247 -19163254.66044  22717219.5944                   22717217.6564
 -10714199.80147  -8337123.19945  22707270.9454                   22707271.1094
 -31443502.24648 -24489428.43046  20622122.1564                   20622117.5594
 -10161513.82847  -7905961.07045  22498548.2034                   22498546.4694
 11  8 22  0 50 30.0000000  0  9G10G12G09G17G05G04G25G02G30
 -26615776.22748 -20728903.58646  21096931.6414                   21096929.1134
 -25899478.01648 -20169946.60246  20692209.9694                   20692207.3524
  -7413491.37146  -5764876.12943  24686825.6954                   24686828.2114
 -25307918.48046 -19708353.66043  23896066.9844                   23896065.3404
 -24327060.27348 -18944311.27746  20732133.0474                   20732130.8484
 -24552495.90247 -19119239.35544  22727968.5554                   22727966.7584
 -10818981.68047  -8418771.39845  22687331.8134                   22687332.3204
 -31450849.53948 -24495153.60546  20620724.1024                   20620719.3094
 -10260689.85947  -7983241.07445  22479675.7114                   22479673.5824
 11  8 22  0 51  0.0000000  0  9G10G12G09G17G05G04G25G02G30
 -26594051.23047 -20711975.01246  21101065.4924                   21101063.3634
 -25947059.56248 -20207023.13746  20683155.7974                   20683152.7114
  -7357816.43746  -5721493.22743  24697420.1334                   24697421.4734
 -25267897.35546 -19677168.40643  23903682.1884                   23903680.2624
 -24411352.48447 -19009993.48846  20716092.4774                   20716090.6214
 -24495979.45347 -19075200.58244  22738723.0314                   22738721.6564
 -10923374.59048  -8500116.49645  22667466.7504                   22667466.5394
 -31457981.16047 -24500710.71547  20619366.5864                   20619362.5124
 -10359396.69547  -8060155.48445  22460892.2814                   22460890.4574
 11  8 22  0 51 30.0000000  0  9G10G12G09G17G05G04G25G02G30
 -24996323.88748 -19466992.66446  21405102.8364                   21405100.1804
 -24418638.19948 -19016045.45346  20974004.3524                   20974001.0744
  -5726782.19146  -4450557.61343  25007796.6254                   25007797.6604
 -23652252.51646 -18418224.39143  24211129.6644                   24211128.8324
 -22919707.77348 -17847672.90646  20999943.0474                   20999940.9494
 -22864014.57447 -17803539.66844  23049275.3984                   23049274.0594
  -9451951.24248  -7353552.83645  22947469.0554                   22947469.2464
 -29889476.89848 -23278499.60246  20917843.2664                   20917839.2234
  -8882207.51647  -6909098.94545  22741992.4144                   22741989.9454
 11  8 22  0 52  0.0000000  0  8G10G12G17G05G04G25G02G30
 -24973437.07848 -19449158.78546  21409457.9534                   21409455.9344
 -24465057.93048 -19052216.68046  20965171.2034                   20965168.3634
 -23611824.12946 -18386721.75443  24218822.4924                   24218821.6374
 -23002972.12948 -17912554.19146  20984098.3984                   20984096.0354
 -22807441.16447 -17759456.52744  23060041.3984                   23060039.8134
  -9555558.43747  -7434285.69545  22927753.6484                   22927753.4454
 -29896180.59448 -23283723.27746  20916567.8054                   20916563.3364
  -8979968.75847  -6985276.50045  22723388.5474                   22723387.0044
 11  8 22  0 52 30.0000000  0  8G10G12G17G05G04G25G02G30
 -24949971.52348 -19430873.94946  21413923.2814                   21413921.0124
 -24510894.94948 -19087933.84446  20956448.6804                   20956445.7734
 -23571191.14846 -18355059.74243  24226554.6884                   24226554.6414
 -23085718.95748 -17977032.21546  20968352.2894                   20968350.0044
 -22750840.33247 -17715352.00444  23070812.1954                   23070809.9884
  -9658768.29347  -7514708.94145  22908113.1644                   22908113.4064
 -29902671.17648 -23288780.87546  20915332.5474                   20915327.8054
  -9077252.85947  -7061082.27045  22704876.1884                   22704874.2424
 11  8 22  0 53  0.0000000  0  8G10G12G17G05G04G25G02G30
 -24925919.89847 -19412132.42646  21418500.3524                   21418498.1294
 -24556138.95348 -19123188.91846  20947839.0394                   20947835.7424
 -23530344.02356 -18323230.83653  24234326.9304                   24234327.2774
 -23167937.28148 -18041098.39846  20952706.4454                   20952704.7424
 -22694204.27747 -17671220.03544  23081589.5474                   23081588.6844
  -9761569.17647  -7594813.50845  22888550.7664                   22888551.1844
 -29908940.68748 -23293666.21946  20914139.5394                   20914134.9494
  -9174048.35247  -7136507.30545  22686456.7344                   22686454.5944
 11  8 22  0 53 30.0000000  0  8G10G12G17G05G04G25G02G30
 -24901279.78147 -19392932.32846  21423189.1484                   21423186.8914
 -24600784.92248 -19157977.98846  20939342.9844                   20939340.0004
 -23489278.75846 -18291231.96143  24242142.6484                   24242140.4184
 -23249621.23048 -18104748.20746  20937162.5784                   20937160.4104
 -22637530.13747 -17627058.41044  23092374.6094                   23092372.9964
  -9863954.40647  -7674594.18045  22869067.1954                   22869067.4884
 -29914986.12548 -23298376.96546  20912989.0004                   20912984.3914
  -9270348.48447  -7211546.35545  22668131.2664                   22668129.5394
 11  8 22  0 54  0.0000000  0  8G10G12G17G05G04G25G02G30
 -24876056.00447 -19373277.45346  21427989.1644                   21427986.8094
 -24644834.35948 -19192302.23047  20930960.9304                   20930958.0634
 -23447998.23046 -18259065.34843  24249997.9844                   24249996.5394
 -23330771.57048 -18167982.21146  20921720.3674                   20921718.0784
 -22580821.65247 -17582869.99644  23103165.3674                   23103165.1374
  -9965924.29347  -7754051.21145  22849663.0164                   22849663.7894
 -29920811.34048 -23302916.10246  20911880.5004                   20911876.6564
  -9366153.84047  -7286199.84845  22649900.0554                   22649897.7854
 11  8 22  0 54 30.0000000  0  8G10G12G17G05G04G25G02G30
 -24850257.29747 -19353174.55946  21432898.0234                   21432896.6174
 -24688293.18448 -19226166.24246  20922690.7894                   20922688.0944
 -23406508.39546 -18226735.64143  24257892.8054                   24257891.9574
 -23411393.24648 -18230804.27346  20906378.2424                   20906375.9734
 -22524086.42247 -17538660.77344  23113962.1954                   23113961.3794
 -10067482.88347  -7833187.75445  22830336.9144                   22830337.0124
 -29926424.07048 -23307289.66446  20910812.3364                   20910808.2384
  -9461468.50847  -7360471.00845  22631762.0784                   22631760.0864
 11  8 22  0 55  0.0000000  0  8G10G12G17G05G04G25G02G30
 -24823886.70347 -19332626.05146  21437916.4844                   21437914.3794
 -24731161.80548 -19259570.36346  20914533.4224                   20914530.4344
 -23364810.65647 -18194243.91444  24265828.2894                   24265826.8674
 -23491485.47348 -18293213.77346  20891137.5704                   20891134.8284
 -22467327.23847 -17494432.85544  23124763.1484                   23124762.2424
 -10168628.94547  -7912002.85545  22811089.4774                   22811089.8094
 -29931826.93448 -23311499.68446  20909784.2424                   20909779.9844
  -9556291.49647  -7434359.02045  22613718.0084                   22613715.3674
 11  8 22  0 55 30.0000000  0  8G10G12G17G05G04G25G02G30
 -24796947.35947 -19311634.35946  21443043.3134                   21443041.1094
 -24773440.41848 -19292514.73446  20906487.8674                   20906485.0004
 -23322906.12146 -18161591.03544  24273801.5394                   24273801.3984
 -23571047.77048 -18355210.34047  20875997.2734                   20875994.5594
 -22410546.22347 -17450187.92244  23135567.6094                   23135566.9804
 -10269361.14847  -7990495.46945  22791921.0704                   22791920.9614
 -29937022.11748 -23315547.90246  20908795.9534                   20908791.2774
  -9650621.57847  -7507862.96545  22595767.4614                   22595765.5124
 11  8 22  0 56  0.0000000  0  8G10G12G17G05G04G25G02G30
 -24769442.45747 -19290201.96946  21448277.0084                   21448274.7274
 -24815129.23448 -19324999.51646  20898554.9064                   20898551.8404
 -23280795.67246 -18128777.71544  24281814.9694                   24281813.4344
 -23650079.42248 -18416793.41846  20860957.9844                   20860955.8284
 -22353745.33646 -17405927.53144  23146376.7584                   23146376.4844
 -10369677.99247  -8068664.41045  22772831.2344                   22772831.4144
 -29942011.57848 -23319435.80546  20907846.5084                   20907841.6844
  -9744457.32847  -7580981.71145  22577911.3674                   22577909.1374
 11  8 22  0 56 30.0000000  0  8G10G12G17G05G04G25G02G30
 -24741375.24648 -19268331.42246  21453617.7894                   21453615.6724
 -24856228.85548 -19357025.19946  20890733.8284                   20890730.9654
 -23238480.32446 -18095804.75444  24289867.5784                   24289867.1524
 -23728580.14848 -18477962.78946  20846019.5944                   20846017.3284
 -22296927.45346 -17361653.86744  23157188.7584                   23157188.6214
 -10469578.44547  -8146508.90645  22753820.5864                   22753821.0514
 -29946798.19548 -23323165.64546  20906935.4534                   20906931.3054
  -9837797.93447  -7653714.64545  22560149.0474                   22560146.6994
 11  8 22  0 57  0.0000000  0  8G10G12G17G05G04G25G02G30
 -24712751.59047 -19246027.28146  21459064.9384                   21459062.9264
 -24896742.44548 -19388594.22746  20883024.3524                   20883021.3444
 -23195964.19546 -18062675.32044  24297958.3594                   24297957.9304
 -23806551.71548 -18538719.83246  20831182.4144                   20831180.0044
 -22240097.30946 -17317370.66844  23168003.0314                   23168003.0634
 -10569063.95747  -8224030.06645  22734889.1724                   22734889.8164
 -29951386.73848 -23326741.14546  20906062.2114                   20906057.9654
  -9930644.96547  -7726062.96545  22542480.8594                   22542478.6724
 11  8 22  0 57 30.0000000  0  8G10G12G17G05G04G25G02G30
 -24683571.64148 -19223289.66046  21464617.9144                   21464615.6294
 -24936666.95748 -19419704.23446  20875427.0944                   20875424.1804
 -23153245.11346 -18029387.72344  24306087.2504                   24306087.5164
 -23883990.60248 -18599061.80146  20816445.9454                   20816443.3594
 -22183253.69146 -17273076.94944  23178820.1254                   23178819.1844
 -10668129.77347  -8301224.18745  22716037.5234                   22716037.9304
 -29955775.98448 -23330161.35946  20905227.3284                   20905222.6844
 -10022993.87947  -7798023.15245  22524907.1724                   22524905.4494
 11  8 22  0 58  0.0000000  0  8G10G12G17G05G04G25G02G30
 -24653837.52347 -19200120.23046  21470276.1174                   21470273.4144
 -24976001.75048 -19450354.72747  20867941.4144                   20867939.1764
 -23110323.25046 -17995942.10544  24314255.1254                   24314254.5474
 -23960895.53948 -18658987.70346  20801811.2894                   20801809.2704
 -22126398.43446 -17228774.19144  23189639.5314                   23189638.1764
 -10766773.91847  -8378089.75045  22697266.0554                   22697266.3754
 -29959967.46548 -23333427.46946  20904429.8364                   20904424.9614
 -10114842.74647  -7869593.68445  22507429.1724                   22507427.5984
 11  8 22  0 58 30.0000000  0  8G10G12G17G05G04G25G02G30
 -24623551.57047 -19176520.78546  21476039.2424                   21476036.6994
 -25014746.39848 -19480545.35946  20860569.1724                   20860566.1054
 -23067198.32446 -17962338.26644  24322461.3054                   24322460.8014
 -24037264.87948 -18718496.25847  20787278.7584                   20787276.6254
 -22069532.48046 -17184463.05544  23200460.5234                   23200459.6024
 -10864993.99247  -8454624.87145  22678575.8204                   22678575.7114
 -29963962.66448 -23336540.63746  20903669.3914                   20903664.8834
 -10206189.44547  -7940772.92245  22490046.5164                   22490044.5664
 11  8 22  0 59  0.0000000  0  8G10G12G17G05G04G25G02G30
 -24592717.77047 -19152494.45346  21481906.7034                   21481904.4414
 -25052902.14848 -19510277.10946  20853308.0474                   20853305.3014
 -23023872.44147 -17928577.82844  24330706.2424                   24330705.6844
 -24113098.70748 -18777587.52347  20772848.1954                   20772846.1054
 -22012658.64147 -17140145.81244  23211283.7974                   23211282.4224
 -10962789.36747  -8530829.04345  22659965.8134                   22659966.1644
 -29967764.54748 -23339503.14846  20902945.8594                   20902941.2854
 -10297033.53147  -8011560.49645  22472759.3674                   22472757.1844
 11  8 22  0 59 30.0000000  0  8G10G12G17G05G04G25G02G30
 -24561336.96547 -19128041.88746  21487878.0164                   21487876.1954
 -25090466.74248 -19539548.23046  20846159.9064                   20846157.1564
 -22980343.90646 -17894659.50444  24338989.2114                   24338988.9414
 -24188394.14548 -18836259.27047  20758519.6884                   20758517.6684
 -21955776.69147 -17095822.23444  23222108.2114                   23222107.2894
 -11060156.32447  -8606699.39145  22641437.1254                   22641437.6484
 -29971372.40648 -23342314.48446  20902259.2664                   20902254.9924
 -10387371.39547  -8081953.64145  22455568.7114                   22455566.9494
 11  8 22  1  0  0.0000000  0  8G10G12G17G05G04G25G02G30
 -24529411.42647 -19103164.84446  21493953.6254                   21493951.1994
 -25127439.74648 -19568358.36746  20839123.9844                   20839120.9774
 -22936613.16046 -17860583.62144  24347311.0944                   24347310.8794
 -24263149.47748 -18894510.14847  20744294.2734                   20744292.4264
 -21898887.90647 -17051493.31644  23232933.3364                   23232932.7114
 -11157092.52347  -8682234.07445  22622991.4304                   22622990.9924
 -29974787.54348 -23344975.65246  20901609.2584                   20901604.9104
 -10477200.99647  -8151950.70745  22438474.2894                   22438472.0474
 11  8 22  1  0 30.0000000  0  8G10G12G17G05G04G25G02G30
 -24496943.01647 -19077864.80146  21500131.6804                   21500130.1684
 -25163820.09448 -19596706.69146  20832201.3524                   20832198.4454
 -22892679.91846 -17826349.93044  24355671.3524                   24355671.1644
 -24337363.26248 -18952339.03946  20730171.6564                   20730169.8244
 -21841992.91847 -17007159.59444  23243760.3444                   23243759.9574
 -11253595.41047  -8757431.12545  22604627.4384                   22604627.1254
 -29978010.64148 -23347487.17246  20900995.8054                   20900991.2544
 -10566519.90647  -8221549.85945  22421477.5474                   22421475.5784
 11  8 22  1  1  0.0000000  0  8G10G12G17G05G04G25G02G30
 -24463933.22747 -19052142.90646  21506413.6484                   21506411.4694
 -25199606.85248 -19624592.48046  20825391.0554                   20825388.3984
 -22848543.05146 -17791957.60244  24364070.6804                   24364069.5084
 -24411033.06248 -19009744.05546  20716152.9694                   20716150.7274
 -21785092.10547 -16962821.30944  23254588.2974                   23254586.6564
 -11349661.84448  -8832288.07845  22586346.8834                   22586346.5274
 -29981042.39148 -23349849.59846  20900419.1804                   20900414.6334
 -10655325.21147  -8290748.77045  22404578.1414                   22404576.9964
 11  8 22  1  1 30.0000000  0  8G10G12G17G05G04G25G02G30
 -24430384.49647 -19026001.04346  21512797.4384                   21512795.5514
 -25234799.53948 -19652015.37146  20818694.5474                   20818691.5434
 -22804203.05546 -17757406.95344  24372508.0704                   24372507.2194
 -24484157.55948 -19066724.14547  20702237.8594                   20702235.9494
 -21728186.83647 -16918479.56244  23265417.1024                   23265415.5704
 -11445289.69947  -8906803.28145  22568148.8674                   22568149.0164
 -29983884.65248 -23352064.35246  20899878.3594                   20899873.9614
 -10743614.90647  -8359545.93445  22387777.8364                   22387775.6174
 11  8 22  1  2  0.0000000  0  8G10G12G17G05G04G25G02G30
 -24396300.36347 -18999441.99246  21519283.7114                   21519281.6604
 -25269399.14547 -19678976.10546  20812110.1724                   20812107.1134
 -22759661.14846 -17722698.99243  24380983.7114                   24380983.3164
 -24556736.63348 -19123279.23846  20688426.3284                   20688424.2114
 -21671279.11346 -16874135.89844  23276246.2584                   23276244.8874
 -11540477.86347  -8980975.85945  22550035.5394                   22550035.3834
 -29986538.95748 -23354132.65246  20899373.2664                   20899368.6214
 -10831388.14847  -8427940.65645  22371075.1414                   22371072.7894
 11  8 22  1  2 30.0000000  0  9G10G12G29G17G05G04G25G02G30
 -24361682.28147 -18972466.87545  21525870.7344                   21525869.1564
 -25303404.08647 -19705473.47746  20805639.3594                   20805636.2894
   2998518.65257   2346029.89854  24684121.9694                   24684120.8244
 -22714916.73446 -17687833.23843  24389497.4534                   24389498.1994
 -24628768.06248 -19179407.60546  20674719.5634                   20674717.2304
 -21614369.59046 -16829790.85544  23287075.0394                   23287074.5434
 -11635223.35547  -9054803.50045  22532005.8054                   22532006.1294
 -29989005.98447 -23356055.02346  20898903.9774                   20898899.1174
 -10918642.17247  -8495930.78945  22354471.4454                   22354469.0354
 11  8 22  1  3  0.0000000  0  9G10G12G29G17G05G04G25G02G30
 -24326543.03947 -18945085.65645  21532558.4924                   21532556.0234
 -25336824.66847 -19731515.49646  20799279.6414                   20799276.7854
   2893849.96147   2264469.93844  24664204.2034                   24664202.7624
 -22669980.27346 -17652817.84043  24398049.7734                   24398048.2624
 -24700260.83248 -19235116.23047  20661114.5784                   20661112.4224
 -21557469.59446 -16785453.20344  23297903.2584                   23297902.6174
 -11729534.37547  -9128292.59845  22514058.8914                   22514058.9844
 -29991297.28147 -23357840.46146  20898467.8364                   20898462.8594
 -11005385.48447  -8563522.96945  22337964.4844                   22337962.7624
 11  8 22  1  3 30.0000000  0  9G10G12G29G17G05G04G25G02G30
 -24290887.35247 -18917302.03145  21539342.9384                   21539341.3404
 -25369662.69148 -19757103.58247  20793030.5704                   20793027.8594
   2789104.85947   2182850.42644  24644271.8204                   24644271.0004
 -22624854.31246 -17617654.77343  24406636.7584                   24406635.7894
 -24771215.92248 -19290405.87946  20647612.0634                   20647610.2774
 -21500582.48046 -16741125.62144  23308728.3834                   23308728.2304
 -11823411.01247  -9201443.19945  22496194.8524                   22496194.7424
 -29993416.33248 -23359491.68446  20898064.7424                   20898060.1604
 -11091618.22747  -8630717.29745  22321555.0084                   22321552.8714
 11  8 22  1  4  0.0000000  0  9G10G12G29G17G05G04G25G02G30
 -24254712.86747 -18889114.13345  21546226.7344                   21546224.6604
 -25401912.91048 -19782233.63746  20786893.6644                   20786890.4574
   2684288.84446   2101175.66844  24624325.5944                   24624324.9844
 -22579534.22346 -17582340.47343  24415260.8054                   24415260.8914
 -24841627.26248 -19345271.82447  20634213.3524                   20634211.5084
 -21443704.48446 -16696805.12544  23319552.1094                   23319551.7114
 -11916846.14847  -9274249.79345  22478414.6094                   22478414.9224
 -29995359.41848 -23361005.78146  20897694.6564                   20897690.4224
 -11177333.72747  -8697508.59045  22305243.9534                   22305241.6844
 11  8 22  1  4 30.0000000  0  9G10G12G29G17G05G04G25G02G30
 -24218018.71147 -18860521.30946  21553209.4144                   21553207.3484
 -25433571.49248 -19806902.67246  20780869.2894                   20780866.3404
   2579405.56646   2019448.48444  24604366.4844                   24604367.5474
 -22534016.52046 -17546872.18743  24423923.2584                   24423921.9494
 -24911490.24248 -19399710.48047  20620918.7584                   20620916.8404
 -21386833.52046 -16652490.10244  23330373.8524                   23330373.5274
 -12009834.14547  -9346707.95345  22460720.0084                   22460719.9344
 -29997124.40648 -23362381.09446  20897358.8984                   20897354.0434
 -11262526.46147  -8763892.52345  22289032.0004                   22289030.3834
 11  8 22  1  5  0.0000000  0  9G10G12G29G17G05G04G25G02G30
 -24180806.35547 -18831524.68045  21560290.5394                   21560288.4414
 -25464637.65247 -19831110.08246  20774957.8914                   20774954.7034
   2474456.32846   1937669.92244  24584395.9454                   24584394.8984
 -22488300.52746 -17511249.36343  24432621.4924                   24432622.6374
 -24980802.58248 -19453720.06247  20607729.3754                   20607727.0514
 -21329969.32846 -16608180.39144  23341194.8984                   23341194.9064
 -12102372.02347  -9418815.36745  22443110.3674                   22443110.2894
 -29998711.39547 -23363617.71546  20897057.0314                   20897052.6454
 -11347193.63747  -8829866.93045  22272920.3204                   22272918.4024
 11  8 22  1  5 30.0000000  0  9G10G12G29G17G05G04G25G02G30
 -24143075.11748 -18802123.73045  21567471.0704                   21567468.2424
 -25495107.83647 -19854853.09046  20769159.1644                   20769156.4224
   2369444.84446   1855842.83243  24564412.9774                   24564411.7304
 -22442383.20746 -17475469.70343  24441359.4844                   24441361.0164
 -25049560.01648 -19507297.26647  20594645.1884                   20594643.0354
 -21273110.22746 -16563874.64544  23352015.5704                   23352014.5434
 -12194454.62147  -9490568.02746  22425587.6644                   22425587.8014
 -30000118.77747 -23364714.37546  20896788.9224                   20896784.8674
 -11431330.51247  -8895428.12545  22256909.7584                   22256907.6254
 11  8 22  1  6  0.0000000  0  9G10G12G29G17G05G04G25G02G30
 -24104826.45747 -18772319.59445  21574749.5944                   21574747.1134
 -25524980.98848 -19878130.88347  20763474.6094                   20763471.7664
   2264372.22346   1773968.11343  24544417.5474                   24544416.9024
 -22396264.19546 -17439532.82843  24450136.1884                   24450135.7504
 -25117760.53948 -19560440.50047  20581667.0704                   20581664.6024
 -21216256.50046 -16519573.07844  23362834.2974                   23362833.7234
 -12286078.93047  -9561963.56645  22408152.1724                   22408152.5164
 -30001346.83247 -23365671.30946  20896555.4534                   20896551.2194
 -11514934.22747  -8960573.85245  22241000.3444                   22240998.5634
 11  8 22  1  6 30.0000000  0  9G10G12G29G17G05G04G25G02G30
 -24066063.49247 -18742114.69545  21582125.9614                   21582123.8554
 -25554257.13748 -19900943.46946  20757903.5394                   20757900.7734
   2159238.50846   1692045.73843  24524412.0784                   24524410.1454
 -22349943.94946 -17403439.14843  24458950.3364                   24458949.8874
 -25185403.34848 -19613149.16847  20568795.3134                   20568792.8364
 -21159409.17646 -16475276.52744  23373651.4614                   23373651.7344
 -12377243.14147  -9633000.59045  22390804.1414                   22390804.1604
 -30002397.15248 -23366489.73846  20896355.3284                   20896351.0864
 -11598003.23047  -9025302.91845  22225193.2344                   22225190.9144
 11  8 22  1  7  0.0000000  0  9G10G12G29G17G05G04G25G02G30
 -24026788.30947 -18711510.66845  21589599.6644                   21589597.9574
 -25582936.18048 -19923290.78946  20752446.1724                   20752443.3364
   2054044.78947   1610076.64843  24504393.7734                   24504392.3554
 -22303422.23446 -17367188.52743  24467803.0944                   24467801.9264
 -25252486.89548 -19665422.03147  20556029.4224                   20556027.2894
 -21102569.23446 -16430985.68744  23384468.0554                   23384468.0554
 -12467944.66847  -9703677.07445  22373543.9844                   22373544.2304
 -30003270.23048 -23367170.05946  20896189.3364                   20896184.9884
 -11680535.32047  -9089613.62145  22209488.0634                   22209485.5904
 11  8 22  1  7 30.0000000  0  9G10G12G29G17G05G04G25G02G30
 -23987005.66847 -18680511.19945  21597169.8594                   21597168.1374
 -25611019.94148 -19945174.24246  20747101.8984                   20747098.9414
   1948789.14847   1528059.27043  24484365.3284                   24484363.6254
 -22256701.57046 -17330782.82043  24476693.9694                   24476693.2074
 -25319012.23448 -19717259.93047  20543370.2274                   20543367.5514
 -21045739.72747 -16386703.01644  23395282.1644                   23395282.1724
 -12558183.69547  -9773993.15645  22356372.1644                   22356372.3204
 -30003969.41448 -23367714.87946  20896056.2894                   20896051.7934
 -11762530.82447  -9153506.18445  22193883.9534                   22193881.8874
 11  8 22  1  8  0.0000000  0  9G10G12G29G17G05G04G25G02G30
 -23946714.06247 -18649115.14845  21604837.1174                   21604834.9304
 -25638504.31648 -19966590.64846  20741871.8284                   20741868.8914
   1843476.11747   1445997.21143  24464323.9454                   24464323.4064
 -22209778.38747 -17294219.31643  24485623.5784                   24485623.9264
 -25384974.28948 -19768658.91047  20530817.8364                   20530815.7194
 -20988917.67247 -16342426.14144  23406095.6254                   23406094.5084
 -12647954.20347  -9843944.17245  22339289.5784                   22339289.3284
 -30004492.07048 -23368122.14146  20895957.0634                   20895952.5984
 -11843984.09847  -9216976.23445  22178384.3674                   22178382.2234
 11  8 22  1  8 30.0000000  0  8G10G12G29G05G04G25G02G30
 -23905918.09847 -18617326.09845  21612600.2504                   21612598.2034
 -25665391.24248 -19987541.50046  20736755.4614                   20736752.4104
   1738104.19546   1363889.23043  24444272.5554                   24444271.4344
 -25450374.13748 -19819619.80947  20518372.6024                   20518370.4734
 -20932106.26647 -16298157.55144  23416906.4144                   23416905.7304
 -12737256.10947  -9913530.03146  22322295.9454                   22322296.0084
 -30004841.31648 -23368394.27346  20895890.2034                   20895885.9804
 -11924895.38347  -9280023.96945  22162987.4224                   22162985.5234
 11  8 22  1  9  0.0000000  0  8G10G12G29G05G04G25G02G30
 -23864616.89848 -18585143.35245  21620459.7894                   21620457.3134
 -25691676.69148 -20008023.67646  20731753.5314                   20731750.8094
   1632677.51646   1281738.60543  24424209.8054                   24424209.6134
 -25515206.77048 -19870138.72347  20506035.2734                   20506033.1884
 -20875302.94146 -16253895.27744  23427715.9534                   23427715.1254
 -12826083.76647  -9982746.35545  22305392.4694                   22305392.4064
 -30005014.97348 -23368529.58246  20895857.3594                   20895853.1174
 -12005259.21147  -9342645.10245  22147694.5234                   22147692.7934
 11  8 22  1  9 30.0000000  0  8G10G12G29G05G04G25G02G30
 -23822807.26247 -18552564.41845  21628415.8204                   21628413.5594
 -25717355.78548 -20028033.36746  20726867.2194                   20726864.0084
   1527202.25846   1199550.11343  24404138.6414                   24404137.2734
 -25579465.73448 -19920210.62947  20493807.3054                   20493805.1374
 -20818502.76246 -16209635.43444  23438525.0944                   23438523.3484
 -12914429.36747 -10051587.05545  22288580.8914                   22288580.8054
 -30005008.19948 -23368524.30146  20895858.5554                   20895853.7544
 -12085068.12947  -9404833.84045  22132507.1644                   22132505.6174
 11  8 22  1 10  0.0000000  0  8G10G12G29G05G04G25G02G30
 -23780489.05547 -18519589.21945  21636469.1564                   21636466.6564
 -25742425.49648 -20047568.20346  20722096.3984                   20722093.5204
   1421681.58646   1117326.26643  24384058.4614                   24384057.7034
 -25643147.39548 -19969832.68047  20481689.0004                   20481687.0234
 -20761704.17647 -16165376.83644  23449333.5314                   23449331.9064
 -13002288.23047 -10120048.46945  22271861.8594                   22271861.8554
 -30004819.30148 -23368377.09846  20895894.6884                   20895890.0824
 -12164317.75847  -9466586.75845  22117426.1724                   22117424.6564
 11  8 22  1 10 30.0000000  0  8G10G12G29G05G04G25G02G30
 -23737667.64147 -18486221.88745  21644617.4534                   21644615.4694
 -25766888.43048 -20066630.23446  20717441.2584                   20717438.1764
   1316113.30146   1035065.32444  24363970.1094                   24363969.6764
 -25706253.43048 -20019006.18747  20469680.4144                   20469678.1914
 -20704910.66047 -16121122.20344  23460140.9694                   23460139.7734
 -13089661.10547 -10188131.20745  22255235.0234                   22255235.2704
 -30004452.29348 -23368091.10946  20895964.5234                   20895960.1054
 -12243009.12547  -9527904.67245  22102451.7274                   22102449.6214
 11  8 22  1 11  0.0000000  0  8G10G12G29G05G04G25G02G30
 -23694350.35547 -18452468.16445  21652860.4064                   21652858.2894
 -25790749.18048 -20085223.02346  20712900.4454                   20712897.9384
   1210493.37546    952764.12943  24343871.2034                   24343870.5234
 -25768787.62148 -20067734.11347  20457780.7584                   20457778.3364
 -20648128.25047 -16076876.21544  23470946.1094                   23470945.0084
 -13176550.73847 -10255837.38746  22238700.7344                   22238700.8014
 -30003913.09048 -23367670.94946  20896067.2034                   20896062.3674
 -12321145.29747  -9588789.98045  22087583.2664                   22087580.9264
 11  8 22  1 11 30.0000000  0  8G10G12G29G05G04G25G02G30
 -23650539.93747 -18418330.18045  21661197.1334                   21661195.6414
 -25814008.24248 -20103346.96547  20708474.6254                   20708471.7504
   1104822.20346    870423.02744  24323762.3204                   24323761.9774
 -25830748.90648 -20116015.61347  20445989.6804                   20445987.6414
 -20591357.62147 -16032639.37944  23481749.0164                   23481748.4494
 -13262955.03947 -10323165.37946  22222258.6884                   22222258.7934
 -30003202.87148 -23367117.52046  20896202.0784                   20896197.6844
 -12398724.59047  -9649241.35545  22072820.2034                   22072818.7774
 11  8 22  1 12  0.0000000  0  8G10G12G29G05G04G25G02G30
 -23606240.46547 -18383811.10545  21669627.0394                   21669625.3754
 -25836666.85948 -20121003.03146  20704162.8204                   20704159.9654
    999098.75046    788041.16043  24303644.4224                   24303643.3444
 -25892137.84048 -20163851.12547  20434307.6724                   20434305.1914
 -20534601.06647 -15988413.51644  23492549.5864                   23492549.2504
 -13348873.48447 -10390114.80146  22205908.8674                   22205908.6914
 -30002323.88748 -23366432.58246  20896369.5784                   20896364.9414
 -12475746.77047  -9709258.61345  22058163.7114                   22058161.9414
 11  8 22  1 12 30.0000000  0  8G10G12G29G05G04G25G02G30
 -23561455.48047 -18348913.71545  21678149.1644                   21678147.3244
 -25858726.21548 -20138192.13346  20699965.0784                   20699961.9494
    893322.92246    705618.49244  24283515.6724                   24283514.7664
 -25952954.42648 -20211240.64847  20422734.5704                   20422732.0394
 -20477860.71547 -15944200.27044  23503346.8754                   23503346.5274
 -13434305.13747 -10456684.90246  22189651.6884                   22189651.7584
 -30001278.45748 -23365617.96146  20896568.2974                   20896564.0784
 -12552211.24647  -9768841.29745  22043612.9144                   22043611.1214
 11  8 22  1 13  0.0000000  0  8G10G12G29G05G04G25G02G30
 -23516189.49647 -18313641.52345  21686763.1094                   21686761.0984
 -25880188.38348 -20154915.89847  20695880.9224                   20695878.2074
    787493.70746    623154.19143  24263377.0554                   24263375.6294
 -26013200.03147 -20258185.25447  20411270.3444                   20411267.9104
 -20421139.19947 -15900001.69944  23514140.4924                   23514139.2704
 -13519249.86348 -10522875.58246  22173487.1564                   22173486.8984
 -30000069.68747 -23364676.06246  20896798.3984                   20896793.7934
 -12628118.18447  -9827989.55545  22029168.1254                   22029166.3554
 11  8 22  1 13 30.0000000  0  8G10G12G29G05G04G25G02G30
 -23470447.11347 -18277998.12945  21695467.8984                   21695465.2894
 -25901055.12948 -20171175.70346  20691910.0864                   20691907.1884
    681609.43846    540646.98844  24243227.8444                   24243226.0824
 -26072875.29748 -20304685.44547  20399914.5554                   20399911.9654
 -20364439.22347 -15855819.91844  23524929.7114                   23524929.2034
 -13603707.52347 -10588686.73446  22157415.6414                   22157415.5664
 -29998700.06647 -23363608.81246  20897059.0704                   20897054.7974
 -12703467.79347  -9886703.52745  22014829.6094                   22014827.5474
 11  8 22  1 14  0.0000000  0  8G10G12G29G05G04G25G02G30
 -23424227.73847 -18241983.03545  21704263.1564                   21704260.0434
 -25921323.48048 -20186969.23047  20688053.1254                   20688050.5744
    575674.13746    458100.07443  24223069.1174                   24223067.7154
 -26131976.16848 -20350738.05147  20388667.7274                   20388665.5274
 -20307758.52747 -15811653.14844  23535716.4304                   23535715.2194
 -13687672.95347 -10654114.34846  22141437.5084                   22141437.7194
 -29997167.62948 -23362414.69546  20897350.8284                   20897346.3484
 -12778255.35947  -9944979.55145  22000598.1094                   22000596.0664
 11  8 22  1 14 30.0000000  0  8G10G12G29G05G04G25G02G30
 -23377536.17647 -18205599.99645  21713148.4304                   21713145.8914
 -25940995.70348 -20202298.23447  20684309.8054                   20684306.8204
    469686.47747    375512.32843  24202900.2034                   24202898.7384
 -26190503.71148 -20396343.90247  20377530.7194                   20377528.0164
 -20251099.62547 -15767503.34444  23546497.8594                   23546497.1644
 -13771146.09848 -10719158.35246  22125552.7664                   22125552.9344
 -29995475.13748 -23361095.87146  20897673.0314                   20897668.4184
 -12852481.16047 -10002817.82445  21986473.1174                   21986471.3324
 11  8 22  1 15  0.0000000  0  8G10G12G29G05G04G25G02G30
 -23330372.76647 -18168849.28945  21722122.9844                   21722120.5474
 -25960069.34048 -20217160.81647  20680680.0234                   20680677.1024
    363649.57447    292886.22343  24182721.7424                   24182721.0634
 -26248454.85948 -20441500.61747  20366502.6644                   20366500.4454
 -20194461.29747 -15723369.58244  23557275.6024                   23557275.1024
 -13854122.74648 -10783815.48046  22109763.1334                   22109762.7584
 -29993621.73048 -23359651.65646  20898025.1884                   20898021.0704
 -12926141.35547 -10060215.38345  21972456.4384                   21972453.9694
 11  8 22  1 15 30.0000000  0  8G10G12G29G05G04G25G02G30
 -23282740.79748 -18131733.46145  21731187.2584                   21731184.6054
 -25978546.19948 -20231558.36746  20677164.1094                   20677161.4264
    257563.10546    210221.50043  24162534.9924                   24162533.7664
 -26305830.01648 -20486208.51247  20355584.7274                   20355582.3284
 -20137845.39547 -15679253.27343  23568049.2194                   23568048.5904
 -13936602.02348 -10848085.06246  22094068.0474                   22094067.5474
 -29991609.30148 -23358083.53546  20898408.3594                   20898403.8714
 -12999235.32047 -10117171.71945  21958546.8674                   21958544.8364
 11  8 22  1 16  0.0000000  0  8G10G12G29G05G04G25G02G30
 -23234642.70747 -18094254.44145  21740339.8984                   21740337.9414
 -25996425.88348 -20245490.60546  20673761.7344                   20673759.3284
    151427.94146    127518.82444  24142337.5784                   24142336.6214
 -26362627.73048 -20530466.44147  20344776.4534                   20344773.8714
 -20081252.20347 -15635154.68443  23578819.2894                   23578817.6254
 -14018581.65248 -10911965.29746  22078467.5314                   22078467.6094
 -29989438.39547 -23356391.91446  20898821.6174                   20898817.1914
 -13071761.19547 -10173685.38745  21944745.7424                   21944743.4414
 11  8 22  1 16 30.0000000  0  8G10G12G29G05G04G25G02G30
 -23186082.55948 -18056415.35545  21749580.5864                   21749578.3594
 -26013709.79748 -20258958.60246  20670472.7274                   20670470.0084
     45243.50846     44777.77344  24122131.3984                   24122129.9414
 -26418848.57048 -20574274.87947  20334077.7114                   20334075.3444
 -20024683.48447 -15591075.16843  23589583.1254                   23589582.6644
 -14100060.78148 -10975455.53546  22062962.6644                   22062962.8134
 -29987111.15248 -23354578.48046  20899264.4454                   20899259.7854
 -13143718.64548 -10229756.13345  21931053.0864                   21931050.7344
 11  8 22  1 17  0.0000000  0  8G10G12G29G05G04G25G02G30
 -23137064.10547 -18018219.16445  21758908.6024                   21758905.8714
 -26030399.39148 -20271963.49246  20667296.7894                   20667293.9884
    -60990.13346    -38001.65243  24101915.8524                   24101914.0594
 -26474492.69547 -20617633.91447  20323489.1954                   20323486.6054
 -19968141.34047 -15547016.38343  23600342.5394                   23600342.0164
 -14181038.56648 -11038555.10946  22047553.0554                   22047553.1524
 -29984629.42648 -23352644.67246  20899736.5394                   20899732.4384
 -13215107.09048 -10285383.50045  21917468.2974                   21917465.9614
 11  8 22  1 17 30.0000000  0  8G10G12G29G05G04G25G02G30
 -23087589.97347 -17979667.89845  21768323.3834                   21768320.7894
 -26046494.91048 -20284505.46146  20664233.7114                   20664231.3054
   -167272.69546   -120819.19144  24081690.5004                   24081689.5664
 -26529559.78148 -20660543.31247  20313010.1414                   20313007.4614
 -19911626.77047 -15502979.03543  23611097.9144                   23611095.5394
 -14261513.44148 -11101262.80546  22032239.2274                   22032239.2504
 -29981994.61748 -23350591.57046  20900237.9694                   20900233.7344
 -13285925.37148 -10340566.58245  21903991.8754                   21903989.8714
 11  8 22  1 18  0.0000000  0  8G10G12G29G05G04G25G02G30
 -23037663.30948 -17940764.00445  21777823.8134                   21777821.2464
 -26061997.28148 -20296585.25046  20661283.6334                   20661281.3094
   -273603.48846   -203674.32844  24061456.6804                   24061455.4774
 -26584049.21548 -20703002.58647  20302641.3054                   20302638.7894
 -19855140.70346 -15458963.93043  23621846.4454                   23621844.9964
 -14341483.69548 -11163577.29746  22017021.6954                   22017021.0664
 -29979207.97348 -23348420.16046  20900768.4454                   20900764.0514
 -13356172.23848 -10395304.40645  21890624.3054                   21890621.7854
 11  8 22  1 18 30.0000000  0  8G10G12G29G05G04G25G02G30
 -22987283.30148 -17901506.85545  21787410.9224                   21787408.0664
 -26076903.03148 -20308200.13346  20658447.4224                   20658444.5824
   -379978.12146   -286563.60244  24041213.8984                   24041213.1054
 -26637956.80948 -20745008.48447  20292383.1024                   20292380.4614
 -19798680.08646 -15414968.64543  23632590.6334                   23632588.7504
 -14420943.91048 -11225494.34846  22001900.8284                   22001900.3524
 -29976266.69548 -23346128.26246  20901328.1564                   20901323.2074
 -13425842.56648 -10449592.96945  21877366.2424                   21877363.8524
 11  8 22  1 19  0.0000000  0  8G10G12G29G05G04G25G02G30
 -22936454.73047 -17861900.19145  21797083.1334                   21797080.6334
 -26091214.65648 -20319352.06246  20655723.8674                   20655721.1174
   -486397.95346   -369488.09044  24020963.0164                   24020962.0784
 -26691283.77748 -20786561.94947  20282235.3984                   20282232.6024
 -19742247.89547 -15370995.53943  23643329.0634                   23643328.1174
 -14499894.30548 -11287014.12946  21986876.9064                   21986876.8404
 -29973173.94148 -23343718.32846  20901916.6024                   20901911.8834
 -13494937.07048 -10503432.85545  21864218.5314                   21864215.7464
 11  8 22  1 19 30.0000000  0  8G10G12G29G05G04G25G02G30
 -22885181.83647 -17821947.29745  21806840.4224                   21806837.7274
 -26104934.02048 -20330042.49647  20653113.2814                   20653110.2974
   -592863.77046   -452448.41844  24000703.8364                   24000702.0434
 -26744031.51248 -20827664.05547  20272197.5474                   20272195.0634
 -19685846.41846 -15327046.35543  23654062.2424                   23654061.0274
 -14578334.65648 -11348136.48046  21971949.9144                   21971950.3524
 -29969932.25848 -23341192.34446  20902533.2424                   20902528.8164
 -13563456.02048 -10556824.23045  21851179.4064                   21851177.2734
 11  8 22  1 20  0.0000000  0  8G10G12G29G05G04G25G02G30
 -22833467.56647 -17781650.47345  21816680.6564                   21816678.7664
 -26118061.86748 -20340272.00846  20650615.1804                   20650612.1724
   -699374.87946   -535444.04344  23980434.1724                   23980433.7774
 -26796199.43748 -20868314.37147  20262270.3674                   20262267.6414
 -19629476.31646 -15283121.64843  23664788.4454                   23664788.2274
 -14656263.26648 -11408860.07446  21957120.5634                   21957121.0434
 -29966542.53148 -23338551.00446  20903178.7814                   20903174.0204
 -13631398.00448 -10609766.03545  21838250.5704                   21838248.5634
 11  8 22  1 20 30.0000000  0  8G10G12G29G05G04G25G02G30
 -22781311.66047 -17741009.52045  21826605.5554                   21826604.1914
 -26130596.24248 -20350039.06246  20648230.0474                   20648227.3444
   -805927.81646   -618472.25044  23960157.8134                   23960157.2344
 -26847783.97748 -20908510.09847  20252454.1174                   20252451.5434
 -19573135.63347 -15239219.86743  23675510.4614                   23675509.5164
 -14733675.61748 -11469181.37146  21942389.4924                   21942389.6764
 -29963002.96948 -23335792.91446  20903852.4224                   20903847.2934
 -13698759.05547 -10662255.15645  21825432.3524                   21825430.2194
 11  8 22  1 21  0.0000000  0  8G10G12G29G05G04G25G02G30
 -22728718.71147 -17700028.01645  21836614.1334                   21836612.4574
 -26142538.41048 -20359344.66446  20645957.3284                   20645954.8444
   -912523.23446   -701533.57044  23939873.8914                   23939872.9064
 -26898785.91448 -20948251.85247  20242748.8914                   20242746.0164
 -19516826.64847 -15195342.77044  23686225.5554                   23686225.0664
 -14810571.38748 -11529100.14546  21927756.4774                   21927756.9924
 -29959316.14548 -23332920.07046  20904553.5084                   20904549.1024
 -13765539.22747 -10714291.64845  21812724.2344                   21812722.4224
 11  8 22  1 21 30.0000000  0  8G10G12G29G05G04G25G02G30
 -22675692.39547 -17658708.83245  21846704.4304                   21846703.0554
 -26153890.40248 -20368190.38746  20643797.4844                   20643794.6564
  -1019161.08646   -784627.96144  23919581.4384                   23919579.8634
 -26949206.18448 -20987540.35947  20233153.9384                   20233151.8634
 -19460550.64146 -15151491.37144  23696934.0234                   23696933.7304
 -14886949.82048 -11588615.79746  21913222.5864                   21913222.3714
 -29955483.85948 -23329933.88746  20905282.8524                   20905278.4534
 -13831738.14147 -10765875.20345  21800127.1564                   21800124.8754
 11  8 22  1 22  0.0000000  0  8G10G12G29G05G04G25G02G30
 -22622232.30547 -17617051.62145  21856878.2194                   21856875.7464
 -26164649.72748 -20376574.28946  20641749.8284                   20641747.0434
  -1125837.54346   -867752.44944  23899281.2894                   23899280.4844
 -26999040.83248 -21026372.53147  20223670.8594                   20223668.4384
 -19404305.52347 -15107664.03944  23707637.4924                   23707636.4414
 -14962806.15248 -11647724.61346  21898787.7664                   21898787.7464
 -29951503.86348 -23326832.58646  20906040.1174                   20906035.8554
 -13897351.62147 -10817002.58245  21787641.1484                   21787639.2774
 11  8 22  1 22 30.0000000  0  8G10G12G29G05G04G25G02G30
 -22568344.80547 -17575061.38345  21867132.2974                   21867130.2304
 -26174820.22348 -20384499.35946  20639814.6024                   20639811.5274
  -1232555.44146   -950909.21544  23878973.5864                   23878972.3204
 -27048293.13748 -21064750.92247  20214298.6094                   20214295.9844
 -19348095.38746 -15063863.98443  23718334.4924                   23718333.0784
 -15038142.14148 -11706427.95746  21884451.7734                   21884451.7194
 -29947380.69948 -23323619.75046  20906824.9844                   20906820.6134
 -13962381.76247 -10867675.40645  21775266.4224                   21775264.7234
 11  8 22  1 23  0.0000000  0  8G10G12G29G05G04G25G02G30
 -20938611.99247 -16305139.73045  22177259.7114                   22177257.6804
 -24608979.53148 -19164363.77047  20937784.0784                   20937781.4574
    236112.15646    193507.12944  24158451.7034                   24158450.7774
 -25521538.38748 -19875071.87547  20504830.3054                   20504828.0634
 -17716500.27746 -13792491.23044  24028817.1564                   24028815.8484
 -13537531.07048 -10537120.60546  22170008.2664                   22170008.3554
 -28367693.05548 -22092694.32046  21207429.4454                   21207424.7234
 -12451402.71947  -9690289.12945  22062795.9454                   22062794.3794
 11  8 22  1 23 30.0000000  0  8G10G12G29G05G04G25G02G30
 -20883876.27047 -16262488.54345  22187676.2274                   22187673.5634
 -24617972.58648 -19171371.35946  20936072.7194                   20936070.3054
    129315.87146    110289.25844  24138129.1724                   24138127.7194
 -25569622.79348 -19912540.23447  20495680.2344                   20495677.4654
 -17660360.35947 -13748745.87944  24039499.3984                   24039499.3714
 -13611819.68048 -10595007.82446  22155871.7424                   22155871.9264
 -28363284.46548 -22089259.05946  21208268.5474                   21208263.5664
 -12515260.99647  -9740048.82445  22050643.9774                   22050642.2774
 11  8 22  1 24  0.0000000  0  8G10G12G29G05G04G25G02G30
 -20828719.83647 -16219509.51645  22198171.7584                   22198169.9144
 -24626376.53148 -19177919.89546  20934473.7034                   20934470.8874
     22482.81346     27042.72744  24117799.6724                   24117797.6954
 -25617121.58248 -19949552.25847  20486641.1644                   20486638.7624
 -17604255.18046 -13705027.58244  24050175.8984                   24050175.5474
 -13685581.17648 -10652484.29746  22141835.0474                   22141835.1024
 -28358733.55548 -22085712.90246  21209134.3594                   21209129.8674
 -12578530.51647  -9789349.74245  22038604.6954                   22038602.5394
 11  8 22  1 24 30.0000000  0  8G10G12G29G05G04G25G02G30
 -20773144.40247 -16176204.00845  22208747.5784                   22208745.6804
 -24634191.44948 -19184009.45346  20932986.3674                   20932983.6054
    -84384.98447    -56230.88344  24097463.6724                   24097461.8954
 -25664033.67648 -19986107.11347  20477714.3284                   20477711.3954
 -17548185.02046 -13661336.54344  24060846.5314                   24060845.4694
 -13758812.81648 -10709547.89846  22127899.8204                   22127900.0004
 -28354040.23048 -22082055.77746  21210027.3284                   21210023.1994
 -12641209.15247  -9838190.23845  22026676.8524                   22026675.0634
 11  8 22  1 25  0.0000000  0  8G10G12G29G05G04G25G02G30
 -20717153.84047 -16132575.01245  22219402.4224                   22219399.9104
 -24641419.26648 -19189641.52347  20931610.8054                   20931608.4654
   -191287.64846   -139531.63744  24077120.6024                   24077118.8674
 -25710359.42648 -20022205.08247  20468898.3524                   20468895.9494
 -17492151.07846 -13617673.76644  24071508.4224                   24071508.6134
 -13831513.94548 -10766198.11746  22114065.3754                   22114065.3714
 -28349206.13348 -22078288.94946  21210947.0944                   21210943.0274
 -12703296.61348  -9886570.06645  22014861.9844                   22014860.2974
 11  8 22  1 25 30.0000000  0  8G10G12G29G05G04G25G02G30
 -20660750.73447 -16088624.56245  22230135.6954                   22230133.2464
 -24648060.03948 -19194816.16046  20930347.4304                   20930344.5234
   -298224.48446   -222859.04744  24056770.5864                   24056769.6604
 -25756098.45348 -20057845.86347  20460194.8134                   20460192.0824
 -17436153.70346 -13574039.48044  24082164.9844                   24082164.6524
 -13903682.90248 -10822433.65246  22100331.7734                   22100331.7624
 -28344232.08248 -22074413.07046  21211893.6024                   21211889.6994
 -12764791.74648  -9934488.35245  22003160.4144                   22003158.4844
 11  8 22  1 26  0.0000000  0  8G10G12G29G05G04G25G02G30
 -20603942.18747 -16044358.16845  22240945.2974                   22240943.7774
 -24654118.90648 -19199537.36746  20929194.2584                   20929191.5824
   -405198.41447   -306215.32844  24036414.5704                   24036413.3834
 -25801254.59848 -20093032.45347  20451601.9064                   20451599.2814
 -17380197.82446 -13530437.51244  24092812.9384                   24092812.6524
 -13975322.27048 -10878256.52346  22086699.4224                   22086699.5984
 -28339123.23448 -22070432.16046  21212865.9384                   21212861.6094
 -12825697.63348  -9981947.48045  21991570.1804                   21991568.0824
 11  8 22  1 26 30.0000000  0  8G10G12G29G05G04G25G02G30
 -20546725.12547 -15999773.46945  22251833.9144                   22251831.8054
 -24659591.06248 -19203801.39846  20928152.7894                   20928150.2894
   -512202.65647   -389595.25444  24016052.2034                   24016050.8404
 -25845821.77348 -20127760.09847  20443121.2194                   20443118.5704
 -17324278.19146 -13486863.79743  24103454.1334                   24103453.3754
 -14046424.73448 -10933661.03546  22073169.2894                   22073169.4574
 -28333874.64548 -22066342.35546  21213864.9144                   21213860.5274
 -12886007.55548 -10028942.23445  21980093.7114                   21980091.5864
 11  8 22  1 27  0.0000000  0  8G10G12G29G05G04G25G02G30
 -20489108.41447 -15954877.34845  22262797.6954                   22262795.8244
 -24664483.04748 -19207613.33646  20927222.0784                   20927219.6134
   -619242.36347   -473002.81244  23995683.1644                   23995682.0474
 -25889805.88348 -20162033.41047  20434750.9774                   20434748.3984
 -17268401.25446 -13443323.32444  24114087.2274                   24114086.1054
 -14116994.62148 -10988650.54746  22059740.0084                   22059740.0784
 -28328492.96548 -22062148.84846  21214889.0554                   21214884.6294
 -12945726.22748 -10075476.26645  21968729.5634                   21968727.3134
 11  8 22  1 27 30.0000000  0  8G10G12G29G05G04G25G02G30
 -20431090.60947 -15909668.69145  22273838.4924                   22273836.1684
 -24668791.23048 -19210970.37946  20926402.6334                   20926399.6724
   -726312.15247   -556433.80544  23975308.3984                   23975307.0594
 -25933202.17648 -20195848.68447  20426493.1804                   20426490.5904
 -17212563.07846 -13399813.09043  24124713.1094                   24124711.6214
 -14187025.85548 -11043220.34046  22046413.5314                   22046413.2814
 -28322974.70348 -22057848.89146  21215938.8754                   21215934.5984
 -13004848.15247 -10121545.30545  21957478.7814                   21957476.8134
 11  8 22  1 28  0.0000000  0  8G10G12G29G05G04G25G02G30
 -20372678.19147 -15864152.53945  22284954.4924                   22284951.4964
 -24672520.18048 -19213876.05946  20925692.5944                   20925690.0124
   -833414.78947   -639890.36744  23954927.6174                   23954926.5554
 -25976013.94148 -20229208.47747  20418346.2664                   20418343.6374
 -17156767.84846 -13356336.31243  24135329.4384                   24135329.0234
 -14256520.78148 -11097372.22746  22033189.2974                   22033189.1644
 -28317324.36348 -22053446.03946  21217014.3984                   21217009.9574
 -13063376.07848 -10167151.48045  21946341.4304                   21946339.6484
 11  8 22  1 28 30.0000000  0  8G10G12G29G05G04G25G02G30
 -20313870.98847 -15818328.76245  22296144.3364                   22296141.8484
 -24675667.65648 -19216328.64546  20925093.8914                   20925091.1844
   -940546.59447   -723369.68444  23934540.7034                   23934539.1094
 -26018238.28948 -20262110.53947  20410311.0944                   20410308.3324
 -17101013.37146 -13312891.27743  24145940.4224                   24145939.5084
 -14325475.04348 -11151102.81646  22020067.6884                   22020067.5664
 -28311539.79348 -22048938.58246  21218115.1334                   21218110.8134
 -13121306.23447 -10212291.85945  21935317.7814                   21935316.1454
 11  8 22  1 29  0.0000000  0  8G10G12G29G05G04G25G02G30
 -20254671.05147 -15772198.96945  22307409.7274                   22307407.6214
 -24678234.10948 -19218328.48046  20924605.6024                   20924603.1454
  -1047705.07847   -806869.77044  23914149.1094                   23914148.2664
 -26059874.11348 -20294554.02347  20402388.2034                   20402385.2154
 -17045299.21146 -13269477.64843  24156541.2194                   24156541.7544
 -14393886.10548 -11204410.13746  22007049.2424                   22007049.3554
 -28305620.80948 -22044326.38346  21219241.1884                   21219237.0594
 -13178636.62548 -10256964.88745  21924407.9924                   21924406.0594
 11  8 22  1 29 30.0000000  0  8G10G12G29G05G04G25G02G30
 -20195082.77047 -15725766.55945  22318749.0004                   22318747.7304
 -24680221.97748 -19219877.47746  20924227.2274                   20924224.5004
  -1154891.17247   -890391.37944  23893752.2034                   23893751.2504
 -26100922.69148 -20326539.91047  20394576.8134                   20394574.1134
 -16989627.54746 -13226097.15243  24167134.9534                   24167136.6684
 -14461754.21548 -11257294.37546  21994134.6414                   21994134.3204
 -28299570.06648 -22039611.51246  21220392.7034                   21220388.5824
 -13235367.97748 -10301171.14845  21913612.6884                   21913610.4184
 11  8 22  1 30  0.0000000  0  8G10G12G29G05G04G25G02G30
 -20135110.75447 -15679035.14545  22330161.7584                   22330159.6564
 -24681633.27748 -19220977.19546  20923958.8524                   20923956.3014
  -1262105.40647   -973934.90644  23873350.2894                   23873349.5664
 -26141385.85248 -20358069.63747  20386876.9384                   20386874.4344
 -16934000.39546 -13182751.34443  24177721.3834                   24177722.0084
 -14529079.57448 -11309755.69146  21981323.0704                   21981323.2074
 -28293389.69548 -22034795.63346  21221568.9454                   21221564.1524
 -13291501.06247 -10344911.20745  21902931.0004                   21902928.9304
 11  8 22  1 30 30.0000000  0  8G10G12G29G05G04G25G02G30
 -20074756.37947 -15632005.79745  22341646.4144                   22341645.0274
 -24682468.20748 -19221627.79746  20923799.6884                   20923796.9454
  -1369345.41847  -1057498.50844  23852943.1804                   23852942.0514
 -26181261.97348 -20389141.91847  20379288.5554                   20379286.3484
 -16878416.94546 -13139439.60243  24188298.7034                   24188298.7974
 -14595859.34848 -11361791.87146  21968614.9774                   21968615.3554
 -28287079.27047 -22029878.42246  21222769.4064                   21222764.9844
 -13347033.50447 -10388183.23446  21892363.3364                   21892361.3094
 11  8 22  1 31  0.0000000  0  8G10G12G29G05G04G25G02G30
 -20014023.19947 -15584681.25045  22353203.9454                   22353202.2584
 -24682728.24648 -19221830.43746  20923750.0084                   20923747.8014
  -1476610.94547  -1141082.00044  23832531.4924                   23832530.0474
 -26220551.73448 -20419757.29747  20371811.9614                   20371809.6374
 -16822878.32846 -13096162.77742  24198866.7734                   24198867.0944
 -14662092.82448 -11413402.35546  21956011.3594                   21956011.2384
 -28280640.15247 -22024860.92246  21223994.9454                   21223990.6644
 -13401965.30147 -10430987.22746  21881910.2974                   21881908.5704
 11  8 22  1 31 30.0000000  0  8G10G12G29G05G04G25G02G30
 -19952912.51247 -15537062.56245  22364832.5704                   22364830.8054
 -24682412.69548 -19221584.56246  20923809.7194                   20923807.6334
  -1583899.00047  -1224683.03944  23812115.0234                   23812114.1484
 -26259253.21948 -20449914.28147  20364447.6484                   20364445.1454
 -16767383.23446 -13052919.87543  24209427.9844                   24209427.5124
 -14727776.84448 -11464584.70346  21943512.0394                   21943512.1374
 -28274071.36347 -22019742.37946  21225245.1884                   21225240.8014
 -13456293.63747 -10473320.99645  21871571.6094                   21871569.6884
 11  8 22  1 32  0.0000000  0  8G10G12G29G05G04G25G02G30
 -19891429.52747 -15489153.74645  22376532.7584                   22376530.8284
 -24681524.96148 -19220892.82446  20923978.9694                   20923976.5354
  -1691210.96147  -1308302.69144  23791693.9304                   23791693.1684
 -26297369.03948 -20479614.90247  20357194.1724                   20357191.6564
 -16711934.61746 -13009713.20343  24219979.6414                   24219978.1254
 -14792912.46548 -11515339.72746  21931117.2114                   21931117.1684
 -28267376.05148 -22014525.24246  21226519.1884                   21226514.6954
 -13510020.34847 -10515185.95345  21861347.7734                   21861345.5984
 11  8 22  1 32 30.0000000  0  8G10G12G29G05G04G25G02G30
 -19829576.07047 -15440956.27045  22388303.1484                   22388300.5634
 -24680065.53548 -19219755.61746  20924256.8284                   20924253.9694
  -1798545.10947  -1391939.64544  23771269.2194                   23771268.2584
 -26334898.38748 -20508858.53947  20350052.7974                   20350050.2154
 -16656532.34046 -12966542.64843  24230522.1094                   24230521.0004
 -14857497.78948 -11565665.93746  21918827.0084                   21918826.8134
 -28260554.60548 -22009209.82846  21227817.3444                   21227812.4804
 -13563143.88747 -10556580.91445  21851239.1884                   21851236.9884
 11  8 22  1 33  0.0000000  0  8G10G12G29G05G04G25G02G30
 -19767355.00047 -15392472.33245  22400143.3674                   22400140.8984
 -24678034.94948 -19218173.35946  20924643.1884                   20924640.7234
  -1905899.59447  -1475592.45744  23750840.2424                   23750839.2464
 -26371840.77048 -20537644.79747  20343022.5394                   20343020.1764
 -16601175.98846 -12923407.87943  24241055.9064                   24241053.9574
 -14921530.89848 -11615561.85246  21906641.9144                   21906641.9344
 -28253606.85248 -22003795.99246  21229139.4064                   21229135.2114
 -13615663.03547 -10597504.91045  21841244.6564                   21841242.8014
 11  8 22  1 33 30.0000000  0  8G10G12G29G05G04G25G02G30
 -19704768.03547 -15343703.29745  22412053.1564                   22412050.5164
 -24675432.78948 -19216145.71546  20925138.4774                   20925135.6334
  -2013272.40647  -1559259.55144  23730407.0784                   23730406.0944
 -26408194.90248 -20565972.68447  20336104.7814                   20336102.3204
 -16545864.85946 -12880308.36343  24251581.2974                   24251580.0234
 -14985009.17648 -11665025.43046  21894562.3444                   21894562.5664
 -28246532.28947 -21998283.34446  21230485.5474                   21230480.9694
 -13667575.70347 -10637956.33646  21831366.3444                   21831364.0944
 11  8 22  1 34  0.0000000  0  8G10G12G29G05G04G25G02G30
 -19641820.43447 -15294653.24245  22424031.8674                   22424029.2384
 -24672262.57848 -19213675.43046  20925741.7114                   20925739.2704
  -2120664.99647  -1642942.06644  23709971.1024                   23709970.1134
 -26443963.67248 -20593844.43747  20329297.9064                   20329295.8054
 -16490602.14846 -12837246.53143  24262097.5944                   24262096.7814
 -15047934.10548 -11714057.82446  21882588.1484                   21882588.1134
 -28239334.46148 -21992674.64546  21231855.3524                   21231851.2854
 -13718883.87148 -10677936.70745  21821602.5164                   21821600.3914
 11  8 22  1 34 30.0000000  0  8G10G12G29G05G04G25G02G30
 -19578516.23447 -15245325.30545  22436077.8054                   22436075.6254
 -24668527.02048 -19210764.62546  20926452.6564                   20926450.1954
  -2228076.88747  -1726639.61344  23689531.7974                   23689530.2974
 -26479147.98048 -20621260.77347  20322602.6334                   20322600.2734
 -16435388.91046 -12794223.25043  24272604.6174                   24272604.0164
 -15110305.13748 -11762658.61346  21870719.2194                   21870719.1604
 -28232014.94948 -21986971.12546  21233247.9454                   21233243.7154
 -13769587.63747 -10717446.12545  21811953.9224                   21811952.0004
 11  8 22  1 35  0.0000000  0  8G10G12G29G05G04G25G02G30
 -19514853.43447 -15195717.93445  22448192.6094                   22448190.4534
 -24664222.68748 -19207410.61746  20927271.6804                   20927268.9494
  -2335502.44147  -1810347.82044  23669089.6484                   23669087.7424
 -26513743.49248 -20648218.29747  20316019.3134                   20316016.7584
 -16380221.11346 -12751235.39143  24283102.6884                   24283102.2624
 -15172116.53148 -11810823.32046  21858957.1024                   21858956.6994
 -28224569.49648 -21981169.47746  21234664.9694                   21234660.2194
 -13819681.85248 -10756480.56645  21802421.2664                   21802418.9844
 11  8 22  1 35 30.0000000  0  9G10G12G29G26G05G04G25G02G30
 -19450838.87546 -15145836.48044  22460373.6094                   22460372.7234
 -24659354.28548 -19203617.07046  20928198.3754                   20928195.3754
  -2442944.47347  -1894068.86344  23648644.0554                   23648642.8404
   4557134.91415                  24857653.266
 -26547754.31248 -20674720.22747  20309547.7034                   20309544.9454
 -16325103.03147 -12708286.24243  24293591.4304                   24293591.0314
 -15233370.98848 -11858554.05546  21847300.4774                   21847300.5044
 -28217003.07448 -21975273.57046  21236105.1174                   21236100.5314
 -13869169.80148 -10795042.59845  21793004.1564                   21793002.0164
 11  8 22  1 36  0.0000000  0  9G10G12G29G26G05G04G25G02G30
 -19386482.71546 -15095688.85245  22472621.0234                   22472619.1134
 -24653930.16847 -19199390.49246  20929230.3204                   20929227.4884
  -2550409.05147  -1977807.46544  23628193.4534                   23628192.7854
   4440916.70346   3470947.81353  24835537.3134                   24835537.2774
 -26581187.37948 -20700771.94947  20303185.3754                   20303182.7384
 -16270042.09446 -12665381.64144  24304069.1334                   24304068.8554
 -15294074.48048 -11905855.46146  21835749.2114                   21835749.0744
 -28209323.32047 -21969289.35246  21237566.1174                   21237562.1564
 -13918058.05148 -10833137.33245  21783700.6724                   21783698.8284
 11  8 22  1 36 30.0000000  0  9G10G12G29G26G05G04G25G02G30
 -19321792.10247 -15045280.59844  22484930.8984                   22484929.0824
 -24647956.40648 -19194735.63746  20930367.1094                   20930364.5274
  -2657899.25047  -2061566.04344  23607739.2894                   23607738.0704
   4324559.20345   3380279.84442  24813394.3134                   24813395.4734
 -26614047.46148 -20726377.19547  20296932.4844                   20296929.5904
 -16215043.14546 -12622525.33643  24314534.3674                   24314534.4774
 -15354230.24648 -11952730.07046  21824301.7034                   21824301.6884
 -28201535.58648 -21963220.97746  21239048.0944                   21239043.8984
 -13966350.36748 -10870767.69545  21774510.8134                   21774508.7234
 11  8 22  1 37  0.0000000  0  9G10G12G29G26G05G04G25G02G30
 -19256765.38346 -14994610.45344  22497304.9304                   22497302.7234
 -24641429.38747 -19189649.65646  20931609.6954                   20931606.7074
  -2765409.46547  -2145340.19544  23587280.7194                   23587279.4184
   4208069.94945   3289509.18842  24791226.3984                   24791227.7664
 -26646330.74648 -20751532.98447  20290788.9774                   20290786.2934
 -16160102.14547 -12579714.21944  24324990.1484                   24324988.9384
 -15413832.64848 -11999173.48846  21812959.4534                   21812959.7154
 -28193635.95348 -21957065.41846  21240551.5784                   21240546.8444
 -14014041.73448 -10907929.79745  21765435.6484                   21765433.6684
 11  8 22  1 37 30.0000000  0  9G10G12G29G26G05G04G25G02G30
 -19191402.71147 -14943678.52045  22509743.2034                   22509741.2894
 -24634347.51648 -19184131.32846  20932956.9774                   20932953.9414
  -2872935.38347  -2229126.60244  23566818.9844                   23566817.6054
   4091454.53946   3198640.22742  24769035.2114                   24769036.7504
 -26678034.01248 -20776236.81247  20284756.0864                   20284753.1884
 -16105216.33247 -12536946.07044  24335434.2974                   24335433.7074
 -15472877.54748 -12045182.48846  21801723.9694                   21801724.1094
 -28185622.01648 -21950820.79346  21242076.2734                   21242072.1604
 -14061128.68748 -10944620.93745  21756475.3984                   21756473.3054
 11  8 22  1 38  0.0000000  0  9G10G12G29G26G05G04G25G02G30
 -19125703.75047 -14892484.54745  22522245.1644                   22522243.4734
 -24626709.18048 -19178179.39546  20934410.6334                   20934407.6134
  -2980473.03947  -2312922.13344  23546355.2034                   23546354.3794
   3974718.93446   3107677.57843  24746821.5004                   24746822.1994
 -26709154.49648 -20800486.51647  20278833.9384                   20278831.4614
 -16050382.99647 -12494218.82444  24345868.6094                   24345867.5084
 -15531360.84848 -12090753.88346  21790594.7344                   21790595.1524
 -28177491.59048 -21944485.39146  21243623.5164                   21243619.1994
 -14107607.68448 -10980838.34045  21747630.5164                   21747628.4804
 11  8 22  1 38 30.0000000  0  9G10G12G29G26G05G04G25G02G30
 -19059674.31647 -14841033.05945  22534810.2034                   22534808.1604
 -24618518.45348 -19171797.02346  20935969.1334                   20935966.5044
  -3088023.77047  -2396727.86344  23525888.7424                   23525887.8634
   3857863.19546   3016621.35543  24724585.2974                   24724586.4024
 -26739695.66848 -20824284.82047  20273022.1564                   20273019.4574
 -15995605.59847 -12451535.14844  24356292.5864                   24356291.2114
 -15589284.24248 -12135888.98846  21779572.3594                   21779572.3364
 -28169247.85248 -21938061.69946  21245192.3984                   21245187.9414
 -14153480.94948 -11016583.74645  21738901.0944                   21738899.5664
 11  8 22  1 39  0.0000000  0  9G10G12G29G26G05G04G25G02G30
 -18993312.73847 -14789322.77045  22547438.5394                   22547436.3094
 -24609772.01248 -19164981.62946  20937633.3284                   20937630.6804
  -3195581.83247  -2480539.29744  23505421.9694                   23505419.9694
   3740894.81646   2925477.35543  24702326.3054                   24702326.6954
 -26769653.05148 -20847628.21947  20267321.6334                   20267318.7974
 -15940879.46147 -12408891.44143  24366707.2274                   24366706.6884
 -15646642.08648 -12180583.41446  21768657.6564                   21768658.1024
 -28160886.85548 -21931546.64846  21246783.4924                   21246778.9924
 -14198743.66448 -11051853.39845  21730287.7664                   21730285.4494
 11  8 22  1 39 30.0000000  0  9G10G12G29G26G05G04G25G02G30
 -18926624.22346 -14737357.71145  22560128.8364                   22560126.3794
 -24600473.26648 -19157735.86346  20939403.0314                   20939400.4024
  -3303147.96547  -2564357.02044  23484952.2274                   23484950.7344
   3623814.27046   2834245.94943  24680046.8914                   24680047.0704
 -26799029.13748 -20870518.66047  20261731.3444                   20261728.7074
 -15886207.23847 -12366289.71143  24377110.6954                   24377110.0044
 -15703435.50048 -12224838.02346  21757850.3284                   21757850.2734
 -28152411.49648 -21924942.47746  21248395.8834                   21248391.7424
 -14243397.41448 -11086648.53545  21721790.7344                   21721788.5354
 11  8 22  1 40  0.0000000  0  9G10G12G29G26G05G04G25G02G30
 -18859607.71147 -14685137.09045  22572882.3524                   22572880.2194
 -24590620.27748 -19150058.22346  20941278.0394                   20941274.9774
  -3410717.54747  -2648177.41044  23464482.1724                   23464481.5664
   3506628.41046   2742932.49243  24657746.7274                   24657747.7234
 -26827820.42648 -20892953.41047  20256252.5864                   20256249.7504
 -15831585.39847 -12323727.25044  24387504.8204                   24387503.7624
 -15759659.62148 -12268649.02746  21747150.8364                   21747150.8984
 -28143818.55548 -21918246.67246  21250031.1954                   21250026.6884
 -14287437.94948 -11120965.84845  21713410.1414                   21713408.1374
 11  8 22  1 40 30.0000000  0  9G10G12G29G26G05G04G25G02G30
 -18792269.81247 -14632666.02044  22585695.9614                   22585693.6524
 -24580218.06248 -19141952.61346  20943257.4454                   20943254.3984
  -3518292.80147  -2732002.23444  23444011.4774                   23444010.3134
   3389336.36346   2651536.27343  24635426.6724                   24635427.8524
 -26856031.11348 -20914935.74647  20250883.9774                   20250881.5274
 -15777017.96546 -12281207.16843  24397888.1884                   24397887.4534
 -15815317.25847 -12312018.61346  21736559.6804                   21736559.9024
 -28135112.44948 -21911462.71146  21251688.0634                   21251683.8874
 -14330868.73448 -11154808.03146  21705145.6644                   21705143.4104
 11  8 22  1 41  0.0000000  0  9G10G12G29G26G05G04G25G02G30
 -18724611.68447 -14579945.44145  22598570.6334                   22598569.1214
 -24569266.11348 -19133418.64146  20945341.6024                   20945338.7074
  -3625870.25047  -2815828.75844  23423539.8834                   23423539.1454
   3271942.99246   2560061.11344  24613086.9304                   24613088.2194
 -26883659.71148 -20936464.50447  20245626.7344                   20245624.0554
 -15722503.53146 -12238728.39843  24408261.8984                   24408261.4804
 -15870405.53548 -12354944.53946  21726076.7114                   21726076.8284
 -28126291.87148 -21904589.53946  21253366.7344                   21253362.1644
 -14373687.57848 -11188173.35946  21696997.1884                   21696995.4304
 11  8 22  1 41 30.0000000  0  9G10G12G29G26G05G04G25G02G30
 -18656636.24647 -14526977.59045  22611506.8364                   22611504.5164
 -24557766.05548 -19124457.58246  20947530.0474                   20947527.2814
  -3733449.11747  -2899656.40244  23403068.4384                   23403067.1294
   3154451.07446   2468509.15644  24590729.6564                   24590729.6054
 -26910706.97348 -20957540.27747  20240479.6884                   20240477.0984
 -15668042.05946 -12196290.88343  24418625.7344                   24418624.8444
 -15924923.58648 -12397426.14546  21715702.4064                   21715702.2814
 -28117357.31648 -21897627.55146  21255066.5474                   21255062.4804
 -14415894.21948 -11221061.66845  21688965.8754                   21688963.7814
 11  8 22  1 42  0.0000000  0  9G10G12G29G26G05G04G25G02G30
 -18588346.23847 -14473764.63345  22624501.1094                   22624499.6094
 -24545718.95348 -19115070.24246  20949822.6414                   20949820.1914
  -3841027.98847  -2983484.05145  23382596.6884                   23382595.8674
   3036863.75846   2376882.84443  24568353.0004                   24568353.2934
 -26937172.84847 -20978163.02047  20235443.4534                   20235440.5784
 -15613633.85946 -12153894.89143  24428979.4614                   24428978.5234
 -15978870.30548 -12439462.55146  21705436.8984                   21705436.8984
 -28108309.38347 -21890577.22346  21256788.6484                   21256784.4534
 -14457488.14548 -11253472.52746  21681050.6644                   21681048.7154
 11  8 22  1 42 30.0000000  0  9G10G12G29G26G05G04G25G02G30
 -18519745.27747 -14420309.36744  22637555.5394                   22637554.3444
 -24533127.26648 -19105258.55546  20952218.7034                   20952216.0274
  -3948606.15247  -3067311.15244  23362125.5554                   23362124.5084
   2919183.18046   2285183.83643  24545959.1954                   24545959.5514
 -26963058.90648 -20998333.96147  20230517.6414                   20230515.0004
 -15559280.02346 -12111541.26243  24439321.5784                   24439321.8754
 -16032245.58248 -12481053.68046  21695279.7274                   21695279.7274
 -28099149.38748 -21883439.57046  21258531.7114                   21258527.1644
 -14498469.92248 -11285406.39546  21673251.9534                   21673250.2544
 11  8 22  1 43  0.0000000  0  9G10G12G29G26G05G04G25G02G30
 -18450836.39547 -14366614.17244  22650668.7734                   22650667.1094
 -24519993.11748 -19095024.16046  20954717.9384                   20954715.0634
  -4056182.49247  -3151136.84445  23341654.0704                   23341653.0784
   2801411.85546   2193414.13743  24523547.4614                   24523547.5944
 -26988365.68047 -21018053.50847  20225701.3444                   20225699.3444
 -15504980.87946 -12069230.23843  24449654.9844                   24449655.1804
 -16085048.77748 -12522199.03946  21685231.6414                   21685231.5704
 -28089878.32048 -21876215.37546  21260295.8834                   21260291.5434
 -14538839.53948 -11316863.25446  21665570.2274                   21665568.2464
 11  8 22  1 43 30.0000000  0  9G10G12G29G26G05G04G25G02G30
 -18381622.48847 -14312681.28544  22663839.3594                   22663838.0044
 -24506317.60948 -19084367.93446  20957320.2504                   20957317.5664
  -4163755.62947  -3234960.04744  23321184.0634                   23321182.1564
   2683553.12146   2101576.35243  24501118.8594                   24501120.0664
 -27013093.80148 -21037322.16447  20220995.7734                   20220993.0124
 -15450736.84046 -12026962.18443  24459977.3204                   24459977.2504
 -16137278.94148 -12562897.87146  21675292.7664                   21675292.7774
 -28080496.34847 -21868904.75046  21262081.3054                   21262076.8134
 -14578596.79348 -11347842.93746  21658004.5164                   21658003.0274
 11  8 22  1 44  0.0000000  0  9G10G12G29G26G05G04G25G02G30
 -18312106.48446 -14258513.00444  22677068.0234                   22677066.3754
 -24492102.00848 -19073290.86346  20960025.4384                   20960022.7624
  -4271323.87947  -3318779.42245  23300713.9384                   23300712.9734
   2565610.23446   2009672.94143  24478675.5704                   24478676.2384
 -27037243.50048 -21056140.09447  20216400.5864                   20216397.9414
 -15396547.73846 -11984736.93443  24470289.2034                   24470289.7624
 -16188934.97747 -12603149.33646  21665462.8524                   21665462.8714
 -28071004.09447 -21861508.19946  21263887.3054                   21263882.8674
 -14617741.13748 -11378345.03146  21650555.5784                   21650553.6214
 11  8 22  1 44 30.0000000  0  9G10G12G29G26G05G04G25G02G30
 -18242291.01647 -14204111.36344  22690353.5784                   22690351.7464
 -24477347.73048 -19061794.03546  20962833.3364                   20962830.3754
  -4378885.78547  -3402593.87544  23280246.6024                   23280244.1914
   2447586.28946   1917706.41043  24456216.5634                   24456215.2384
 -27060814.96547 -21074507.44947  20211915.1414                   20211912.8794
 -15342413.63746 -11942554.54743  24480590.9224                   24480591.2034
 -16240015.90648 -12642952.66846  21655742.6254                   21655742.6564
 -28061401.83247 -21854025.93046  21265714.8914                   21265710.3594
 -14656272.26248 -11408369.30145  21643223.2974                   21643221.5274
 11  8 22  1 45  0.0000000  0  9G10G12G29G26G05G04G25G02G30
 -18172176.87147 -14149477.00444  22703696.3524                   22703694.2774
 -24462054.49248 -19049877.24646  20965743.4224                   20965740.5124
  -4486437.82047  -3486400.63745  23259779.2974                   23259778.3054
   2329486.28546   1825680.60943  24433743.1024                   24433742.2274
 -27083807.15247 -21092423.42647  20207539.9454                   20207537.3914
 -15288332.80546 -11900413.64143  24490881.7894                   24490882.0554
 -16290518.82448 -12682305.59046  21646132.0784                   21646132.4654
 -28051687.52048 -21846456.34046  21267562.8984                   21267558.6054
 -14694187.93048 -11437913.98846  21636008.1644                   21636006.4654
 11  8 22  1 45 30.0000000  0  9G10G12G29G26G05G04G25G02G30
 -18101768.88746 -14094613.66844  22717093.9694                   22717092.0004
 -24446226.14148 -19037543.48446  20968755.3674                   20968752.5124
  -4593980.86747  -3570200.38345  23239314.3984                   23239313.6054
   2211311.09846   1733596.20343  24411254.5234                   24411254.2194
 -27106222.79748 -21109890.14147  20203274.2194                   20203271.5164
 -15234307.39146 -11858315.88743  24501162.7504                   24501162.8874
 -16340445.28548 -12721209.33646  21636631.6334                   21636631.3714
 -28041864.44147 -21838801.99646  21269433.0314                   21269428.0554
 -14731490.37148 -11466980.83646  21628910.1724                   21628908.0204
 11  8 22  1 46  0.0000000  0  9G10G12G29G26G05G04G25G02G30
 -18031069.86346 -14039523.54744  22730547.4534                   22730545.9574
 -24429863.98848 -19024793.77346  20971869.2734                   20971866.6954
  -4701513.62547  -3653992.11745  23218851.7194                   23218850.9414
   2093063.72746   1641455.57442  24388753.0944                   24388752.7194
 -27128062.29748 -21126907.91447  20199118.3834                   20199115.5634
 -15180337.64146 -11816261.59443  24511433.2424                   24511431.7424
 -16389794.40248 -12759663.19146  21627240.5474                   21627240.4344
 -28031933.11747 -21831063.30946  21271322.5704                   21271318.2704
 -14768179.34848 -11495569.65246  21621928.2194                   21621926.0664
 11  8 22  1 46 30.0000000  0  9G10G12G29G26G05G04G25G02G30
 -17960082.25046 -13984208.56644  22744056.0004                   22744054.7424
 -24412969.49648 -19011629.25446  20975084.0234                   20975081.2934
  -4809033.92647  -3737774.15645  23198391.2344                   23198389.9144
   1974748.10246   1549261.68443  24366238.0554                   24366237.7424
 -27149325.69548 -21143476.78947  20195071.7894                   20195068.8984
 -15126423.02746 -11774250.18743  24521692.3594                   24521690.9654
 -16438564.80548 -12797666.10546  21617959.8524                   21617959.7464
 -28021893.42647 -21823240.19146  21273233.1254                   21273228.6644
 -14804254.23448 -11523679.96146  21615063.5474                   21615061.5474
 11  8 22  1 47  0.0000000  0  9G10G12G29G26G05G04G25G02G30
 -17888810.02346 -13928671.78544  22757619.2194                   22757617.3444
 -24395545.29748 -18998051.97746  20978399.9384                   20978397.2774
  -4916541.37547  -3821546.18045  23177932.9224                   23177932.0004
   1856365.67646   1457015.77043  24343710.5004                   24343709.1764
 -27170015.17647 -21159598.44947  20191135.2034                   20191132.0944
 -15072565.09046 -11732282.97343  24531941.3594                   24531940.0664
 -16486757.04348 -12835218.50446  21608789.1724                   21608789.3094
 -28011746.57047 -21815333.54346  21275163.8054                   21275159.7384
 -14839716.21148 -11551312.68046  21608315.0084                   21608313.4694
 11  8 22  1 47 30.0000000  0  9G10G12G29G26G05G04G25G02G30
 -17817256.09446 -13872915.52044  22771235.6414                   22771233.9144
 -24377593.55148 -18984063.62146  20981815.6254                   20981813.4144
  -5024034.88347  -3905307.34045  23157478.7424                   23157477.3324
   1737919.82446   1364720.44142  24321170.6884                   24321170.0354
 -27190131.07848 -21175273.17647  20187306.8754                   20187304.2234
 -15018763.96546 -11690360.05943  24542179.2424                   24542177.6994
 -16534370.47348 -12872319.87146  21599728.6954                   21599728.7504
 -28001493.36748 -21807344.03146  21277114.7344                   21277110.4844
 -14874565.30148 -11578467.81246  21601683.4774                   21601682.0474
 11  8 22  1 48  0.0000000  0  9G10G12G29G26G05G04G25G02G30
 -17745422.77346 -13816941.50844  22784904.9064                   22784902.6524
 -24359114.93048 -18969664.72746  20985332.3674                   20985329.5594
  -5131512.03146  -3989055.76644  23137025.6954                   23137024.3524
   1619414.20346   1272378.52743  24298620.1564                   24298619.1564
 -27209673.55148 -21190501.05547  20183588.1954                   20183585.6024
 -14965019.16846 -11648480.99243  24552406.9384                   24552405.0824
 -16581403.73848 -12908969.16846  21590778.5474                   21590778.3524
 -27991133.46148 -21799271.37146  21279086.1954                   21279081.7704
 -14908800.78148 -11605144.80946  21595168.6564                   21595166.7664
 11  8 22  1 48 30.0000000  0  9G10G12G29G26G05G04G25G02G30
 -17673313.44946 -13760752.46544  22798627.4844                   22798624.6764
 -24340111.49248 -18954856.87546  20988948.7504                   20988946.1414
  -5238972.02746  -4072790.82444  23116576.6564                   23116575.1524
   1500851.78146   1179992.36343  24276057.9454                   24276057.7154
 -27228643.76248 -21205283.02747  20179977.9534                   20179975.8874
 -14911331.14847 -11606646.22342  24562623.1954                   24562621.1804
 -16627856.55948 -12945166.16846  21581938.6484                   21581938.9694
 -27980667.59447 -21791116.15646  21281077.7814                   21281073.3444
 -14942423.13348 -11631344.04746  21588770.7664                   21588768.5664
 11  8 22  1 49  0.0000000  0  9G10G12G29G26G05G04G25G02G30
 -17600931.76646 -13704351.16044  22812399.9534                   22812398.7114
 -24320585.92248 -18939642.16046  20992664.0084                   20992661.2584
  -5346413.87946  -4156511.75045  23096131.2424                   23096129.8984
   1382234.59846   1087563.50443  24253486.3984                   24253485.6764
 -27247043.38748 -21219620.38747  20176476.6564                   20176474.4104
 -14857700.67647 -11564856.21142  24572828.8594                   24572826.4614
 -16673729.12148 -12980911.02046  21573210.0234                   21573209.9454
 -27970097.39847 -21782879.62546  21283089.2034                   21283084.6914
 -14975433.17248 -11657066.15246  21582489.2734                   21582487.0784
 11  8 22  1 49 30.0000000  0  8G10G12G29G26G05G25G02G30
 -17528278.40647 -13647738.18744  22826226.3284                   22826224.4064
 -24300538.27748 -18924020.64146  20996479.0394                   20996476.6374
  -5453834.35546  -4240215.99244  23075689.9774                   23075688.2074
   1263567.51647    995095.76243  24230904.9774                   24230903.3754
 -27264871.41048 -21233512.34047  20173084.3914                   20173081.4964
 -16719019.03148 -13016201.85946  21564591.3594                   21564591.3244
 -27959421.41447 -21774560.67246  21285121.0084                   21285116.9264
 -15007829.25048 -11682309.84846  21576324.1804                   21576322.6914
 11  8 22  1 50  0.0000000  0  8G10G12G29G26G05G25G02G30
 -17455358.30946 -13590917.37144  22840102.2034                   22840100.5904
 -24279971.68448 -18907994.73846  21000392.8054                   21000390.2464
  -5561234.13347  -4323904.12945  23055252.6174                   23055250.5394
   1144852.06647    902590.32843  24208313.5084                   24208312.4844
 -27282130.35948 -21246960.86747  20169799.8834                   20169797.1644
 -16763727.68448 -13051039.75846  21556083.4384                   21556083.6024
 -27948641.94148 -21766161.06246  21287172.2504                   21287167.8524
 -15039613.48448 -11707076.77746  21570276.0394                   21570273.9344
 11  8 22  1 50 30.0000000  0  8G10G12G29G26G05G25G02G30
 -17382163.89846 -13533882.79344  22854031.1954                   22854028.3674
 -24258878.59848 -18891558.58646  21004406.3754                   21004404.1484
  -5668601.02046  -4407566.63344  23034821.5314                   23034819.4454
   1026101.73446    810057.71943  24185715.7894                   24185715.6724
 -27298811.05948 -21259958.80147  20166625.8444                   20166623.0984
 -16807844.06648 -13085416.16446  21547688.3524                   21547688.2774
 -27937748.91048 -21757672.98046  21289245.3524                   21289240.5514
 -15070775.44948 -11731358.82846  21564346.1484                   21564344.4884
 11  8 22  1 51  0.0000000  0  8G10G12G29G26G05G25G02G30
 -17308698.12146 -13476636.78544  22868010.7504                   22868008.8484
 -24237260.59448 -18874713.41046  21008520.8284                   21008518.1524
  -5775933.60947  -4491202.41844  23014396.5864                   23014395.0204
    907319.52747    717500.27743  24163112.7504                   24163110.9654
 -27314914.07048 -21272506.59847  20163561.5314                   20163558.5824
 -16851367.78148 -13119330.73046  21539406.3524                   21539406.2034
 -27926742.82448 -21749096.80146  21291339.9064                   21291334.9734
 -15101315.50448 -11755156.27046  21558533.9614                   21558532.5634
 11  8 22  1 51 30.0000000  0  8G10G12G29G26G05G25G02G30
 -17234964.71546 -13419182.21944  22882041.6094                   22882039.5354
 -24215120.09848 -18857461.09846  21012733.6024                   21012731.2814
  -5883231.16847  -4574810.89145  22993978.7584                   22993976.8284
    788507.90646    624919.91443  24140503.4144                   24140502.8874
 -27330441.15248 -21284605.61347  20160606.7894                   20160603.8404
 -16894299.03548 -13152783.64846  21531236.5944                   21531236.4614
 -27915624.71148 -21740433.32446  21293455.0554                   21293450.3364
 -15131234.54748 -11778469.81246  21552840.9844                   21552839.1214
 11  8 22  1 52  0.0000000  0  8G10G12G29G26G05G25G02G30
 -17160967.67646 -13361522.21944  22896123.1724                   22896121.1954
 -24192460.27348 -18839804.11746  21017045.6254                   21017043.1684
  -5990493.37547  -4658391.82445  22973566.8834                   22973565.5944
    669668.82046    532318.15244  24117888.0704                   24117888.7934
 -27345394.22348 -21296257.34847  20157760.9224                   20157758.8874
 -16936638.71148 -13185775.60246  21523179.4384                   21523179.0554
 -27904396.53148 -21731684.06646  21295591.7344                   21295587.3554
 -15160534.09848 -11801300.62946  21547265.7344                   21547263.9654
 11  8 22  1 52 30.0000000  0  8G10G12G29G26G05G25G02G30
 -17086714.28146 -13303662.47744  22910252.6564                   22910251.4104
 -24169287.52048 -18821747.44146  21021455.0554                   21021453.0554
  -6097723.09047  -4741947.40645  22953161.8984                   22953161.1294
    550800.92646    439693.93044  24095268.9224                   24095268.7464
 -27359779.27348 -21307466.46947  20155023.9694                   20155021.6914
 -16978390.80548 -13218309.69146  21515234.3674                   21515234.3324
 -27893062.98448 -21722852.72346  21297748.7344                   21297744.4734
 -15189218.98448 -11823652.48446  21541807.1484                   21541805.0394
 11  8 22  1 53  0.0000000  0  8G10G12G29G26G05G25G02G30
 -17012209.84446 -13245607.12144  22924430.8834                   22924429.1724
 -24145606.07848 -18803294.38746  21025961.7814                   21025958.9654
  -6204921.43047  -4825478.54345  22932762.4774                   22932761.7974
    431904.91846    347047.83644  24072644.2344                   24072643.1524
 -27373599.16448 -21318235.20747  20152394.1024                   20152391.1844
 -17019557.43448 -13250387.58246  21507400.4694                   21507400.2974
 -27881626.81248 -21713941.40646  21299924.5474                   21299919.9734
 -15217291.96548 -11845527.53946  21536464.8524                   21536462.9964
 11  8 22  1 53 30.0000000  0  8G10G12G29G26G05G25G02G30
 -16937456.23847 -13187357.59444  22938656.1334                   22938654.0004
 -24121417.04348 -18784445.81246  21030564.7584                   21030562.0234
  -6312085.79347  -4908983.18745  22912369.9534                   22912368.8954
    312984.93446    254382.99643  24050014.0084                   24050013.4024
 -27386854.25448 -21328563.83647  20149871.9844                   20149868.8794
 -17060137.27748 -13282008.23046  21499678.5554                   21499678.5314
 -27870087.51248 -21704949.73846  21302120.6254                   21302116.1804
 -15244752.41447 -11866925.28546  21531239.2504                   21531237.5664
 11  8 22  1 54  0.0000000  0  8G10G12G29G26G05G25G02G30
 -16862459.37947 -13128918.51644  22952927.2974                   22952926.2774
 -24096725.88348 -18765205.96146  21035263.3834                   21035260.8554
  -6419217.60547  -4992462.47345  22891983.4064                   22891982.2304
    194041.21946    161699.73443  24027379.4844                   24027378.8164
 -27399548.61748 -21338455.54747  20147456.0084                   20147453.1564
 -17100133.04748 -13313173.76246  21492067.2974                   21492067.4344
 -27858448.80548 -21695880.60946  21304335.1094                   21304330.6764
 -15271603.78548 -11887848.43746  21526129.6804                   21526128.0044
 11  8 22  1 54 30.0000000  0  8G10G12G29G26G05G25G02G30
 -16787220.60247 -13070290.94144  22967245.0394                   22967244.0434
 -24071532.71548 -18745574.94146  21040057.5864                   21040055.0864
  -6526313.81647  -5075914.01645  22871603.3364                   22871602.3404
     75078.62546     69001.72743  24004740.6644                   24004741.5434
 -27411681.73448 -21347909.91847  20145147.1644                   20145144.2424
 -17139542.77048 -13343882.63746  21484568.1024                   21484568.0084
 -27846709.25448 -21686732.89546  21306569.3444                   21306565.1524
 -15297844.80948 -11908295.99646  21521136.5084                   21521134.4804
 11  8 22  1 55  0.0000000  0  8G10G12G29G26G05G25G02G30
 -16711743.42247 -13011477.60944  22981607.8204                   22981606.6844
 -24045840.19948 -18725554.81646  21044947.0784                   21044944.0314
  -6633373.50447  -5159337.09045  22851230.6804                   22851229.3444
    -43900.31646    -23709.00843  23982100.5234                   23982100.0944
 -27423255.12948 -21356928.14847  20142944.8364                   20142941.9534
 -17178366.93448 -13374135.22746  21477180.1644                   21477180.0394
 -27834870.00048 -21677507.50046  21308822.5474                   21308818.2664
 -15323476.66847 -11928268.87146  21516258.5394                   21516256.3794
 11  8 22  1 55 30.0000000  0  8G10G12G29G26G05G25G02G30
 -15060612.51647 -11724882.10944  23295807.7034                   23295806.2774
 -22444230.78948 -17477547.49646  21349722.9844                   21349720.3014
  -5164971.02047  -4015127.29345  23130658.4064                   23130656.8324
   1412532.05546   1111173.53143  24259249.3834                   24259249.8874
 -25858849.09848 -20137910.45347  20440641.3594                   20440638.9184
 -15641183.38348 -12176329.86346  21769696.5394                   21769696.4144
 -26247511.16448 -20440604.50846  21610886.4534                   21610882.2544
 -13773078.40647 -10720166.34046  21811289.6484                   21811287.8054
 11  8 22  1 56  0.0000000  0  8G10G12G29G26G05G25G02G30
 -14984666.00447 -11665703.03544  23310259.8134                   23310257.0394
 -22417544.55548 -17456753.04746  21354801.1334                   21354798.5164
  -5271951.79347  -4098488.89145  23110300.6174                   23110299.4454
   1293530.93446   1018445.52043  24236605.0864                   24236603.9884
 -25869305.50448 -20146058.29747  20438651.6644                   20438649.2584
 -15678834.53948 -12205668.42646  21762531.7504                   21762531.7384
 -26235472.55948 -20431223.77046  21613177.5084                   21613173.2464
 -13797492.25047 -10739190.11345  21806643.9534                   21806641.6764
 11  8 22  1 56 30.0000000  0  8G10G12G29G26G05G25G02G30
 -14908490.91847 -11606345.83644  23324754.8674                   23324753.2304
 -22390366.43748 -17435575.30546  21359972.7344                   21359970.4024
  -5378892.36347  -4181819.13745  23089950.5394                   23089949.1604
   1174522.05946    925711.44143  24213958.2584                   24213957.2274
 -25879206.94548 -20153773.70347  20436767.3444                   20436764.7894
 -15715900.57048 -12234551.05146  21755478.1564                   21755478.4144
 -26223336.63348 -20421767.19946  21615486.7974                   21615482.1914
 -13821299.62147 -10757741.31246  21802113.6334                   21802111.5044
 11  8 22  1 57  0.0000000  0  8G10G12G29G26G05G25G02G30
 -14832088.77047 -11546811.74644  23339294.7734                   23339292.1724
 -22362697.45748 -17414015.07446  21365238.3834                   21365235.5274
  -5485790.04347  -4265115.98845  23069608.5944                   23069607.4654
   1055509.50446    832974.53143  24191310.3594                   24191310.1994
 -25888553.09848 -20161056.40247  20434989.0234                   20434986.2894
 -15752380.15648 -12262976.71146  21748536.6094                   21748536.4884
 -26211102.41048 -20412234.05546  21617815.1024                   21617810.7304
 -13844499.77047 -10775819.35946  21797698.5394                   21797696.3364
 11  8 22  1 57 30.0000000  0  8G10G12G29G26G05G25G02G30
 -14755463.14147 -11487103.46144  23353875.8284                   23353873.0044
 -22334540.49248 -17392074.59846  21370596.2584                   21370593.4774
  -5592644.05147  -4348378.79345  23049274.9614                   23049273.5434
    936496.49646    740237.25443  24168663.1414                   24168662.2274
 -25897346.05148 -20167908.05947  20433315.6724                   20433312.8554
 -15788273.89148 -12290945.85546  21741705.7894                   21741705.8874
 -26198770.93748 -20402625.11746  21620161.8594                   21620157.3244
 -13867094.15648 -10793425.37546  21793398.9924                   21793397.1604
 11  8 22  1 58  0.0000000  0  8G10G12G29G26G05G25G02G30
 -14678614.95347 -11427221.80144  23368499.6254                   23368497.2384
 -22305895.70748 -17369753.99646  21376047.4614                   21376044.4064
  -5699451.06247  -4431604.98845  23028950.3834                   23028948.5984
    817487.34046    647502.98043  24146016.4064                   24146016.0204
 -25905585.28148 -20174328.23447  20431747.6174                   20431744.9574
 -15823579.97748 -12318457.08646  21734987.2274                   21734987.4734
 -26186340.80148 -20392939.29746  21622527.0234                   21622522.6724
 -13889081.62548 -10810558.46946  21789215.1724                   21789212.8914
 11  8 22  1 58 30.0000000  0  8G10G12G29G26G05G25G02G30
 -14601552.11347 -11367172.85544  23383164.3834                   23383161.7854
 -22276769.96948 -17347058.61746  21381589.8364                   21381587.0784
  -5806213.58247  -4514796.51245  23008633.6804                   23008632.3014
    698480.76646    554770.70343  24123370.4924                   24123368.7304
 -25913276.77348 -20180321.60247  20430283.9774                   20430281.0904
 -15858302.81248 -12345513.84446  21728380.0634                   21728380.0354
 -26173816.89148 -20383180.39846  21624910.0634                   21624905.9384
 -13910467.34847 -10827222.67246  21785145.3364                   21785142.8444
 11  8 22  1 59  0.0000000  0  8G10G12G29G26G05G25G02G30
 -14524274.99647 -11306956.94544  23397869.2424                   23397868.3164
 -22247163.46148 -17323988.63346  21387223.5164                   21387221.0044
  -5912928.10947  -4597950.65645  22988326.3364                   22988324.7854
    579482.51246    462044.91444  24100725.5634                   24100724.7234
 -25920419.51248 -20185887.36747  20428924.7504                   20428922.2194
 -15892440.23848 -12372114.43746  21721883.8754                   21721883.7934
 -26161197.52748 -20373347.13746  21627311.5634                   21627306.8484
 -13931249.89547 -10843416.86746  21781190.7274                   21781188.5204
 11  8 22  1 59 30.0000000  0  8G10G12G29G26G05G25G02G30
 -14446785.61747 -11246575.60943  23412614.9454                   23412614.2114
 -22217077.64848 -17300545.15646  21392948.6804                   21392946.4844
  -6019592.37547  -4681065.64145  22968029.2274                   22968027.4534
    460496.48046    369328.61743  24078083.1724                   24078082.2624
 -25927014.13748 -20191026.03547  20427669.8984                   20427667.5594
 -15925991.62548 -12398258.36746  21715498.9064                   21715499.1484
 -26148482.62548 -20363439.43046  21629731.2274                   21629726.3484
 -13951429.27048 -10859141.06246  21777350.6884                   21777348.3674
 11  8 22  2  0  0.0000000  0  8G10G12G29G26G05G25G02G30
 -14369086.43747 -11186030.82044  23427401.3834                   23427400.1684
 -22186514.10948 -17276729.42646  21398764.7584                   21398762.3094
  -6126203.77047  -4764139.43745  22947741.5704                   22947740.2774
    341526.44546    276624.80543  24055443.4384                   24055442.7234
 -25933061.09048 -20195737.93447  20426519.3594                   20426516.5204
 -15958956.17248 -12423945.02346  21709226.2664                   21709226.5634
 -26135671.37948 -20353456.63746  21632169.1644                   21632164.5784
 -13971005.52348 -10874395.28146  21773625.7664                   21773623.5164
 11  8 22  2  0 30.0000000  0  8G10G12G29G26G05G25G02G30
 -14291178.13747 -11125323.10544  23442226.6414                   23442225.1724
 -22155473.00448 -17252541.57046  21404671.6484                   21404669.1374
  -6232758.91847  -4847169.40245  22927465.0554                   22927462.9884
    222578.04746    183937.83244  24032808.1564                   24032807.6174
 -25938559.74648 -20200022.59447  20425472.8134                   20425470.2114
 -15991331.92648 -12449172.88746  21703065.2584                   21703065.5514
 -26122762.19148 -20343397.52046  21634625.6254                   21634621.3984
 -13989977.39847 -10889178.55545  21770015.1414                   21770013.1094
 11  8 22  2  1  0.0000000  0  8G10G12G29G26G05G25G02G30
 -14213066.05947 -11064456.59044  23457090.7734                   23457088.6134
 -22123959.02348 -17227985.23846  21410668.7424                   21410666.2814
  -6339258.55147  -4930156.12545  22907198.7504                   22907197.2974
    103651.85246     91268.16844  24010177.9774                   24010175.9224
 -25943514.22748 -20203883.21947  20424530.3134                   20424527.4304
 -16023121.56248 -12473944.02346  21697015.6884                   21697016.0824
 -26109758.19947 -20333264.53546  21637099.8754                   21637095.9104
 -14008348.25047 -10903493.51645  21766519.3054                   21766517.1134
 11  8 22  2  1 30.0000000  0  8G10G12G29G26G05G25G02G30
 -14134751.87947 -11003432.60244  23471993.5704                   23471991.4534
 -22091973.55548 -17203061.52046  21416755.3594                   21416752.4654
  -6445699.99247  -5013097.47745  22886943.6414                   22886941.5004
    -15247.76646     -1380.82844  23987551.8754                   23987550.6054
 -25947924.44148 -20207319.75047  20423690.8914                   20423688.0664
 -16054323.99248 -12498257.60246  21691078.4064                   21691078.5984
 -26096658.32448 -20323056.83646  21639593.2584                   21639588.3284
 -14026117.83647 -10917339.95346  21763137.9224                   21763135.8324
 11  8 22  2  2  0.0000000  0  8G10G12G29G26G05G25G02G30
 -14056240.03947 -10942254.56644  23486933.9924                   23486931.6724
 -22059520.59448 -17177773.51246  21422931.0784                   21422928.4304
  -6552083.06647  -5095993.35945  22866699.7344                   22866697.7154
   -134118.94946    -94007.62143  23964931.0084                   23964930.1174
 -25951793.42648 -20210334.53547  20422954.4694                   20422951.4924
 -16084940.83248 -12522114.87146  21685251.9694                   21685252.1914
 -26083464.37948 -20312775.84846  21642103.3754                   21642098.5904
 -14043288.43448 -10930719.64546  21759870.6414                   21759868.2544
 11  8 22  2  2 30.0000000  0  8G10G12G29G26G05G25G02G30
 -13977534.59447 -10880925.67244  23501910.0474                   23501908.6914
 -22026603.70748 -17152124.01646  21429194.7344                   21429192.1024
  -6658407.37547  -5178843.43045  22846466.3914                   22846464.9964
   -252959.66046   -186610.69944  23942316.2424                   23942315.0274
 -25955124.14148 -20212929.89547  20422320.6334                   20422318.0514
 -16114973.77748 -12545517.17246  21679537.0234                   21679537.2034
 -26070177.95748 -20302422.78546  21644631.7974                   21644627.3794
 -14059862.49648 -10943634.50046  21756716.5004                   21756714.1994
 11  8 22  2  3  0.0000000  0  8G10G12G29G26G05G25G02G30
 -13898636.49247 -10819446.65244  23516924.6094                   23516923.0824
 -21993222.79348 -17126112.93046  21435546.7814                   21435544.3954
  -6764669.21947  -5261644.83645  22826245.5164                   22826243.7464
   -371764.60546   -279185.91444  23919708.7114                   23919707.3244
 -25957915.90248 -20215105.28147  20421789.5944                   20421786.5474
 -16144420.80548 -12568462.90246  21673933.2814                   21673933.5664
 -26056797.57448 -20291996.50046  21647178.3524                   21647174.2704
 -14075838.68447 -10956083.48446  21753676.9224                   21753674.1524
 11  8 22  2  3 30.0000000  0  8G10G12G29G26G05G25G02G30
 -13819549.54347 -10757820.51244  23531974.7114                   23531973.0664
 -21959381.57448 -17099743.18046  21441986.6724                   21441984.3914
  -6870867.85947  -5344396.98845  22806036.4384                   22806034.7734
   -490531.39146   -371731.37943  23897107.8754                   23897106.4614
 -25960170.82048 -20216862.35247  20421360.7034                   20421357.9804
 -16173282.94948 -12590952.87946  21668441.5314                   21668441.5394
 -26043324.46148 -20281497.96946  21649742.4064                   21649737.7424
 -14091218.87147 -10968068.05145  21750749.4454                   21750747.4184
 11  8 22  2  4  0.0000000  0  8G10G12G29G26G05G25G02G30
 -13740276.00447 -10696048.94944  23547059.8834                   23547058.6454
 -21925081.92648 -17073016.19546  21448513.6094                   21448511.3484
  -6977001.23047  -5427098.28545  22785840.1254                   22785838.8484
   -609256.33246   -464244.26643  23874515.3524                   23874514.3954
 -25961890.44548 -20218202.31247  20421033.4224                   20421030.5434
 -16201560.42248 -12612987.27746  21663060.3284                   21663060.3324
 -26029758.57447 -20270927.14146  21652323.6334                   21652319.1484
 -14106003.93047 -10979588.87946  21747936.2034                   21747934.0634
 11  8 22  2  4 30.0000000  0  8G10G12G29G26G05G25G02G30
 -13660818.02347 -10634133.69944  23562180.4144                   23562178.7154
 -21890326.03947 -17045933.71546  21455127.4534                   21455124.9454
  -7083066.97747  -5509746.87945  22765656.2274                   22765655.2854
   -727935.26646   -556721.28944  23851931.2974                   23851930.2894
 -25963075.60248 -20219125.80147  20420807.7504                   20420805.1214
 -16229252.62548 -12634565.60946  21657790.4384                   21657790.7194
 -26016099.39848 -20260283.62946  21654922.5704                   21654918.3834
 -14120194.01248 -10990646.09445  21745236.1334                   21745233.5394
 11  8 22  2  5  0.0000000  0  8G10G12G29G26G05G25G02G30
 -13581178.92647 -10572077.27344  23577335.0554                   23577332.6094
 -21855116.72748 -17018497.90646  21461827.8134                   21461825.3984
  -7189063.81247  -5592341.77045  22745485.7894                   22745484.3444
   -846565.53146   -649160.37144  23829356.3914                   23829355.2664
 -25963728.08248 -20219634.21547  20420683.5944                   20420680.8404
 -16256360.40648 -12655688.55146  21652631.9064                   21652632.2664
 -26002347.79348 -20249568.08246  21657539.4454                   21657534.7814
 -14133790.72348 -11001240.93446  21742648.5084                   21742645.8524
 11  8 22  2  5 30.0000000  0  8G10G12G29G26G05G25G02G30
 -13501362.04347 -10509882.31644  23592523.4614                   23592521.0164
 -21819456.57448 -16990710.79746  21468614.1174                   21468611.1764
  -7294990.28547  -5674881.82845  22725328.9064                   22725327.0004
   -965144.16046   -741559.22343  23806792.1484                   23806791.0234
 -25963849.99648 -20219729.19947  20420660.2814                   20420657.5904
 -16282884.45748 -12676356.64546  21647584.8834                   21647584.5234
 -25988504.16448 -20238780.82846  21660173.8834                   21660169.8134
 -14146795.46948 -11011374.50046  21740173.9774                   21740171.4654
 11  8 22  2  6  0.0000000  0  8G10G12G29G26G05G25G02G30
 -13421371.17247 -10447551.80144  23607745.6484                   23607742.7814
 -21783349.10548 -16962575.12546  21475484.8984                   21475482.6954
  -7400845.77747  -5757366.58245  22705184.9844                   22705182.9844
  -1083668.62946   -833915.89144  23784236.9774                   23784236.0004
 -25963443.64848 -20219412.55947  20420737.8754                   20420734.7934
 -16308826.13748 -12696570.94546  21642648.3594                   21642648.2304
 -25974570.12948 -20227923.14146  21662825.9224                   21662821.6954
 -14159210.36748 -11021048.45346  21737811.1174                   21737809.4224
 11  8 22  2  6 30.0000000  0  9G10G12G29G26G05G15G25G02G30
 -13341208.53147 -10385087.43043  23622999.2974                   23622997.6764
 -21746796.12947 -16934092.30946  21482440.7424                   21482438.0394
  -7506628.24247  -5839794.42245  22685055.6254                   22685054.2304
  -1202135.20346   -926227.42243  23761693.6174                   23761692.9494
 -25962510.25848 -20218685.23047  20420915.0944                   20420912.3054
   6131676.64156   4788498.82453  24665327.7344                   24665327.2814
 -16334185.28547 -12716331.32846  21637822.4304                   21637822.6844
 -25960545.35548 -20216994.74246  21665494.4224                   21665490.4654
 -14171036.03548 -11030263.26646  21735560.7734                   21735558.7704
 11  8 22  2  7  0.0000000  0  9G10G12G29G26G05G15G25G02G30
 -13260881.37147 -10322494.87143  23638286.1024                   23638283.6374
 -21709804.73447 -16905267.87546  21489479.6724                   21489477.2194
  -7612340.18747  -5922167.28945  22664938.4384                   22664937.3014
  -1320544.96546  -1018494.66844  23739160.3054                   23739159.9574
 -25961056.12148 -20217552.13347  20421192.1954                   20421188.7304
   6014826.37946   4697446.82843  24643091.8754                   24643091.4454
 -16358966.77748 -12735641.59046  21633106.5554                   21633106.7544
 -25946434.40648 -20205999.18446  21668179.3834                   21668175.0124
 -14182278.03148 -11039023.27346  21733421.6254                   21733419.5314
 11  8 22  2  7 30.0000000  0  9G10G12G29G26G05G15G25G02G30
 -13180398.28546 -10259780.80143  23653601.1024                   23653599.8054
 -21672383.52047 -16876108.50846  21496601.1254                   21496598.4534
  -7717985.60947  -6004488.34845  22644835.1484                   22644833.9494
  -1438900.25446  -1110719.47744  23716638.3134                   23716637.9614
 -25959088.62548 -20216019.00847  20421566.2504                   20421563.3874
   5897839.69946   4606288.55543  24620830.2584                   24620830.2074
 -16383177.07447 -12754506.75846  21628499.5634                   21628499.9804
 -25932243.81648 -20194941.59046  21670879.9774                   21670874.9384
 -14192943.56248 -11047334.08246  21731392.1484                   21731390.1564
 11  8 22  2  8  0.0000000  0  9G10G12G29G26G05G15G25G02G30
 -13099760.97346 -10196946.53143  23668945.7274                   23668944.0354
 -21634533.73047 -16846615.18446  21503803.5164                   21503800.7384
  -7823561.63747  -6086755.33245  22624744.5704                   22624743.3404
  -1557196.49646  -1202898.28944  23694127.9304                   23694126.9844
 -25956608.44548 -20214086.38347  20422038.1174                   20422035.6094
   5780720.57446   4515027.03943  24598543.2034                   24598543.6374
 -16406815.39848 -12772926.25046  21624001.4534                   21624001.5394
 -25917972.13348 -20183820.80146  21673595.9614                   21673591.2344
 -14203032.66448 -11055195.73446  21729472.3524                   21729470.1914
 11  8 22  2  8 30.0000000  0  9G10G12G29G26G05G15G25G02G30
 -13018970.37546 -10133992.84443  23684319.1414                   23684319.2664
 -21596255.72747 -16816788.19146  21511087.3444                   21511085.1214
  -7929064.85947  -6168965.58245  22604668.2504                   22604666.5554
  -1675428.73846  -1295027.23844  23671628.9304                   23671627.3984
 -25953615.11748 -20211753.90647  20422607.8754                   20422605.0234
   5663472.76646   4423665.26643  24576231.5944                   24576231.7234
 -16429880.43747 -12790899.01246  21619612.1804                   21619612.3054
 -25903617.90248 -20172635.68746  21676327.4844                   21676322.9924
 -14212544.72348 -11062607.72746  21727662.0314                   21727660.1254
 11  8 22  2  9  0.0000000  0  9G10G12G29G26G05G15G25G02G30
 -12938026.67646 -10070919.87543  23699722.9454                   23699722.0434
 -21557550.39847 -16786628.22346  21518452.7504                   21518449.9454
  -8034491.04747  -6251115.83245  22584606.0474                   22584604.5594
  -1793591.10946  -1387101.74244  23649143.1954                   23649142.0784
 -25950107.95348 -20209021.03547  20423275.2344                   20423272.5904
   5546101.43446   4332207.25843  24553896.4304                   24553896.3284
 -16452370.36747 -12808423.64546  21615332.9924                   21615332.7814
 -25889179.27748 -20161384.80546  21679074.9144                   21679071.0514
 -14221478.65648 -11069569.24646  21725961.9694                   21725960.1844
 11  8 22  2  9 30.0000000  0  9G10G12G29G26G05G15G25G02G30
 -12856927.44146 -10007725.64843  23715155.0084                   23715153.2624
 -21518414.86347 -16756133.01646  21525900.1724                   21525897.5234
  -8139833.16447  -6333200.55145  22564560.1094                   22564558.6294
  -1911674.88747  -1479114.99644  23626672.6484                   23626672.3284
 -25946083.59848 -20205885.16447  20424041.2504                   20424038.2034
   5428614.42246   4240659.17243  24531538.4924                   24531539.3754
 -16474280.35948 -12825496.37546  21611163.3594                   21611163.6884
 -25874651.02048 -20150064.08246  21681839.6564                   21681834.7034
 -14229830.37948 -11076077.09446  21724372.8984                   21724370.8874
 11  8 22  2 10  0.0000000  0  9G10G12G29G26G05G15G25G02G30
 -12775677.42646  -9944413.95743  23730616.6954                   23730614.3324
 -21478853.27747 -16725305.82046  21533428.5004                   21533426.4024
  -8245091.16447  -6415219.73045  22544530.3524                   22544528.4264
  -2029678.26647  -1571065.60544  23604217.3134                   23604216.5164
 -25941545.42248 -20202348.91447  20424904.5784                   20424901.5594
   5311012.25846   4149021.29343  24509159.2894                   24509159.7074
 -16495612.73848 -12842119.00846  21607103.9694                   21607104.2974
 -25860035.16848 -20138675.10246  21684620.7664                   21684616.2154
 -14237602.83248 -11082133.56246  21722893.5394                   21722892.1054
 11  8 22  2 10 30.0000000  0  9G10G12G29G26G05G15G25G02G30
 -12694279.03546  -9880986.67643  23746106.5004                   23746103.6764
 -21438867.84048 -16694148.35546  21541037.7114                   21541035.1644
  -8350262.97747  -6497171.76245  22524517.0234                   22524514.9024
  -2147597.75447  -1662950.84844  23581777.2344                   23581776.0314
 -25936495.09047 -20198413.58247  20425865.8594                   20425862.9774
   5193297.60946   4057295.75843  24486759.8984                   24486759.1374
 -16516368.04348 -12858291.99246  21603154.3834                   21603154.6564
 -25845331.88348 -20127217.99246  21687418.8524                   21687414.0984
 -14244797.48048 -11087739.80146  21721524.7814                   21721523.0044
 11  8 22  2 11  0.0000000  0  9G10G12G29G26G05G15G25G02G30
 -12612736.07046  -9817446.69943  23761623.7894                   23761621.7464
 -21398462.44947 -16662663.65646  21548726.3284                   21548723.9224
  -8455348.04747  -6579056.18745  22504519.7194                   22504518.0204
  -2265430.82047  -1754768.77044  23559354.8754                   23559352.6684
 -25930935.19948 -20194081.19147  20426923.7114                   20426920.8874
   5075472.18446   3965483.87943  24464337.7664                   24464336.9304
 -16536547.78548 -12874016.48046  21599314.3674                   21599314.1914
 -25830542.19948 -20115693.56646  21690233.2034                   21690228.4734
 -14251416.48048 -11092897.48446  21720265.2584                   21720263.1914
 11  8 22  2 11 30.0000000  0  9G10G12G29G26G05G15G25G02G30
 -12531049.75046  -9753795.02044  23777168.0944                   23777167.3134
 -21357638.09448 -16630852.48846  21556494.9064                   21556492.4184
  -8560342.48447  -6660869.99245  22484539.9384                   22484537.9654
  -2383172.82847  -1846515.72344  23536949.4384                   23536947.7974
 -25924865.98048 -20189351.91047  20428078.3054                   20428075.6804
   4957539.48446   3873588.44143  24441895.5084                   24441895.6804
 -16556151.09048 -12889291.78946  21595583.8834                   21595583.9964
 -25815664.43048 -20104100.50046  21693064.1884                   21693059.5944
 -14257459.78548 -11097606.56646  21719115.1804                   21719113.4344
 11  8 22  2 12  0.0000000  0  9G10G12G29G26G05G15G25G02G30
 -12449220.24247  -9690031.75444  23792739.4694                   23792739.2544
 -21316395.26248 -16598715.23846  21564343.3444                   21564340.4574
  -8665242.28947  -6742610.07445  22464578.1724                   22464576.2854
  -2500817.59047  -1938186.92644  23514562.8134                   23514561.7384
 -25918286.91448 -20184225.34847  20429330.5634                   20429327.9454
   4839504.65646   3781613.42643  24419434.4454                   24419433.8164
 -16575176.32048 -12904116.65646  21591963.7114                   21591963.6764
 -25800696.80148 -20092437.41046  21695912.5004                   21695908.1054
 -14262926.35248 -11101866.24246  21718074.8054                   21718073.0044
 11  8 22  2 12 30.0000000  0  9G10G12G29G26G05G15G25G02G30
 -12367250.47747  -9626159.19544  23808337.7894                   23808337.2304
 -21274736.74648 -16566254.07046  21572270.7424                   21572268.1174
  -8770045.99247  -6824275.25445  22444634.7424                   22444632.9184
  -2618361.97747  -2029779.88744  23492193.7664                   23492193.0664
 -25911200.04348 -20178703.09047  20430679.3674                   20430676.0904
   4721370.12946   3689560.71143  24396953.9304                   24396954.5474
 -16593624.33648 -12918491.74246  21588452.9064                   21588453.2274
 -25785639.71148 -20080704.61746  21698777.7584                   21698773.2664
 -14267817.93048 -11105677.87946  21717143.7584                   21717141.9884
 11  8 22  2 13  0.0000000  0  9G10G12G29G26G05G15G25G02G30
 -12285143.89147  -9562180.01644  23823962.5474                   23823961.7584
 -21232665.33248 -16533471.16846  21580276.5634                   21580274.3874
  -8874752.02747  -6905864.32845  22424709.3754                   22424707.8404
  -2735803.07447  -2121292.37544  23469845.8594                   23469843.8794
 -25903607.70748 -20172786.97747  20432124.0004                   20432120.7274
   4603137.41046   3597431.48843  24374454.5944                   24374455.6414
 -16611496.39548 -12932418.02346  21585052.2584                   21585051.9964
 -25770493.63748 -20068902.47346  21701660.1024                   21701655.5314
 -14272136.39148 -11109042.92646  21716322.0394                   21716320.5274
 11  8 22  2 13 30.0000000  0  9G10G12G29G26G05G15G25G02G30
 -12202903.78147  -9498096.83644  23839612.2274                   23839611.1094
 -21190184.97348 -16500369.60546  21588360.3754                   21588358.2504
  -8979359.33647  -6987376.47345  22404803.5944                   22404801.5784
  -2853137.87547  -2212722.02344  23447517.4064                   23447516.2274
 -25895512.31248 -20166478.86347  20433664.3914                   20433660.9104
   4484808.65646   3505227.43843  24351937.7274                   24351937.4884
 -16628793.87948 -12945896.58646  21581760.6724                   21581760.7384
 -25755259.49248 -20057031.70746  21704558.6884                   21704554.8364
 -14275883.96548 -11111963.12546  21715609.1954                   21715607.6484
 11  8 22  2 14  0.0000000  0  9G10G12G29G26G05G15G25G02G30
 -12120529.51647  -9433909.09044  23855287.8754                   23855285.6294
 -21147295.03547 -16466948.89546  21596522.0864                   21596519.5274
  -9083862.87547  -7068807.75445  22384916.9924                   22384915.8404
  -2970360.03947  -2304063.93444  23425211.5004                   23425209.7894
 -25886912.74248 -20159777.89847  20435300.7274                   20435298.1214
   4366389.68846   3412953.04743  24329403.4304                   24329403.0704
 -16645514.55948 -12958925.69946  21578578.7734                   21578578.5984
 -25739934.53147 -20045090.18746  21707475.1644                   21707470.6254
 -14279059.04348 -11114437.23046  21715004.6804                   21715003.1644
 11  8 22  2 14 30.0000000  0  9G10G12G29G26G05G15G25G02G30
 -12038027.16447  -9369621.51244  23870987.3134                   23870985.1134
 -21104000.98447 -16433213.28946  21604760.7274                   21604758.0204
  -9188264.07847  -7150159.28145  22365050.2814                   22365048.3554
  -3087469.22347  -2395317.75044  23402925.5004                   23402924.6134
 -25877813.93748 -20152687.90647  20437032.0234                   20437029.7814
   4247879.66046   3320607.72743  24306851.3754                   24306850.6094
 -16661662.30148 -12971508.35246  21575505.8054                   21575506.1294
 -25724521.80147 -20033080.27046  21710408.1724                   21710403.4304
 -14281666.32848 -11116468.89546  21714509.0634                   21714507.3204
 11  8 22  2 15  0.0000000  0  9G10G12G29G26G05G15G25G02G30
 -11955399.88347  -9305236.61344  23886710.5474                   23886708.9804
 -21060306.47347 -16399165.63746  21613075.5554                   21613072.7274
  -9292561.23447  -7231429.73845  22345203.2344                   22345201.7034
  -3204462.28147  -2486481.11744  23380662.2504                   23380661.5824
 -25868218.24248 -20145210.73447  20438858.3444                   20438855.9694
   4129280.92646   3228193.23043  24284282.1414                   24284282.1524
 -16677238.42648 -12983645.59446  21572541.5784                   21572541.9344
 -25709022.06247 -20021002.55146  21713357.8594                   21713353.0784
 -14283707.76648 -11118059.63345  21714120.2034                   21714118.3954
 11  8 22  2 15 30.0000000  0  9G10G12G29G26G05G15G25G02G30
 -11872650.36747  -9240756.47344  23902457.2664                   23902456.2934
 -21016214.72347 -16364808.44546  21621466.0784                   21621463.2974
  -9396752.85247  -7312617.94145  22325375.9144                   22325374.3874
  -3321336.13747  -2577551.58644  23358422.1414                   23358421.0434
 -25858127.96148 -20137348.16047  20440778.9064                   20440775.7344
   4010595.35946   3135711.09843  24261697.8594                   24261697.0664
 -16692244.26248 -12995338.44946  21569686.4844                   21569686.3954
 -25693435.84047 -20008857.44946  21716323.9144                   21716319.4774
 -14285185.48048 -11119211.10946  21713838.9304                   21713836.8054
 11  8 22  2 16  0.0000000  0  9G10G12G29G26G05G15G25G02G30
 -11789779.95347  -9176182.12543  23918226.9614                   23918225.6954
 -20971726.69947 -16330142.48446  21629931.2424                   21629929.2344
  -9500835.63347  -7393721.34445  22305569.6094                   22305567.5004
  -3438085.84047  -2668525.30144  23336205.4384                   23336204.1994
 -25847543.52048 -20129100.53547  20442792.4614                   20442789.5864
   3891826.88346   3043164.36743  24239096.1484                   24239095.2664
 -16706679.09448 -13006586.36746  21566939.5474                   21566939.5664
 -25677761.60547 -19996643.75446  21719306.3134                   21719302.0234
 -14286099.48048 -11119923.31646  21713665.4064                   21713662.9844
 11  8 22  2 16 30.0000000  0  9G10G12G29G26G05G15G25G02G30
 -11706793.50446  -9111517.34443  23934018.5234                   23934017.7344
 -20926846.85947 -16295171.19546  21638471.9064                   21638469.2464
  -9604809.74247  -7474740.05146  22285783.8054                   22285782.2774
  -3554709.82047  -2759401.06244  23314012.8054                   23314011.7464
 -25836469.20348 -20120471.18447  20444900.1484                   20444896.7974
   3772976.59846   2950553.90644  24216479.9064                   24216479.4384
 -16720545.77047 -13017391.56246  21564300.4844                   21564300.5234
 -25662001.34447 -19984363.02346  21722305.1334                   21722300.8484
 -14286453.39548 -11120199.09846  21713597.4384                   21713595.7544
 11  8 22  2 17  0.0000000  0  9G10G12G29G26G05G15G25G02G30
 -11623690.53946  -9046761.81643  23949832.1954                   23949831.7464
 -20881575.00847 -16259894.46146  21647087.1024                   21647084.5084
  -9708669.92647  -7555670.00046  22266019.5554                   22266018.1214
  -3671201.41447  -2850173.64844  23291844.9454                   23291843.9614
 -25824902.94948 -20111458.51247  20447100.8914                   20447097.7504
   3654050.03546   2857883.98843  24193848.3444                   24193848.3794
 -16733842.19148 -13027752.40646  21561770.6724                   21561770.5864
 -25646152.36747 -19972013.17246  21725321.2114                   21725316.7854
 -14286245.76248 -11120037.31646  21713637.1804                   21713635.2464
 11  8 22  2 17 30.0000000  0  9G10G12G29G26G05G15G25G02G30
 -11540474.50446  -8981918.15243  23965668.2504                   23965666.5594
 -20835915.08247 -16224315.32046  21655775.7734                   21655773.2774
  -9812415.15247  -7636510.36746  22246277.8054                   22246275.7384
  -3787558.09047  -2940841.14544  23269703.1174                   23269701.5984
 -25812848.17248 -20102065.17247  20449395.0634                   20449391.4694
   3535048.75046   2765155.82843  24171204.0234                   24171203.2624
 -16746570.21948 -13037670.34046  21559348.1884                   21559348.2934
 -25630215.60247 -19959594.91045  21728353.9924                   21728348.9844
 -14285479.21548 -11119440.00846  21713783.1094                   21713781.3284
 11  8 22  2 18  0.0000000  0  9G10G12G29G26G05G15G25G02G30
 -11457146.23046  -8916987.03543  23981525.5704                   23981523.4224
 -20789867.98847 -16188434.49246  21664538.4144                   21664535.8014
  -9916041.97747  -7717258.48046  22226558.4614                   22226556.4104
  -3903774.75047  -3031399.51244  23247587.6484                   23247586.2234
 -25800305.07448 -20092291.32047  20451781.7344                   20451778.6484
   3415976.98446   2672372.76643  24148544.6414                   24148544.4534
 -16758729.19148 -13047144.85546  21557034.8134                   21557034.6994
 -25614189.44547 -19947107.00046  21731403.9454                   21731399.4104
 -14284153.72748 -11118407.15246  21714035.2974                   21714033.4264
 11  8 22  2 18 30.0000000  0  9G10G12G29G26G05G15G25G02G30
 -11373709.47746  -8851971.37943  23997402.2814                   23997400.2854
 -20743437.90647 -16152255.22746  21673373.8284                   21673371.3244
 -10019549.71547  -7797913.78945  22206861.4064                   22206859.5354
  -4019848.74247  -3121846.71944  23225499.4064                   23225498.7034
 -25787276.89548 -20082139.48447  20454261.0474                   20454258.0044
   3296836.51246   2579536.18043  24125873.5864                   24125873.1524
 -16770321.14548 -13056177.54346  21554828.7114                   21554828.7624
 -25598075.15648 -19934550.41046  21734470.3054                   21734465.7304
 -14282272.24248 -11116941.07045  21714393.5314                   21714391.2974
 11  8 22  2 19  0.0000000  0  9G10G12G29G26G05G15G25G02G30
 -11290168.05946  -8786874.19142  24013299.3524                   24013297.0514
 -20696628.55947 -16115780.43046  21682281.0944                   21682278.5354
 -10122937.41047  -7878475.57445  22187187.1334                   22187185.5084
  -4135777.69147  -3212180.90244  23203439.0234                   23203438.2664
 -25773766.69548 -20071612.04347  20456831.8204                   20456829.0514
   3177628.64146   2486647.08243  24103188.6954                   24103187.6914
 -16781348.19148 -13064770.05146  21552730.3834                   21552730.3134
 -25581873.61347 -19921925.82045  21737553.1094                   21737549.2664
 -14279837.48847 -11115043.85546  21714856.7814                   21714854.8204
 11  8 22  2 19 30.0000000  0  9G10G12G29G26G05G15G25G02G30
 -11206524.22346  -8721697.16043  24029216.9064                   24029214.0904
 -20649442.37547 -16079012.00446  21691260.6094                   21691257.6764
 -10226202.38747  -7958941.72745  22167536.6804                   22167534.8014
  -4251557.60247  -3302398.95744  23181406.6254                   23181405.6094
 -25759776.23448 -20060710.38347  20459494.2734                   20459491.4344
   3058356.51647   2393707.92644  24080491.3364                   24080490.8014
 -16791811.12948 -13072922.98046  21550739.3054                   21550739.4574
 -25565584.67247 -19909233.11746  21740652.7344                   21740648.4924
 -14276851.00047 -11112716.71946  21715425.2274                   21715423.2624
 11  8 22  2 20  0.0000000  0  9G10G12G29G26G05G15G25G02G30
 -11122780.82847  -8656442.56243  24045153.3754                   24045150.8014
 -20601882.75847 -16041952.57446  21700310.6884                   21700308.0744
 -10329343.09447  -8039311.04746  22147909.3524                   22147907.4884
  -4367185.46147  -3392498.53944  23159403.4384                   23159401.7274
 -25745307.56248 -20049436.07847  20462247.4454                   20462244.8914
   2939022.16446   2300720.29744  24057782.8984                   24057782.1174
 -16801711.36748 -13080637.44946  21548855.3284                   21548855.6374
 -25549208.78547 -19896472.67246  21743769.2974                   21743764.1094
 -14273314.78147 -11109961.22346  21716098.1804                   21716096.5164
 11  8 22  2 20 30.0000000  0  9G10G12G29G26G05G15G25G02G30
 -11038938.15247  -8591110.58643  24061107.4694                   24061104.9454
 -20553949.82447 -16004602.27046  21709432.1564                   21709429.9844
 -10432355.42647  -8119580.34045  22128306.7424                   22128304.9844
  -4482655.27347  -3482474.96544  23137430.4064                   23137429.1884
 -25730360.62948 -20037789.11347  20465091.9454                   20465088.7424
   2819630.66846   2207688.16044  24035063.0554                   24035063.4224
 -16811047.69148 -13087912.50846  21547078.6334                   21547078.6684
 -25532744.02047 -19883642.98046  21746902.2584                   21746897.8204
 -14269228.61348 -11106777.19946  21716875.7664                   21716873.8014
 11  8 22  2 21  0.0000000  0  9G10G12G29G26G05G15G25G02G30
 -10954999.21947  -8525703.64543  24077080.6254                   24077077.8674
 -20505647.25447 -15966963.92246  21718624.0314                   21718621.3794
 -10535238.05547  -8199748.55546  22108728.8594                   22108727.3204
  -4597963.94947  -3572325.82044  23115487.8984                   23115486.6174
 -25714938.32848 -20025771.72747  20468026.4384                   20468023.6334
   2700184.18446   2114613.14844  24012333.5554                   24012332.9384
 -16819821.84048 -13094749.50846  21545409.1484                   21545408.8634
 -25516190.84447 -19870744.39546  21750052.4304                   21750047.9024
 -14264594.67247 -11103166.33245  21717757.6334                   21717755.3834
 11  8 22  2 21 30.0000000  0  9G10G12G29G26G05G15G25G02G30
 -10870968.91846  -8460225.50443  24093070.8444                   24093069.2304
 -20456980.18047 -15929041.55146  21727884.7894                   21727882.7814
 -10637991.00847  -8279815.74646  22089175.4844                   22089173.8054
  -4713110.33246  -3662050.23044  23093576.2974                   23093574.7704
 -25699044.50048 -20013386.92647  20471050.9224                   20471048.0394
   2580683.19146   2021495.66044  23989592.5634                   23989592.4804
 -16828037.32448 -13101151.17646  21543845.7504                   21543845.7934
 -25499551.40247 -19857778.56645  21753218.5634                   21753214.3634
 -14259417.35547 -11099132.07045  21718742.6804                   21718741.0004
 11  8 22  2 22  0.0000000  0  9G10G12G29G26G05G15G25G02G30
 -10786847.64847  -8394676.45343  24109079.2894                   24109076.7504
 -20407948.96148 -15890835.42646  21737215.0864                   21737212.7704
 -10740610.00847  -8359778.54346  22069647.8834                   22069645.9414
  -4828088.86747  -3751643.83644  23071695.9924                   23071694.7274
 -25682679.05548 -20000634.61347  20474164.7344                   20474162.3094
   2461132.22746   1928339.20744  23966842.8834                   23966841.8914
 -16835692.87948 -13107116.55546  21542389.1254                   21542389.1484
 -25482823.53147 -19844743.83646  21756401.6414                   21756397.4924
 -14253696.02347 -11094673.89846  21719831.5164                   21719829.2544
 11  8 22  2 22 30.0000000  0  9G10G12G29G26G05G15G25G02G30
 -10702639.30546  -8329059.53143  24125103.0004                   24125100.3834
 -20358557.98848 -15852348.96946  21746614.3444                   21746612.0434
 -10843094.25447  -8439636.35946  22050145.4844                   22050143.7974
  -4942896.89847  -3841104.58244  23049848.7584                   23049847.2464
 -25665845.46148 -19987517.52347  20477368.4454                   20477365.5164
   2341533.00446   1835145.18444  23944083.6954                   23944082.8164
 -16842791.09048 -13112647.63346  21541038.0704                   21541038.1054
 -25466008.66448 -19831641.32046  21759601.6954                   21759597.1024
 -14247434.03548 -11089794.43445  21721023.4844                   21721021.2894
 11  8 22  2 23  0.0000000  0  9G10G12G29G26G05G15G25G02G30
 -10618345.91446  -8263376.38743  24141143.7664                   24141141.2234
 -20308809.72348 -15813584.10946  21756080.8284                   21756079.1174
 -10945441.29747  -8519387.25445  22030669.7664                   22030667.7814
  -5057530.48046  -3930429.41444  23028034.8054                   23028033.0394
 -25648545.62148 -19974037.12147  20480660.3204                   20480657.5234
   2221888.57046   1741915.89544  23921315.7974                   23921314.9414
 -16849332.76648 -13117745.04746  21539793.5234                   21539793.4774
 -25449106.11748 -19818470.48845  21762818.0634                   21762813.2464
 -14240632.82047 -11084494.79745  21722317.2894                   21722315.4614
 11  8 22  2 23 30.0000000  0  9G10G12G29G26G05G15G25G02G30
 -10533969.69546  -8197628.69543  24157200.1024                   24157198.5234
 -20258706.57048 -15774542.71946  21765615.2034                   21765612.9264
 -11047648.85947  -8599029.47746  22011220.2034                   22011218.4184
  -5171985.62946  -4019615.18044  23006254.8984                   23006253.0314
 -25630781.09848 -19960194.61747  20484040.7734                   20484037.7624
   2102201.88746   1648653.69544  23898540.1564                   23898540.1484
 -16855318.78148 -13122409.48846  21538654.1564                   21538654.2384
 -25432115.88747 -19805231.31645  21766051.0004                   21766045.9184
 -14233293.99647 -11078776.23445  21723713.7734                   21723712.0434
 11  8 22  2 24  0.0000000  0  9G10G12G29G26G05G15G25G02G30
 -10449513.89546  -8131818.98044  24173271.5634                   24173270.2814
 -20208252.15648 -15735227.60946  21775216.2194                   21775214.1484
 -11149715.62147  -8678561.98046  21991797.3674                   21991795.6484
  -5286259.74647  -4108659.87144  22984508.9924                   22984508.0124
 -25612554.44948 -19945992.03147  20487509.3674                   20487506.3094
   1982475.25446   1555360.35544  23875757.1954                   23875756.4844
 -16860751.07448 -13126642.45746  21537620.6804                   21537621.1564
 -25415038.70347 -19791924.41046  21769300.8834                   21769295.6644
 -14225420.18747 -11072640.81645  21725212.3284                   21725209.8134
 11  8 22  2 24 30.0000000  0  9G10G12G29G26G05G15G25G02G30
 -10364980.05946  -8065948.45343  24189357.3444                   24189355.6884
 -20157448.76247 -15695640.57046  21784883.6174                   21784881.4884
 -11251639.15247  -8757982.88346  21972401.6884                   21972399.6644
  -5400348.28947  -4197559.98044  22962799.2894                   22962796.7344
 -25593867.63348 -19931430.86747  20491065.5864                   20491062.5044
   1862711.73447   1462038.24244  23852966.6954                   23852966.3954
 -16865630.45348 -13130444.57846  21536691.8444                   21536692.4104
 -25397873.92248 -19778549.22345  21772567.2664                   21772562.3754
 -14217012.92648 -11066089.71145  21726811.8914                   21726809.8754
 11  8 22  2 25  0.0000000  0  9G10G12G29G26G05G15G25G02G30
 -10280371.44146  -8000019.65243  24205457.6094                   24205456.0744
 -20106299.97347 -15655784.39146  21794616.9534                   21794614.8554
 -11353417.76647  -8837290.86746  21953034.3834                   21953032.1414
  -5514248.44547  -4286313.30144  22941124.9304                   22941122.9804
 -25574723.37948 -19916513.25847  20494708.5704                   20494705.5204
   1742913.37147   1368689.00444  23830169.5474                   23830168.9804
 -16869958.85548 -13133817.36346  21535868.3134                   21535868.4104
 -25380621.83247 -19765106.00846  21775850.0004                   21775845.7704
 -14208074.84048 -11059124.98845  21728512.9384                   21728510.8404
 11  8 22  2 25 30.0000000  0  9G10G12G29G26G05G15G25G02G30
 -10195688.92246  -7934033.28943  24221572.5314                   24221570.4654
 -20054806.74247 -15615659.82046  21804416.0004                   21804414.1844
 -11455047.15647  -8916482.56646  21933694.5084                   21933692.5474
  -5627954.60247  -4374915.44544  22919486.5394                   22919484.6954
 -25555121.64848 -19901239.17247  20498438.4454                   20498435.5704
   1623085.32047   1275316.61344  23807367.1334                   23807366.1414
 -16873735.51248 -13136760.22746  21535149.5314                   21535149.7664
 -25363280.61347 -19751593.35245  21779150.0864                   21779145.5704
 -14198605.87947 -11051746.58246  21730314.6564                   21730312.7974
 11  8 22  2 26  0.0000000  0  9G10G12G29G26G05G15G25G02G30
 -10110934.93046  -7867991.25043  24237700.6884                   24237698.4414
 -20002972.38347 -15575269.43046  21814279.6954                   21814277.4494
 -11556526.01247  -8995556.96946  21914383.6724                   21914381.9804
  -5741463.36347  -4463363.76644  22897886.5944                   22897885.1254
 -25535064.97348 -19885610.58647  20502254.9844                   20502252.2234
   1503229.71147   1181922.75844  23784559.8204                   23784557.5744
 -16876962.18748 -13139274.52746  21534535.2894                   21534535.6454
 -25345850.75447 -19738011.61745  21782466.9694                   21782461.7074
 -14188608.45348 -11043956.40245  21732217.3204                   21732215.1764
 11  8 22  2 26 30.0000000  0  9G10G12G29G26G05G15G25G02G30
 -10026112.95746  -7801896.19943  24253841.4454                   24253839.5434
 -19950800.78548 -15534616.26246  21824207.7344                   21824205.6994
 -11657853.32447  -9074513.27346  21895101.6644                   21895099.6334
  -5854772.25047  -4551656.34844  22876324.6254                   22876322.4734
 -25514556.58648 -19869630.01647  20506157.7114                   20506154.8014
   1383348.21147   1088508.69144  23761746.7664                   23761745.1764
 -16879641.32048 -13141362.18046  21534025.6484                   21534025.7154
 -25328333.16447 -19724361.53545  21785800.2974                   21785795.2934
 -14178085.72747 -11035756.88345  21734219.7894                   21734217.7424
 11  8 22  2 27  0.0000000  0  9G10G12G29G26G05G15G25G02G30
  -9941225.06646  -7735749.78143  24269995.8284                   24269993.9654
 -19898293.93047 -15493701.85246  21834199.4304                   21834197.5274
 -11759026.09447  -9153349.15646  21875848.8134                   21875847.0984
  -5967877.23447  -4639790.05144  22854801.7344                   22854799.4224
 -25493598.32848 -19853298.88747  20510145.5944                   20510142.9184
   1263444.32847    995077.19544  23738929.4844                   23738928.5314
 -16881773.78948 -13143023.85546  21533620.2584                   21533619.8014
 -25310727.17647 -19710642.56245  21789150.6254                   21789145.7734
 -14167039.24647 -11027149.24645  21736321.7734                   21736320.0824
 11  8 22  2 27 30.0000000  0  9G10G12G29G26G05G15G25G02G30
  -9856275.96146  -7669555.69543  24286159.5634                   24286159.4384
 -19845457.86748 -15452530.90646  21844253.9304                   21844251.2304
 -11860044.59447  -9232064.83246  21856626.0084                   21856623.7664
  -6080776.94947  -4727763.79744  22833317.5704                   22833315.1684
 -25472194.50848 -19836620.57847  20514218.8054                   20514216.2154
   1143518.19146    901628.38744  23716108.5634                   23716107.2074
 -16883363.43048 -13144262.54346  21533317.6804                   21533317.4344
 -25293035.27047 -19696856.64545  21792517.1884                   21792512.3834
 -14155473.49648 -11018136.98845  21738522.6334                   21738520.6994
 11  8 22  2 28  0.0000000  0  9G10G12G29G26G05G15G25G02G30
  -9771267.15646  -7603315.11343  24302337.1804                   24302335.8284
 -19792294.12947 -15411104.64546  21854370.6954                   21854368.3524
 -11960905.67647  -9310657.84446  21837432.7814                   21837430.9184
  -6193466.80547  -4815574.00844  22811872.5394                   22811871.3674
 -25450346.22748 -19819595.93447  20518376.5394                   20518373.9384
   1023573.78146    808165.32844  23693283.3444                   23693282.4144
 -16884410.62548 -13145078.54746  21533118.2584                   21533118.3794
 -25275256.30947 -19683002.89545  21795900.4224                   21795895.8674
 -14143389.63347 -11008721.00445  21740822.2894                   21740820.4414
 11  8 22  2 28 30.0000000  0  9G10G12G29G26G05G15G25G02G30
  -8110781.78146  -6309430.46143  24618317.2194                   24618315.0824
 -18163385.68047 -14141825.34846  22164341.5864                   22164339.1914
 -10486182.06247  -8161522.50846  22118063.3594                   22118061.5554
  -4730517.55147  -3675613.50444  23090262.9694                   23090261.6134
 -23852634.93048 -18574626.08247  20822410.7504                   20822407.5554
   2479039.68446   1942294.71944  23970248.8914                   23970248.2384
 -15309494.93448 -11917871.52346  21832814.5474                   21832814.4024
 -23681968.72747 -18441480.09845  22099093.0634                   22099088.1884
 -12555368.30148  -9771301.78945  22043012.5314                   22043011.0744
 11  8 22  2 29  0.0000000  0  9G10G12G29G26G05G15G25G02G30
  -8025656.23446  -6243098.89543  24634515.9454                   24634513.7384
 -18109570.95347 -14099891.81646  22174581.9224                   22174579.6604
 -10586717.61347  -8239861.84446  22098932.1414                   22098930.1454
  -4842772.07847  -3763084.51244  23068901.3444                   23068899.6054
 -23829900.45348 -18556910.89547  20826737.0084                   20826733.9064
   2359071.57046   1848813.16044  23947420.4774                   23947418.8364
 -15309457.18448 -11917842.10946  21832822.1484                   21832822.0234
 -23664010.64547 -18427486.78545  22102510.0314                   22102504.8954
 -12542250.11348  -9761079.84045  22045508.8284                   22045507.1134
 11  8 22  2 29 30.0000000  0  9G10G12G29G26G05G15G25G02G30
  -7940476.86346  -6176725.31243  24650725.3524                   24650723.0164
 -18055436.34847 -14057709.03546  22184883.6954                   22184881.7664
 -10687087.99648  -8318072.48046  22079832.2664                   22079829.8244
  -4954804.52047  -3850382.46145  23047582.4534                   23047580.6644
 -23806727.22748 -18538853.82047  20831146.8054                   20831143.5514
   2239094.84047   1755324.91844  23924588.9694                   23924587.9454
 -15308880.22348 -11917392.53146  21832931.5314                   21832931.7384
 -23645964.07848 -18413424.52745  22105944.4924                   22105939.1334
 -12528618.96948  -9750458.18445  22048103.0944                   22048101.0704
 11  8 22  2 30  0.0000000  0  9G10G12G29G26G05G15G25G02G30
  -7855246.29746  -6110311.87543  24666943.2974                   24666942.0554
 -18000984.74247 -14015279.23846  22195245.5004                   22195243.1054
 -10787291.50047  -8396153.07046  22060764.0084                   22060761.8444
  -5066611.36347  -3937504.62145  23026306.4774                   23026304.8554
 -23783117.27048 -18520456.43446  20835639.6884                   20835636.5784
   2119112.03146   1661831.90644  23901756.8204                   23901755.4964
 -15307765.90248 -11916524.23846  21833143.6024                   21833143.9414
 -23627828.96147 -18399293.26645  22109395.2664                   22109390.3244
 -12514477.44148  -9739438.82445  22050793.8594                   22050792.4844
 11  8 22  2 30 30.0000000  0 10G10G12G29G26G05G15G25G02G30G21
  -7769968.43046  -6043861.58643  24683171.1484                   24683169.1484
 -17946221.26648 -13972606.41446  22205666.6254                   22205664.2814
 -10887327.87948  -8474103.44546  22041727.9694                   22041725.4064
  -5178191.07447  -4024449.80545  23005073.3674                   23005071.8954
 -23759075.05948 -18501722.23047  20840214.9924                   20840211.7154
   1999124.32446   1568335.11344  23878923.7274                   23878923.2504
 -15306117.50048 -11915239.77746  21833457.3674                   21833457.3404
 -23609607.57047 -18385094.77745  22112863.0704                   22112857.9454
 -12499829.41848  -9728024.79745  22053581.2114                   22053579.2934
   7761112.34456   6055063.19953  25297179.8204                   25297178.6644
 11  8 22  2 31  0.0000000  0 10G10G12G29G26G05G15G25G02G30G21
  -7684651.12146  -5977380.56643  24699407.2504                   24699405.4184
 -17891153.77347 -13929696.70746  22216145.5314                   22216143.4264
 -10987199.95748  -8551925.78546  22022722.6804                   22022720.2894
  -5289544.82047  -4111218.88745  22983883.5784                   22983882.1954
 -23734607.63748 -18482656.69147  20844870.9614                   20844867.9144
   1879129.30146   1474832.60244  23856088.8134                   23856088.6684
 -15303941.68048 -11913544.33646  21833871.5004                   21833871.9574
 -23591304.16848 -18370832.39545  22116345.4614                   22116341.4224
 -12484682.27748  -9716221.84045  22056463.6334                   22056461.9264
   7681335.87946   5992899.76643  25281999.0394                   25281997.7194
 11  8 22  2 31 30.0000000  0  9G12G29G26G05G15G25G02G30G21
 -17835791.78947 -13886557.52046  22226680.7504                   22226678.3634
 -11086912.04748  -8629623.46546  22003748.1724                   22003745.6844
  -5400675.45347  -4197814.14145  22962736.0634                   22962733.8594
 -23709724.23848 -18463267.01646  20849605.3674                   20849602.6994
   1759123.34847   1381321.59044  23833252.6174                   23833251.7584
 -15301246.61748 -11911444.29346  21834384.2814                   21834384.4304
 -23572925.48847 -18356511.35945  22119843.3984                   22119838.2074
 -12469044.82848  -9704036.83245  22059439.5234                   22059437.4844
   7601558.74646   5930735.85943  25266818.1724                   25266816.8204
 11  8 22  2 32  0.0000000  0  9G12G29G26G05G15G25G02G30G21
 -17780134.10547 -13843187.92246  22237272.1724                   22237269.7304
 -11186457.90648  -8707191.60546  21984805.0084                   21984803.0164
  -5511575.53147  -4284229.73045  22941632.7814                   22941630.8324
 -23684422.87548 -18443551.64846  20854420.2344                   20854417.3874
   1639113.25847   1287807.35544  23810416.0704                   23810414.9734
 -15298030.03148 -11908937.86346  21834996.5164                   21834996.5744
 -23554467.36347 -18342128.41845  22123355.5314                   22123351.2974
 -12452915.50848  -9691468.53545  22062508.9384                   22062506.9024
   7521784.33346   5868574.06642  25251637.5554                   25251636.0554
 11  8 22  2 32 30.0000000  0  9G12G29G26G05G15G25G02G30G21
 -17724174.11347 -13799582.75446  22247921.0634                   22247918.9064
 -11285825.34848  -8784620.73446  21965895.9614                   21965894.0044
  -5622231.37147  -4370454.99645  22920575.3204                   22920573.2504
 -23658695.75448 -18423504.52746  20859315.8914                   20859313.0864
   1519112.05147   1194300.05944  23787579.9224                   23787579.1994
 -15294283.45348 -11906018.45346  21835709.3284                   21835709.6844
 -23535919.82847 -18327675.80945  22126885.0234                   22126880.5084
 -12436286.43748  -9678510.83245  22065673.0784                   22065671.5084
   7442022.35246   5806421.86743  25236459.4694                   25236457.9414
 11  8 22  2 33  0.0000000  0  9G12G29G26G05G15G25G02G30G21
 -17667907.52747 -13755738.68046  22258627.8754                   22258625.6644
 -11385005.11348  -8861903.61346  21947022.3754                   21947020.6724
  -5732631.71547  -4456481.17244  22899566.3134                   22899564.8404
 -23632538.01248 -18403121.86746  20864293.7274                   20864290.5944
   1399129.83647   1100807.53944  23764748.0554                   23764747.5634
 -15290001.32848 -11902681.73446  21836524.2894                   21836524.5634
 -23517275.31647 -18313147.64145  22130432.7894                   22130428.1884
 -12419152.72347  -9665159.89845  22068933.1174                   22068931.8244
   7362279.14146   5744284.33642  25221285.3914                   25221283.5594
 11  8 22  2 33 30.0000000  0  9G12G29G26G05G15G25G02G30G21
 -17611337.84847 -13711658.43745  22269392.9844                   22269390.6134
 -11483995.53948  -8939038.96146  21928185.2734                   21928183.1994
  -5842774.16447  -4542306.40245  22878607.4384                   22878605.5354
 -23605952.62948 -18382405.97346  20869352.9224                   20869349.8284
   1279168.53547   1007331.32844  23741920.4144                   23741919.3594
 -15285186.10948 -11898929.61346  21837440.6254                   21837440.6054
 -23498534.34847 -18298544.31645  22133999.3054                   22133994.8054
 -12401517.41847  -9651418.11345  22072289.2194                   22072287.5594
   7282553.24646   5682160.29343  25206113.9224                   25206111.4804
 11  8 22  2 34  0.0000000  0  9G12G29G26G05G15G25G02G30G21
 -17554468.82848 -13667344.93046  22280214.6644                   22280212.6294
 -11582794.61348  -9016025.19946  21909384.5554                   21909382.5124
  -5952655.37547  -4627928.07044  22857697.7894                   22857695.9224
 -23578942.82448 -18361359.35547  20874492.8284                   20874489.8984
   1159230.78547    913873.46144  23719096.8674                   23719095.9264
 -15279840.09048 -11894763.88746  21838458.0164                   21838458.3834
 -23479697.71148 -18283866.44145  22137583.8754                   22137578.9454
 -12383383.53948  -9637287.82445  22075739.8984                   22075738.7504
   7202843.66446   5620048.97743  25190945.7664                   25190943.2974
 11  8 22  2 34 30.0000000  0  9G12G29G26G05G15G25G02G30G21
 -17497307.09447 -13622803.34046  22291092.4614                   22291089.7384
 -11681405.01248  -9092864.41046  21890619.4924                   21890617.5984
  -6062275.41047  -4713346.21944  22836837.3054                   22836835.6134
 -23551514.24648 -18339986.42246  20879712.0474                   20879709.6294
   1039315.35947    820433.00044  23696278.2584                   23696276.4024
 -15273968.86348 -11890188.89846  21839575.3204                   21839575.2274
 -23460768.66447 -18269116.55145  22141186.0394                   22141180.9574
 -12364757.21148  -9622773.82045  22079284.8284                   22079282.9494
   7123145.97746   5557946.89843  25175779.7504                   25175777.5664
 11  8 22  2 35  0.0000000  0  9G12G29G26G05G15G25G02G30G21
 -17439857.77747 -13578037.65645  22302024.6564                   22302022.2464
 -11779825.71548  -9169555.82046  21871890.4844                   21871888.7154
  -6171632.74247  -4798559.67644  22816027.3284                   22816025.4304
 -23523671.26648 -18318290.57447  20885010.4304                   20885007.5904
    919423.29347    727010.73444  23673462.5634                   23673461.5274
 -15267576.05948 -11885207.48846  21840791.6644                   21840791.8204
 -23441749.32848 -18254296.30945  22144804.9694                   22144800.2504
 -12345642.85548  -9607879.52345  22082922.4844                   22082919.9574
   7043457.64146   5495852.13343  25160615.4614                   25160613.1094
 11  8 22  2 35 30.0000000  0  9G12G29G26G05G15G25G02G30G21
 -17382123.48848 -13533049.91446  22313011.1724                   22313008.9964
 -11878053.84448  -9246097.17646  21853198.5394                   21853196.6094
  -6280723.16847  -4883565.14144  22795267.6254                   22795265.9494
 -23495415.82848 -18296273.34046  20890387.1414                   20890384.2114
    799558.29346    633609.57044  23650653.6024                   23650652.0944
 -15260663.03148 -11879820.71546  21842107.4844                   21842107.5234
 -23422638.81248 -18239405.02345  22148441.6334                   22148436.9184
 -12326042.33247  -9592606.38745  22086651.7194                   22086650.4844
   6963778.61746   5433764.61343  25145452.8204                   25145450.5904
 11  8 22  2 36  0.0000000  0  9G12G29G26G05G15G25G02G30G21
 -17324106.59447 -13487841.96145  22324051.3674                   22324049.0704
 -11976087.05548  -9322486.64846  21834543.4384                   21834541.0044
  -6389542.46947  -4968359.34044  22774560.4454                   22774558.8164
 -23466749.69148 -18273936.09046  20895842.3284                   20895839.2894
    679723.13347    540231.64144  23627849.5554                   23627848.1684
 -15253231.04748 -11874029.56646  21843521.4534                   21843521.7464
 -23403436.63347 -18224442.30145  22152095.7114                   22152091.2704
 -12305957.52047  -9576955.89845  22090474.1024                   22090472.2504
   6884108.62546   5371684.12943  25130292.5084                   25130290.1724
 11  8 22  2 36 30.0000000  0  9G12G29G26G05G15G25G02G30G21
 -17265812.28547 -13442417.84445  22335144.6564                   22335141.9884
 -12073925.05948  -9398724.01246  21815925.4694                   21815923.2194
  -6498089.25047  -5052941.21144  22753904.7894                   22753902.4344
 -23437677.53148 -18251282.45346  20901374.6094                   20901371.6174
    559918.70346    446877.66044  23605051.4924                   23605049.2894
 -15245284.26648 -11867837.26246  21845033.7194                   21845033.6764
 -23384144.79747 -18209409.72745  22155767.4304                   22155762.3094
 -12285393.21947  -9560931.76245  22094387.1024                   22094385.3054
   6804444.73846   5309608.45743  25115132.5704                   25115130.7114
 11  8 22  2 37  0.0000000  0  9G12G29G26G05G15G25G02G30G21
 -17207243.03547 -13396779.48845  22346289.8594                   22346287.6524
 -12171565.12148  -9474807.13346  21797345.0234                   21797342.8634
  -6606359.01647  -5137307.21544  22733301.4144                   22733299.4064
 -23408200.89848 -18228313.63746  20906983.7194                   20906980.6764
    440148.98046    353550.71144  23582259.6724                   23582258.2234
 -15236823.55148 -11861244.49646  21846643.4924                   21846643.9414
 -23364762.39548 -18194306.55945  22159455.1094                   22159451.0274
 -12264350.95747  -9544535.19145  22098391.1954                   22098389.8794
   6724787.36346   5247537.80543  25099974.8134                   25099972.2034
 11  8 22  2 37 30.0000000  0  9G12G29G26G05G15G25G02G30G21
 -17148401.61347 -13350929.05145  22357486.8524                   22357484.3594
 -12269004.93747  -9550734.22346  21778802.4694                   21778800.5744
  -6714348.02747  -5221454.44945  22712751.7424                   22712749.5004
 -23378321.99648 -18205031.36346  20912669.3754                   20912666.9804
    320417.01646    260253.17644  23559475.9774                   23559473.6914
 -15227850.83248 -11854252.76646  21848351.0784                   21848351.2114
 -23345289.19148 -18179132.64545  22163160.6884                   22163156.7624
 -12242833.27747  -9527768.17245  22102486.1724                   22102484.5084
   6645135.71945   5185471.63343  25084816.4144                   25084815.1724
 11  8 22  2 38  0.0000000  0  9G12G29G26G05G15G25G02G30G21
 -17089293.86747 -13304871.07845  22368734.9144                   22368732.7424
 -12366244.76248  -9626505.46146  21760298.5164                   21760296.5904
  -6822055.44147  -5305382.25845  22692256.1254                   22692253.8404
 -23348046.00848 -18181439.67646  20918430.7894                   20918428.2034
    200723.01246    166985.20744  23536698.4534                   23536696.2854
 -15218370.61748 -11846865.58246  21850155.1484                   21850155.1954
 -23325727.51648 -18163889.77745  22166883.5554                   22166879.1054
 -12220845.23847  -9510634.62945  22106670.4844                   22106668.5354
   6565486.65646   5123407.48043  25069659.5864                   25069658.5354
 11  8 22  2 38 30.0000000  0  9G12G29G26G05G15G25G02G30G21
 -17029920.55547 -13258606.18045  22380032.8444                   22380031.1684
 -12463279.87548  -9702117.19146  21741833.3444                   21741831.2934
  -6929475.13747  -5389085.87945  22671814.3754                   22671812.9414
 -23317372.78548 -18157538.44946  20924267.7194                   20924264.7504
     81072.23846     73750.94544  23513929.8364                   23513927.8204
 -15208382.36348 -11839082.52046  21852055.8594                   21852055.8984
 -23306074.69948 -18148575.87945  22170623.2194                   22170618.5274
 -12198387.02348  -9493134.71945  22110943.7814                   22110942.1254
   6485842.22746   5061346.96943  25054504.1414                   25054503.1094
 11  8 22  2 39  0.0000000  0  9G12G29G26G05G15G25G02G30G21
 -16970283.00047 -13212135.38345  22391381.6094                   22391379.6954
 -12560106.71548  -9777566.63346  21723407.8444                   21723405.4774
  -7036602.16447  -5472561.44545  22651428.6724                   22651426.5554
 -23286303.24248 -18133328.41446  20930179.8364                   20930176.7814
    -38531.16446    -19446.43044  23491169.8524                   23491168.0514
 -15197886.84048 -11830904.19146  21854053.1334                   21854053.1094
 -23286329.46148 -18133189.95345  22174381.1644                   22174375.9184
 -12175459.91847  -9475269.44545  22115306.7734                   22115305.1134
   6406203.13346   4999290.55143  25039349.5944                   25039348.0314
 11  8 22  2 39 30.0000000  0  9G12G29G26G05G15G25G02G30G21
 -16910388.81647 -13165464.60545  22402779.1174                   22402776.9064
 -12656727.28548  -9852855.34046  21705021.5084                   21705019.2344
  -7143437.07447  -5555809.39545  22631098.6174                   22631096.4694
 -23254843.81248 -18108814.57046  20936166.4224                   20936163.3954
   -158088.23447   -112607.71544  23468418.3594                   23468417.0204
 -15186890.07448 -11822335.28146  21856145.8134                   21856145.5394
 -23266495.45747 -18117734.87545  22178154.3914                   22178150.3324
 -12152070.57047  -9457043.98045  22119757.6564                   22119755.8634
   6326564.24646   4937234.32443  25024194.8054                   25024192.9844
 11  8 22  2 40  0.0000000  0  9G12G29G26G05G15G25G02G30G21
 -16850239.99647 -13118595.40645  22414225.0314                   22414222.9024
 -12753138.37548  -9927980.81646  21686675.0004                   21686672.8094
  -7249975.23847  -5638826.10245  22610825.3054                   22610822.6214
 -23222996.46547 -18083998.45346  20942226.9774                   20942223.6094
   -277595.25447   -205729.99644  23445677.1884                   23445675.5904
 -15175393.13748 -11813376.62546  21858333.2424                   21858333.1604
 -23246571.90647 -18102210.00045  22181946.4304                   22181941.3834
 -12128220.59847  -9438459.59045  22124296.0864                   22124293.9964
   6246926.21146   4875178.75443  25009040.1804                   25009037.9304
 11  8 22  2 40 30.0000000  0  9G12G29G26G05G15G25G02G30G21
 -16789836.65647 -13071527.89845  22425719.3754                   22425716.9574
 -12849334.71148 -10002938.94946  21668369.5784                   21668367.3914
  -7356210.05547  -5721606.44545  22590609.4924                   22590607.5744
 -23190760.41048 -18058879.43746  20948360.7734                   20948357.9264
   -397046.10947   -298808.49644  23422946.2194                   23422944.5904
 -15163395.03148 -11804027.45346  21860616.6804                   21860616.3794
 -23226555.46948 -18086612.75445  22185754.9774                   22185750.2664
 -12103909.64547  -9419515.99245  22128922.4304                   22128920.8554
   6167291.43046   4813125.74643  24993885.2814                   24993883.5394
 11  8 22  2 41  0.0000000  0  9G12G29G26G05G15G25G02G30G21
 -16729182.07847 -13024264.60545  22437261.7734                   22437259.5594
 -12945314.07447 -10077728.01646  21650104.8444                   21650102.9804
  -7462137.84447  -5804147.53145  22570452.0554                   22570450.3754
 -23158138.20348 -18033459.53546  20954569.1804                   20954566.0084
   -516438.07847   -391841.13744  23400226.2664                   23400225.1024
 -15150897.94148 -11794289.46146  21862994.7584                   21862994.7814
 -23206446.32447 -18070943.27045  22189581.8444                   22189577.2034
 -12079140.42247  -9400215.29345  22133635.8134                   22133634.0824
   6087658.72346   4751074.37543  24978732.2344                   24978730.0824
 11  8 22  2 41 30.0000000  0  9G12G29G26G05G15G25G02G30G21
 -16668280.93747 -12976809.18745  22448850.8594                   22448848.7344
 -13041076.05548 -10152347.68446  21631882.3834                   21631880.1844
  -7567756.98847  -5886448.10945  22550353.0314                   22550351.7344
 -23125133.87948 -18007741.87546  20960849.3594                   20960846.5824
   -635769.91447   -484826.89544  23377518.1254                   23377516.5864
 -15137905.66848 -11784165.61746  21865467.4224                   21865467.5474
 -23186246.00448 -18055202.73845  22193425.7584                   22193421.1684
 -12053917.33647  -9380560.94545  22138435.3914                   22138434.0784
   6008026.08247   4689023.03943  24963578.7894                   24963577.2114
 11  8 22  2 42  0.0000000  0  9G12G29G26G05G15G25G02G30G21
 -16607134.78947 -12929162.87145  22460486.6804                   22460484.7074
 -13136616.96948 -10226795.09846  21613701.3834                   21613699.0004
  -7673062.53547  -5968504.34845  22530314.5164                   22530312.0204
 -23091748.37148 -17981727.19146  20967202.6254                   20967199.6454
   -755037.37147   -577762.49644  23354823.0164                   23354820.8634
 -15124418.88348 -11773656.43746  21868033.6414                   21868033.7974
 -23165952.43048 -18039389.53545  22197287.4694                   22197283.3284
 -12028241.70747  -9360553.96945  22143321.4304                   22143319.8164
   5928394.32847   4626972.38343  24948425.4844                   24948422.8364
 11  8 22  2 42 30.0000000  0  9G12G29G26G05G15G25G02G30G21
 -16545747.10247 -12881328.31645  22472168.7584                   22472166.2074
 -13231934.37548 -10301068.34446  21595562.9924                   21595561.1644
  -7778050.56247  -6050313.17245  22510335.9384                   22510333.5514
 -23057984.50848 -17955417.68046  20973627.4844                   20973624.5354
   -874237.33647   -670645.50845  23332140.2114                   23332137.5594
 -15110439.60948 -11762763.50446  21870693.7894                   21870694.0664
 -23145565.50848 -18023503.59845  22201167.3754                   22201162.4494
 -12002116.07447  -9340196.33245  22148293.3444                   22148291.3634
   5848762.82847   4564921.90243  24933271.9924                   24933269.1644
 11  8 22  2 43  0.0000000  0  9G12G29G26G05G15G25G02G30G21
 -16484124.46547 -12833310.69945  22483894.6024                   22483892.7114
 -13327029.68448 -10375168.52746  21577467.1334                   21577464.8164
  -7882721.25047  -6131874.69145  22490417.4694                   22490415.8404
 -23023848.34448 -17928818.07446  20980123.3834                   20980120.6294
   -993370.34447   -763476.35545  23309469.2974                   23309468.1804
 -15095973.53148 -11751491.23446  21873446.3914                   21873446.5944
 -23125088.74247 -18007547.64545  22205063.2194                   22205059.0554
 -11975546.65247  -9319492.90245  22153349.2584                   22153347.3634
   5769127.28546   4502868.26242  24918118.2344                   24918115.2074
 11  8 22  2 43 30.0000000  0  9G12G29G26G05G15G25G02G30G21
 -16422266.87947 -12785109.99645  22495666.4534                   22495663.4494
 -13421897.54348 -10449091.46946  21559414.3754                   21559412.0084
  -7987067.90247  -6213183.72745  22470561.0004                   22470559.6334
 -22989338.81648 -17901927.53146  20986690.2114                   20986687.3094
  -1112430.57447   -856250.49245  23286813.0394                   23286811.3634
 -15081019.78148 -11739838.96546  21876292.0634                   21876292.5554
 -23104518.82447 -17991519.12945  22208977.8524                   22208973.7074
 -11948533.23447  -9298443.48045  22158489.6254                   22158487.4694
   5689490.31646   4440813.56643  24902963.0554                   24902959.9694
 11  8 22  2 44  0.0000000  0  9G12G29G26G05G15G25G02G30G21
 -16360178.12547 -12736729.17245  22507480.8754                   22507478.9614
 -13516536.68748 -10522836.19946  21541404.8444                   21541402.6094
  -8091087.83647  -6294238.16845  22450766.6724                   22450764.8094
 -22954459.34848 -17874748.71546  20993327.8284                   20993325.1174
  -1231415.90647   -948966.25044  23264170.4924                   23264168.9774
 -15065581.44148 -11727809.09846  21879229.9454                   21879229.7544
 -23083856.60947 -17975418.67245  22212909.3984                   22212905.0744
 -11921079.36747  -9277050.87545  22163713.7114                   22163712.0704
   5609850.32846   4378756.52343  24887807.9384                   24887805.6524
 11  8 22  2 44 30.0000000  0  9G12G29G26G05G15G25G02G30G21
 -16297861.30947 -12688170.63345  22519339.6174                   22519337.2344
 -13610944.90248 -10596400.98446  21523439.6254                   21523437.2774
  -8194777.51647  -6375035.28545  22431035.2664                   22431032.9224
 -22919212.90248 -17847283.94946  21000034.8834                   21000032.0514
  -1350323.29747  -1041621.28145  23241543.0084                   23241541.4694
 -15049660.77048 -11715403.37946  21882259.3754                   21882259.3164
 -23063101.73847 -17959246.03145  22216859.2344                   22216854.1414
 -11893187.94947  -9255317.30945  22169021.0864                   22169019.7074
   5530206.56346   4316696.52043  24872652.2584                   24872650.1844
 11  8 22  2 45  0.0000000  0  9G12G29G26G05G15G25G02G30G21
 -16235318.62947 -12639436.07845  22531240.9614                   22531238.6294
 -13705118.40248 -10669782.87146  21505518.5234                   21505516.2384
  -8298131.58647  -6455570.88745  22411367.2034                   22411365.4574
 -22883600.02748 -17819533.66046  21006812.0474                   21006808.7504
  -1469148.23447  -1134212.05944  23218931.7114                   23218929.9734
 -15033258.21148 -11702622.16846  21885381.0164                   21885380.9384
 -23042252.34847 -17942999.73845  22220826.6414                   22220822.2584
 -11864859.90647  -9233243.52345  22174412.4614                   22174410.4694
   5450560.23046   4254634.53543  24857495.3834                   24857494.0904
 11  8 22  2 45 30.0000000  0  9G12G29G26G05G15G25G02G30G21
 -16172555.02047 -12590529.39845  22543184.8204                   22543182.3984
 -13799056.94148 -10742981.67246  21487642.8444                   21487640.3794
  -8401149.27747  -6535844.37545  22391763.7274                   22391762.2034
 -22847625.76248 -17791501.76246  21013657.4924                   21013654.7274
  -1587890.29347  -1226738.25045  23196335.8524                   23196333.9264
 -15016378.53948 -11689469.19146  21888592.8284                   21888593.1174
 -23021310.62947 -17926681.52745  22224811.7194                   22224806.8284
 -11836100.56247  -9210833.65645  22179884.9384                   22179883.2544
   5370908.19546   4192568.12943  24842337.9924                   24842336.9144
 11  8 22  2 46  0.0000000  0  9G12G29G26G05G15G25G02G30G21
 -16109570.70747 -12541450.73045  22555170.0314                   22555167.9384
 -13892755.16848 -10815993.22746  21469812.3204                   21469810.0664
  -8503823.41847  -6615850.16845  22372225.5474                   22372223.5204
 -22811289.24248 -17763187.59846  21020572.1804                   21020569.2274
  -1706542.97747  -1319194.80944  23173756.3594                   23173755.1484
 -14999020.66048 -11675943.57846  21891895.9224                   21891895.8874
 -23000273.15647 -17910288.69145  22228815.3754                   22228810.4654
 -11806909.39547  -9188087.31245  22185439.9144                   22185437.6134
   5291253.19946   4130499.43843  24827179.6884                   24827178.7734
 11  8 22  2 46 30.0000000  0  9G12G29G26G05G15G25G02G30G21
 -16046368.52347 -12492202.29345  22567197.0314                   22567195.1884
 -13986210.53948 -10888815.55146  21452028.7424                   21452026.4224
  -8606150.14847  -6695585.25845  22352753.2274                   22352751.7154
 -22774592.52048 -17734592.74246  21027555.2664                   21027552.4184
  -1825103.07846  -1411579.23845  23151195.4534                   23151193.5594
 -14981186.59048 -11662046.90246  21895289.8594                   21895290.2854
 -22979139.53148 -17893820.94545  22232836.7584                   22232831.9804
 -11777288.98847  -9165006.48045  22191076.3444                   22191074.0984
   5211594.78546   4068428.03943  24812022.6804                   24812020.3594
 11  8 22  2 47  0.0000000  0  9G12G29G26G05G15G25G02G30G21
 -15982955.30547 -12442789.41445  22579264.5944                   22579262.1374
 -14079424.83648 -10961450.02046  21434290.6094                   21434288.0704
  -8708129.98847  -6775050.03545  22333347.0554                   22333345.5554
 -22737542.30148 -17705722.44546  21034605.7114                   21034603.0044
  -1943571.50447  -1503892.22345  23128651.8364                   23128649.5434
 -14962882.50848 -11647783.98446  21898772.7814                   21898773.0904
 -22957913.27348 -17877281.02045  22236876.1724                   22236871.9884
 -11747246.00447  -9141596.37145  22196793.4064                   22196791.5394
   5131928.46146   4006350.54743  24796861.2274                   24796861.2504
 11  8 22  2 47 30.0000000  0  9G12G29G26G05G15G25G02G30G21
 -15919330.10947 -12393211.36745  22591372.1954                   22591370.0474
 -14172391.60248 -11033891.60546  21416599.4774                   21416597.0204
  -8809755.37547  -6854238.59845  22314008.9304                   22314006.7424
 -22700136.98848 -17676575.45746  21041723.6484                   21041720.7664
  -2061941.62547  -1596128.60244  23106125.9694                   23106124.4384
 -14944106.84048 -11633153.59846  21902345.9304                   21902346.0634
 -22936590.41048 -17860665.79745  22240933.9384                   22240929.3324
 -11716779.38747  -9117856.15245  22202591.2114                   22202589.1214
   5052257.62946   3944269.51643  24781700.3594                   24781699.4264
 11  8 22  2 48  0.0000000  0  9G12G29G26G05G15G25G02G30G21
 -15855497.24247 -12343471.48845  22603519.3284                   22603516.7154
 -14265109.59848 -11106139.36346  21398955.9694                   21398953.2894
  -8911023.91847  -6933149.12945  22294737.7894                   22294735.7194
 -22662380.03948 -17647154.46146  21048908.7344                   21048905.5004
  -2180210.99647  -1688286.47744  23083620.0084                   23083618.4454
 -14924862.84048 -11618158.27346  21906007.7894                   21906008.0784
 -22915171.50047 -17843975.74645  22245009.2734                   22245005.5394
 -11685892.94947  -9093788.82445  22208468.4614                   22208466.8204
   4972580.51246   3882183.56643  24766538.6884                   24766537.6604
 11  8 22  2 48 30.0000000  0  9G12G29G26G05G15G25G02G30G21
 -15791459.85547 -12293572.25445  22615704.6174                   22615702.5594
 -14357576.53548 -11178191.48846  21381360.0164                   21381357.6484
  -9011931.93047  -7011778.72745  22275535.6564                   22275533.7734
 -22624273.89848 -17617461.35946  21056159.5944                   21056157.2274
  -2298376.69147  -1780363.57044  23061134.4224                   23061132.2934
 -14905152.80948 -11602799.80946  21909758.7974                   21909758.4184
 -22893656.55947 -17827210.86345  22249103.9534                   22249099.1914
 -11654589.49247  -9069396.53145  22214424.9144                   22214423.8484
   4892896.57846   3820092.32443  24751375.8914                   24751374.2114
 11  8 22  2 49  0.0000000  0  9G12G29G26G05G15G25G02G30G21
 -15727220.86747 -12243515.91445  22627928.8834                   22627926.8164
 -14449789.98848 -11250046.09846  21363812.4224                   21363809.4064
  -9112475.63747  -7090124.43445  22256402.8204                   22256400.6844
 -22585821.04348 -17587498.09446  21063477.2114                   21063474.3134
  -2416436.03947  -1872357.79744  23038668.1564                   23038666.3164
 -14884978.98048 -11587079.94546  21913597.1024                   21913597.7194
 -22872044.85248 -17810370.59045  22253216.2274                   22253212.3284
 -11622871.75047  -9044681.42245  22220461.0944                   22220459.6884
   4813205.28946   3757995.35943  24736210.3984                   24736209.0554
 11  8 22  2 49 30.0000000  0  9G12G29G26G05G15G25G02G30G21
 -15662783.64847 -12193305.12545  22640190.4844                   22640188.4224
 -14541747.88748 -11321701.56646  21346313.1334                   21346310.7974
  -9212651.79747  -7168183.75045  22237339.7504                   22237337.7384
 -22547024.17248 -17557266.76246  21070859.8834                   21070857.5474
  -2534385.70347  -1964266.55545  23016223.0864                   23016221.0434
 -14864343.88748 -11571000.66446  21917524.0944                   21917524.7424
 -22850336.31647 -17793454.86345  22257347.5944                   22257342.5204
 -11590742.82047  -9019645.91045  22226574.9064                   22226573.1294
   4733505.95346   3695892.09443  24721043.9614                   24721042.3674
 11  8 22  2 50  0.0000000  0  9G12G29G26G05G15G25G02G30G21
 -15598150.74647 -12142941.85245  22652490.1024                   22652488.1454
 -14633446.88748 -11393155.30946  21328863.5554                   21328861.2894
  -9312456.23847  -7245953.41845  22218347.6334                   22218345.3364
 -22507885.05948 -17526768.76246  21078308.0004                   21078305.1254
  -2652221.94147  -2056086.93444  22993799.2584                   22993797.2934
 -14843249.07848 -11554563.15246  21921538.6254                   21921538.6884
 -22828529.80147 -17776462.80145  22261496.6884                   22261492.3714
 -11558204.68747  -8994291.52745  22232766.9844                   22232765.2814
   4653799.05946   3633782.96543  24705876.6954                   24705874.9024
 11  8 22  2 50 30.0000000  0  9G12G29G26G05G15G25G02G30G21
 -15533325.14147 -12092428.43045  22664826.1564                   22664824.1254
 -14724885.13348 -11464405.85946  21311463.2584                   21311460.6604
  -9411885.29347  -7323430.57445  22199426.9534                   22199424.7274
 -22468406.31248 -17496006.10246  21085820.7584                   21085818.0354
  -2769942.09047  -2147816.87145  22971397.6094                   22971396.1134
 -14821697.21548 -11537769.49646  21925639.5164                   21925639.7154
 -22806625.50047 -17759394.53145  22265665.3914                   22265660.1564
 -11525260.60547  -8968620.82045  22239035.9224                   22239033.6484
   4574083.85546   3571667.36743  24690706.5474                   24690705.3444
 11  8 22  2 51  0.0000000  0  9G12G29G26G05G15G25G02G30G21
 -15468309.66447 -12041767.05545  22677198.3594                   22677196.1844
 -14816059.91848 -11535451.14146  21294113.3674                   21294110.9454
  -9510935.37147  -7400612.41045  22180578.2194                   22180576.2854
 -22428590.16448 -17464980.53146  21093397.1724                   21093394.6054
  -2887542.53147  -2239453.51244  22949018.7034                   22949017.3284
 -14799690.32848 -11520621.28146  21929827.2974                   21929827.8364
 -22784622.57047 -17742249.41845  22269852.3444                   22269847.0124
 -11491912.99247  -8942635.66445  22245381.6804                   22245379.6954
   4494359.51246   3509544.63743  24675535.9454                   24675534.3754
 11  8 22  2 51 30.0000000  0  9G12G29G26G05G15G25G02G30G21
 -15403107.68747 -11990960.35545  22689605.2424                   22689603.5044
 -14906969.03948 -11606289.39546  21276814.1724                   21276811.2704
  -9609603.04347  -7477496.27745  22161802.4454                   22161799.9574
 -22388439.12148 -17433694.00046  21101037.7974                   21101034.8914
  -3005020.64847  -2330994.83244  22926664.2814                   22926661.8524
 -14777230.96148 -11503120.49246  21934101.1724                   21934101.5084
 -22762520.89547 -17725027.35545  22274058.0944                   22274053.0984
 -11458164.96547  -8916338.50845  22251803.5634                   22251802.0434
   4414625.59846   3447414.44943  24660362.2894                   24660360.8094
 11  8 22  2 52  0.0000000  0  9G12G29G26G05G15G25G02G30G21
 -15337722.73847 -11940011.07445  22702047.9304                   22702046.4804
 -14997610.59448 -11676919.17646  21259565.7274                   21259563.0704
  -9707884.95747  -7554079.55545  22143100.1174                   22143097.7814
 -22347956.09048 -17402148.76646  21108741.4304                   21108738.1214
  -3122373.56647  -2422438.60245  22904331.8284                   22904330.3284
 -14754321.95348 -11485269.32046  21938460.8754                   21938460.7074
 -22740320.66847 -17707728.50045  22278283.0394                   22278277.9654
 -11424019.78547  -8889731.88745  22258301.5164                   22258299.2274
   4334881.19146   3385276.06343  24645188.1024                   24645185.4924
 11  8 22  2 52 30.0000000  0 10G18G12G29G26G05G15G25G02G30G21
   7712417.44156   6020119.82453  24597093.9534                   24597092.8164
 -15272160.93447 -11888924.00445  22714524.3914                   22714521.9694
 -15087985.15648 -11747340.90646  21242367.8524                   21242365.0234
  -9805780.96147  -7630362.11745  22124470.9144                   22124468.5204
 -22307146.89848 -17370349.39546  21116506.8914                   21116504.1374
  -3239601.34047  -2513784.86345  22882024.7894                   22882022.8594
 -14730968.78948 -11467072.05946  21942904.7344                   21942904.3954
 -22718024.60948 -17690354.94945  22282525.4454                   22282520.9384
 -11389483.47747  -8862820.49245  22264873.1644                   22264871.7584
   4255123.07446   3323126.98843  24630010.1414                   24630007.7424
 11  8 22  2 53  0.0000000  0 10G18G12G29G26G05G15G25G02G30G21
   7599426.25046   5932074.91843  24575591.3364                   24575591.2074
 -15206430.83247 -11837705.77345  22727032.5784                   22727029.7424
 -15178095.91048 -11817557.07046  21225220.3364                   21225217.9064
  -9903292.82447  -7706345.35945  22105915.3984                   22105912.5664
 -22266019.19548 -17338301.82846  21124333.8204                   21124330.9574
  -3356706.64547  -2605035.68445  22859739.7274                   22859737.8634
 -14707179.41848 -11448534.90646  21947431.6724                   21947432.1994
 -22695637.83247 -17672910.71945  22286785.5784                   22286781.3674
 -11354564.40247  -8835610.83645  22271518.6804                   22271516.9694
   4175344.77046   3260962.14143  24614828.6484                   24614825.2934
 11  8 22  2 53 30.0000000  0 10G18G12G29G26G05G15G25G02G30G21
   7486593.15646   5844153.17243  24554119.9844                   24554119.8554
 -15140538.34447 -11786361.01245  22739571.2974                   22739569.0554
 -15267943.31248 -11887568.02046  21208122.6954                   21208120.3794
 -10000419.95347  -7782028.79745  22087432.4454                   22087430.1884
 -22224578.50448 -17306010.37946  21132219.3674                   21132216.5704
  -3473688.82847  -2696190.57045  22837479.0634                   22837477.2544
 -14682959.11747 -11429661.95746  21952040.7344                   21952040.7544
 -22673162.80147 -17655397.72345  22291062.7974                   22291058.2974
 -11319268.35247  -8808107.43045  22278234.9304                   22278233.4184
   4095543.09046   3198779.06643  24599642.5704                   24599640.3324
 11  8 22  2 54  0.0000000  0 10G18G12G29G26G05G15G25G02G30G21
   7373923.38745   5756358.75443  24532678.6414                   24532679.7774
 -15074482.80147 -11734889.19145  22752141.3914                   22752139.2704
 -15357521.22748 -11957368.97746  21191076.7034                   21191074.5394
 -10097154.83647  -7857406.59045  22069024.3594                   22069021.9924
 -22182823.12948 -17273473.71146  21140164.9454                   21140162.3634
  -3590540.95747  -2787244.10945  22815242.6484                   22815241.1684
 -14658306.35548 -11410452.02746  21956731.8444                   21956732.1174
 -22650595.24647 -17637812.62945  22295356.6254                   22295352.6604
 -11283594.25047  -8780309.43745  22285023.7664                   22285021.3324
   4015721.49246   3136580.53143  24584453.9534                   24584451.3094
 11  8 22  2 54 30.0000000  0 10G18G12G29G26G05G15G25G02G30G21
   7261417.49645   5668691.98843  24511269.5944                   24511270.8834
 -15008267.81647 -11683293.13345  22764740.9694                   22764739.3324
 -15446827.86748 -12026958.55146  21174082.0314                   21174079.9734
 -10193494.80547  -7932476.66045  22050691.5234                   22050689.2344
 -22140756.40648 -17240694.44146  21148170.0784                   21148167.2934
  -3707260.96147  -2878194.69945  22793031.5084                   22793029.8874
 -14633224.50048 -11390907.74246  21961505.1024                   21961505.1484
 -22627935.89147 -17620155.99645  22299669.1564                   22299664.4104
 -11247545.92247  -8752219.83245  22291883.1174                   22291881.1884
   3935878.60946   3074365.39543  24569259.6804                   24569257.6254
 11  8 22  2 55  0.0000000  0 10G18G12G29G26G05G15G25G02G30G21
   7149080.43046   5581156.80543  24489893.5314                   24489893.7734
 -14941893.14147 -11631572.64545  22777372.4144                   22777370.1604
 -15535857.30548 -12096332.10946  21157140.2194                   21157137.9304
 -10289433.02747  -8007233.69545  22032435.4144                   22032432.8014
 -22098377.47748 -17207671.89546  21156234.7734                   21156231.9024
  -3823842.16047  -2969037.12945  22770847.1644                   22770845.5904
 -14607712.45748 -11371028.25046  21966360.0084                   21966359.7584
 -22605180.57447 -17602424.59445  22303999.1334                   22303994.1884
 -11211122.74647  -8723838.14845  22298814.4144                   22298812.6134
   3856017.35546   3012135.91843  24554063.1884                   24554060.1604
 11  8 22  2 55 30.0000000  0 10G18G12G29G26G05G15G25G02G30G21
   7036915.18846   5493755.43443  24468549.5864                   24468549.3484
 -14875359.64547 -11579728.39845  22790032.9694                   22790031.2074
 -15624605.32448 -12165486.38346  21140252.6024                   21140249.9614
 -10384963.73447  -8081673.15645  22014255.8914                   22014253.9344
 -22055686.80148 -17174406.41846  21164358.8754                   21164355.6684
  -3940279.25047  -3059767.27345  22748689.8524                   22748688.0004
 -14581770.82848 -11350814.00046  21971296.3284                   21971296.3484
 -22582326.94147 -17584616.58245  22308347.4774                   22308342.4614
 -11174325.76647  -8695165.18445  22305816.5004                   22305814.4264
   3776139.01646   2949893.18443  24538862.0864                   24538860.2504
 11  8 22  2 56  0.0000000  0 10G18G12G29G26G05G15G25G02G30G21
   6924923.64846   5406489.34843  24447238.2974                   24447236.7584
 -14808669.80147 -11527762.30945  22802723.8594                   22802721.4454
 -15713068.98048 -12234419.07846  21123418.1954                   21123415.6294
 -10480082.91047  -8155791.94945  21996155.0164                   21996152.9104
 -22012686.08648 -17140899.35546  21172541.0084                   21172538.3714
  -4056568.73847  -3150382.39845  22726560.8594                   22726558.4694
 -14555401.43048 -11330266.43446  21976314.5084                   21976314.2704
 -22559374.00047 -17566731.18045  22312715.6484                   22312710.2854
 -11137157.23047  -8666202.69945  22312889.8524                   22312887.9414
   3696244.17646   2887637.52743  24523659.3134                   24523656.4344
 11  8 22  2 56 30.0000000  0 10G18G12G29G26G05G15G25G02G30G21
   6813112.08246   5319363.52743  24425959.8834                   24425959.3524
 -14741822.63747 -11475673.65645  22815444.5864                   22815442.2504
 -15801241.45348 -12303124.87146  21106639.4534                   21106636.9694
 -10574782.86347  -8229584.09045  21978134.7424                   21978132.6134
 -21969373.44148 -17107149.23446  21180783.1644                   21180780.6844
  -4172702.79747  -3240876.40645  22704461.1484                   22704458.8444
 -14528602.35948 -11309384.05946  21981413.9384                   21981414.1094
 -22536317.02047 -17548764.70345  22317103.3204                   22317098.0784
 -11099615.72347  -8636949.59045  22320033.3674                   22320031.5824
   3616336.71946   2825372.03943  24508452.6094                   24508450.1604
 11  8 22  2 57  0.0000000  0 10G18G12G29G26G05G15G25G02G30G21
   6701478.42646   5232376.41843  24404717.4144                   24404716.5704
 -14674823.80547 -11423466.79345  22828194.0474                   22828191.9264
 -15889123.06248 -12371604.01646  21089916.0004                   21089913.8524
 -10669062.59047  -8303048.77745  21960193.5394                   21960191.7544
 -21925754.22348 -17073160.22746  21189083.8914                   21189080.8754
  -4288681.36747  -3331249.28145  22682391.1644                   22682388.6914
 -14501378.96148 -11288171.03946  21986593.9924                   21986594.7894
 -22513158.32047 -17530718.96945  22321510.0864                   22321505.5664
 -11061706.94547  -8607410.29745  22327247.2274                   22327245.3364
   3536413.07846   2763093.93843  24493243.7504                   24493241.3284
 11  8 22  2 57 30.0000000  0 10G18G12G29G26G05G15G25G02G30G21
   6590023.19946   5145528.35543  24383507.8594                   24383507.4574
 -14607677.32047 -11371144.88345  22840971.6174                   22840969.4454
 -15976712.52748 -12439855.50046  21073248.5164                   21073245.7974
 -10762919.76647  -8376184.19945  21942332.8674                   21942330.9264
 -21881831.76248 -17038934.91846  21197442.0474                   21197439.0234
  -4404502.43047  -3421499.41445  22660350.7974                   22660348.7854
 -14473734.88748 -11266630.23046  21991854.7664                   21991855.0124
 -22489898.32847 -17512594.30545  22325936.1334                   22325931.5634
 -11023435.04347  -8577588.04345  22334529.8284                   22334528.1914
   3456471.93446   2700802.20343  24478031.4614                   24478029.3554
 11  8 22  2 58  0.0000000  0 10G18G12G29G26G05G15G25G02G30G21
   6478748.25846   5058820.77043  24362333.5864                   24362332.1254
 -14540385.40247 -11318709.65645  22853776.6414                   22853774.2934
 -16064006.53148 -12507876.77046  21056636.7974                   21056634.3244
 -10856350.25847  -8448987.15645  21924553.4694                   21924551.8484
 -21837607.73048 -17004474.62546  21205857.5474                   21205854.4924
  -4520162.08247  -3511623.77745  22638341.8594                   22638339.2424
 -14445671.86748 -11244762.96146  21997194.8674                   21997195.3484
 -22466536.44547 -17494390.24245  22330382.3364                   22330377.1764
 -10984802.17247  -8547484.52045  22341881.5784                   22341880.0634
   3376513.36746   2638496.87543  24462815.9924                   24462813.4654
 11  8 22  2 58 30.0000000  0 10G18G12G29G26G05G15G25G02G30G21
   6367654.21146   4972254.12142  24341192.4304                   24341190.4694
 -14472951.57847 -11266163.84045  22866608.9064                   22866607.1094
 -16151003.03547 -12575666.21546  21040081.8754                   21040079.0944
 -10949351.12547  -8521455.33245  21906856.6564                   21906854.4344
 -21793085.16448 -16969781.71146  21214329.9774                   21214327.0314
  -4635657.55146  -3601620.19145  22616363.2194                   22616361.5354
 -14417192.99648 -11222571.64546  22002614.7114                   22002614.7114
 -22443072.65247 -17476106.77745  22334847.2734                   22334842.9264
 -10945811.82447  -8517102.44545  22349301.3444                   22349299.9614
   3296536.66046   2576177.44544  24447596.6804                   24447595.0864
 11  8 22  2 59  0.0000000  0 10G18G12G29G26G05G15G25G02G30G21
   6256741.03146   4885828.38742  24320085.1484                   24320084.6844
 -14405380.57047 -11213511.13745  22879467.2424                   22879465.2424
 -16237701.31248 -12643223.27746  21023583.8204                   21023581.3674
 -11041920.21147  -8593587.05145  21889241.1094                   21889239.1954
 -21748267.99648 -16934859.23046  21222858.4384                   21222855.4884
  -4750986.85547  -3691487.14545  22594417.0944                   22594414.9694
 -14388302.13348 -11200059.31246  22008112.2814                   22008112.3484
 -22419507.56647 -17457744.37545  22339331.7504                   22339326.5664
 -10906468.25047  -8486445.12945  22356788.0314                   22356786.9064
   3216539.88347   2513842.33243  24432373.8594                   24432371.9614
 11  8 22  2 59 30.0000000  0 10G18G12G29G26G05G15G25G02G30G21
   6146011.89146   4799546.13342  24299014.4614                   24299014.1094
 -14337673.36747 -11160752.30145  22892351.6024                   22892349.6254
 -16324097.29748 -12710544.78946  21007143.0084                   21007140.6024
 -11134052.29347  -8665378.23845  21871708.6954                   21871706.8404
 -21703156.85948 -16899707.68746  21231442.7584                   21231439.5004
  -4866145.23847  -3781220.89545  22572502.9304                   22572501.5704
 -14359000.16448 -11177226.62546  22013688.2344                   22013688.3914
 -22395839.06647 -17439301.39545  22343835.4304                   22343831.4534
 -10866772.81247  -8455513.64145  22364341.7114                   22364340.7664
   3136524.63347   2451492.84044  24417147.6094                   24417145.1414
 11  8 22  3  0  0.0000000  0 10G18G12G29G26G05G15G25G02G30G21
   6035468.05946   4713408.30943  24277978.8134                   24277978.1334
 -14269832.93447 -11107889.64845  22905261.2504                   22905259.2704
 -16410188.17248 -12777628.55146  20990760.7504                   20990758.0944
 -11225743.64147  -8736826.00845  21854260.5474                   21854258.9104
 -21657753.77748 -16864328.64846  21240082.4064                   21240079.7234
  -4981129.32847  -3870818.82845  22550622.4384                   22550620.3634
 -14329289.44147 -11154075.42646  22019341.7814                   22019342.0004
 -22372066.56647 -17420777.37145  22348358.9774                   22348355.0004
 -10826728.17247  -8424310.03545  22371962.2814                   22371960.5984
   3056490.26646   2389128.46143  24401917.6414                   24401915.8444
 11  8 22  3  0 30.0000000  0 10G18G12G29G26G05G15G25G02G30G21
   5925110.32446   4627415.42643  24256977.7114                   24256977.7154
 -14201862.73047 -11054925.87145  22918195.5704                   22918193.6374
 -16495972.46948 -12844473.43046  20974436.3594                   20974433.4614
 -11316991.85947  -8807928.49245  21836896.6564                   21836894.1094
 -21612062.27048 -16828724.87146  21248777.3674                   21248774.3364
  -5095936.97747  -3960279.27745  22528775.0004                   22528773.0274
 -14299173.47748 -11130608.45746  22025072.8204                   22025072.8094
 -22348190.56647 -17402172.69945  22352902.4224                   22352898.3204
 -10786338.36347  -8392837.46945  22379647.7424                   22379646.5314
   2976435.65646   2326748.31644  24386683.4384                   24386681.0784
 11  8 22  3  1  0.0000000  0 10G18G12G29G26G05G15G25G02G30G21
   5814940.96546   4541569.36343  24236013.5234                   24236012.9614
 -14133765.32047 -11001862.98845  22931154.4774                   22931152.4734
 -16581446.35248 -12911076.42246  20958171.4774                   20958168.6524
 -11407792.21147  -8878681.96945  21819617.7974                   21819615.4734
 -21566083.62948 -16792897.35246  21257526.6804                   21257523.8594
  -5210563.69147  -4049598.75045  22506962.6414                   22506960.0864
 -14268653.71547 -11106826.84846  22030880.6644                   22030880.8244
 -22324209.40647 -17383486.08645  22357466.0004                   22357461.5234
 -10745605.13747  -8361097.30945  22387399.2194                   22387397.6684
   2896361.76646   2264353.15243  24371445.8204                   24371443.4774
 11  8 22  3  1 30.0000000  0 10G18G12G29G26G05G15G25G02G30G21
   7280380.49646   5683470.41443  24514877.5704                   24514876.1684
 -12490129.87947  -9721108.12545  23243927.4924                   23243925.9184
 -15091189.10548 -11749836.97346  21241757.9144                   21241755.1094
  -9922722.55147  -7721484.81245  22102217.2504                   22102214.9964
 -19944405.76248 -15529252.25446  21566121.8204                   21566118.7734
  -3749586.73847  -2911175.09845  22784976.8984                   22784974.5354
 -12662317.94548  -9855136.66046  22336556.4694                   22336556.4734
 -20724707.61347 -16137121.05545  22661840.7734                   22661836.7974
  -9129117.02747  -7101496.21545  22695006.7344                   22695005.1764
   4391686.76246   3429541.54344  24655996.2114                   24655994.5204
 11  8 22  3  2  0.0000000  0 10G18G12G29G26G05G15G25G02G30G21
   7170587.71946   5597917.74643  24493984.0554                   24493983.0164
 -12421789.95747  -9667856.25845  23256931.8674                   23256929.9964
 -15176038.66448 -11815953.49246  21225611.1564                   21225608.6724
 -10012620.65247  -7791535.25045  22085110.1954                   22085108.3834
 -19897863.33248 -15492985.42646  21574978.4774                   21574975.4414
  -3863845.81247  -3000208.10245  22763234.2814                   22763232.0984
 -12631001.86748  -9830734.53946  22342515.4064                   22342515.5004
 -20700518.15247 -16118272.14145  22666444.3134                   22666439.4844
  -9087709.49647  -7069230.62145  22702886.6254                   22702885.4414
   4311569.33246   3367112.44143  24640750.1804                   24640748.4774
 11  8 22  3  2 30.0000000  0 10G18G12G29G26G05G15G25G02G30G21
   7060984.45746   5512512.71943  24473127.7114                   24473126.5784
 -12353334.00847  -9614513.99645  23269958.7274                   23269957.3754
 -15260573.17648 -11881824.51646  21209525.1724                   21209522.3364
 -10102063.21147  -7861230.71945  22068090.0314                   22068088.0004
 -19851043.28148 -15456502.25846  21583888.0394                   21583884.9534
  -3977916.58647  -3089094.35545  22741527.4144                   22741525.3794
 -12599292.25447  -9806025.77346  22348549.7504                   22348549.8984
 -20676224.72347 -16099342.21545  22671067.4384                   22671061.7974
  -9045969.98847  -7036706.36345  22710829.4774                   22710827.5474
   4231428.94146   3304665.49243  24625500.7584                   24625498.4384
 11  8 22  3  3  0.0000000  0 10G18G12G29G26G05G15G25G02G30G21
   6951571.59046   5427256.09043  24452306.6804                   24452306.1724
 -12284764.98047  -9561083.61745  23283007.4844                   23283005.3794
 -15344790.61347 -11947448.47746  21193498.9924                   21193496.1604
 -10191047.19547  -7930568.85545  22051156.8984                   22051153.9494
 -19803948.39848 -15419804.94946  21592850.1414                   21592847.1174
  -4091796.59847  -3177831.97345  22719856.1804                   22719854.0554
 -12567192.23047  -9781012.79346  22354658.0394                   22354658.4224
 -20651827.19547 -16080331.17245  22675709.6484                   22675704.9574
  -9003902.08247  -7003926.20745  22718834.6484                   22718832.7344
   4151264.67646   3242199.96543  24610244.7974                   24610242.8404
 11  8 22  3  3 30.0000000  0 10G18G12G29G26G05G15G25G02G30G21
   6842353.19546   5342150.97743  24431523.0704                   24431522.3364
 -12216083.57847  -9507565.66045  23296076.7894                   23296074.9574
 -15428686.03148 -12012821.50846  21177534.1334                   21177531.7114
 -10279566.61747  -7999545.00445  22034312.1254                   22034309.5474
 -19756578.48048 -15382893.32046  21601864.2424                   21601861.1844
  -4205480.09447  -3266416.45345  22698223.6174                   22698221.3244
 -12534701.67647  -9755695.49646  22360840.4774                   22360840.6024
 -20627322.02747 -16061236.25445  22680372.9614                   22680367.9844
  -8961505.90247  -6970890.25445  22726902.3524                   22726900.5124
   4071078.88746   3179717.60543  24594986.3054                   24594984.0904
 11  8 22  3  4  0.0000000  0 10G18G12G29G26G05G15G25G02G30G21
   6733328.00046   5257196.40243  24410776.2974                   24410775.8754
 -12147295.10247  -9453964.28945  23309166.8834                   23309164.9104
 -15512258.94548 -12077943.23846  21161630.2974                   21161627.8204
 -10367620.40647  -8068158.31245  22017555.8054                   22017554.1604
 -19708938.57048 -15345771.31646  21610929.6954                   21610926.7464
  -4318966.37547  -3354847.25445  22676627.2664                   22676625.6604
 -12501825.80547  -9730077.95746  22367096.6804                   22367097.1914
 -20602711.44547 -16042059.19145  22685055.9384                   22685051.5274
  -8918787.05947  -6937602.87545  22735031.2664                   22735029.9694
   3990868.42246   3117216.03943  24579722.7974                   24579720.3164
 11  8 22  3  4 30.0000000  0 10G18G12G29G26G05G15G25G02G30G21
   6624499.10546   5172394.78943  24390066.5864                   24390065.4844
 -12078400.27047  -9400280.02745  23322276.7114                   23322275.2774
 -15595505.10548 -12142810.35946  21145789.6254                   21145786.5354
 -10455203.30547  -8136404.70345  22000889.5864                   22000887.8094
 -19661028.89548 -15308439.10246  21620046.9694                   21620043.8164
  -4432249.98847  -3443120.14145  22655069.9774                   22655067.8364
 -12468565.10247  -9704160.55145  22373426.4384                   22373426.4104
 -20577992.85247 -16022797.98845  22689760.3444                   22689755.5474
  -8875746.43747  -6904064.76645  22743221.6724                   22743220.5744
   3910635.30146   3054696.81643  24564454.9774                   24564452.5004
 11  8 22  3  5  0.0000000  0 10G18G12G29G26G05G15G25G02G30G21
   6515865.32846   5087745.22343  24369393.9064                   24369392.1484
 -12009404.52747  -9346517.12945  23335406.7974                   23335404.3634
 -15678424.41448 -12207422.80146  21130010.3364                   21130007.5634
 -10542314.19947  -8204283.28945  21984312.8134                   21984310.4534
 -19612853.80548 -15270900.07046  21629214.0394                   21629210.9734
  -4545329.91447  -3531234.31645  22633552.1564                   22633549.8054
 -12434924.63747  -9677947.22746  22379827.7504                   22379828.0594
 -20553168.36747 -16003454.25045  22694483.7974                   22694479.4454
  -8832389.43747  -6870280.12145  22751472.9614                   22751470.9844
   3830377.08646   2992158.08243  24549182.5234                   24549179.5634
 11  8 22  3  5 30.0000000  0 10G18G12G29G26G05G15G25G02G30G21
   6407430.27746   5003250.52743  24348759.5004                   24348758.0354
 -11940309.19147  -9292676.64545  23348554.9534                   23348552.7344
 -15761012.48847 -12271777.12946  21114294.5864                   21114291.4384
 -10628947.69947  -8271789.88345  21967826.9304                   21967824.1254
 -19564413.84048 -15233154.65646  21638432.1644                   21638428.6484
  -4658201.03547  -3619185.78145  22612073.2194                   22612070.8244
 -12400904.92647  -9651438.38345  22386301.5164                   22386302.0274
 -20528234.94547 -15984025.64145  22699228.7734                   22699224.1484
  -8788716.96947  -6836249.66045  22759782.7114                   22759781.4694
   3750095.12546   2929600.82443  24533904.6254                   24533901.4654
 11  8 22  3  6  0.0000000  0 10G18G12G29G26G05G15G25G02G30G21
   6299194.50046   4918911.08643  24328162.7664                   24328161.5704
 -11871117.12547  -9238760.78144  23361721.7734                   23361719.7034
 -15843267.00448 -12335871.54346  21098642.1484                   21098639.2234
 -10715100.73847  -8338922.09045  21951432.4144                   21951430.3364
 -19515711.68748 -15195204.93746  21647699.4224                   21647696.4804
  -4770860.46947  -3706972.30945  22590635.0004                   22590632.5744
 -12366509.03547  -9624636.41445  22392846.8054                   22392847.2074
 -20503192.66847 -15964512.20345  22703993.8674                   22703990.0204
  -8744732.34447  -6801975.95745  22768153.1174                   22768151.5704
   3669788.92246   2867024.68043  24518622.9534                   24518620.4144
 11  8 22  3  6 30.0000000  0 10G18G12G29G26G05G15G25G02G30G21
   6191158.21146   4834727.12143  24307604.2974                   24307602.9104
 -11801832.43446  -9184772.73044  23374906.2194                   23374904.2544
 -15925186.74248 -12399705.09046  21083053.3984                   21083050.3014
 -10800771.39847  -8405678.42645  21935130.1484                   21935127.5514
 -19466751.03948 -15157053.78946  21657016.2664                   21657013.4454
  -4883306.47747  -3794592.50845  22569236.7274                   22569234.7074
 -12331740.95347  -9597544.42245  22399462.9614                   22399462.8674
 -20478042.33647 -15944914.57445  22708780.1564                   22708775.7344
  -8700439.99647  -6767462.46545  22776581.2894                   22776579.7624
   3589456.96946   2804428.45743  24503337.1024                   24503333.9694
 11  8 22  3  7  0.0000000  0 10G18G12G29G26G05G15G25G02G30G21
   6083322.68446   4750699.58643  24287084.0784                   24287082.4224
 -11732458.19946  -9130714.90644  23388107.6884                   23388106.0944
 -16006769.10948 -12463275.74246  21067528.4694                   21067525.6174
 -10885956.21947  -8472056.18745  21918919.9224                   21918917.4344
 -19417534.18748 -15118703.00446  21666382.2344                   21666378.8404
  -4995535.58647  -3882043.71145  22547880.5004                   22547878.1054
 -12296603.37947  -9570164.50445  22406149.5704                   22406149.7304
 -20452783.09847 -15925232.07445  22713586.4614                   22713582.2974
  -8655842.88347  -6732711.51645  22785067.8284                   22785066.3404
   3509098.81646   2741811.87143  24488044.8914                   24488042.0864
 11  8 22  3  7 30.0000000  0 10G18G12G29G26G05G15G25G02G30G21
   5975687.50047   4666828.17643  24266602.0864                   24266600.4184
 -11662998.43447  -9076590.44544  23401325.1094                   23401323.2734
 -16088013.40248 -12526582.96946  21052068.4304                   21052065.4414
 -10970653.11347  -8538053.73045  21902802.6334                   21902799.7704
 -19368064.67648 -15080155.34846  21675795.9614                   21675792.9384
  -5107545.68747  -3969324.25845  22526565.4144                   22526562.9144
 -12261100.21547  -9542499.71145  22412905.4614                   22412905.9534
 -20427415.91047 -15905465.45745  22718413.9614                   22718409.5004
  -8610945.27047  -6697726.39145  22793612.3674                   22793610.2974
   3428713.01246   2679173.68043  24472747.8834                   24472744.4884
 11  8 22  3  8  0.0000000  0 10G18G12G29G26G05G15G25G02G30G21
   5868256.92246   4583116.18443  24246158.0634                   24246156.0084
 -11593453.37146  -9022399.49645  23414559.5474                   23414557.8554
 -16168914.49647 -12589622.76246  21036673.2814                   21036670.2934
 -11054856.19147  -8603666.49245  21886778.7274                   21886776.5234
 -19318341.98448 -15041410.40646  21685257.8674                   21685255.4884
  -5219330.90647  -4056429.57445  22505293.4304                   22505290.8134
 -12225231.36747  -9514549.98046  22419731.0784                   22419731.6334
 -20401937.31247 -15885612.02345  22723262.7664                   22723258.2194
  -8565747.36347  -6662507.27045  22802213.2504                   22802211.2384
   3348302.21546   2616516.01643  24457445.9224                   24457443.5744
 11  8 22  3  8 30.0000000  0 10G18G12G29G26G05G15G25G02G30G21
   5761028.35246   4499561.62943  24225752.6724                   24225751.4734
 -11523829.43746  -8968147.09844  23427808.1254                   23427807.1564
 -16249472.85548 -12652395.48446  21021343.3674                   21021340.3014
 -11138565.57447  -8668894.55145  21870849.9694                   21870847.7504
 -19268372.09448 -15002472.83646  21694766.9534                   21694764.3054
  -5330891.63347  -4143359.96145  22484064.5634                   22484062.0514
 -12189003.12147  -9486320.19145  22426625.1254                   22426625.7274
 -20376350.32847 -15865674.15245  22728131.0864                   22728127.1454
  -8520255.82047  -6627059.34445  22810869.6094                   22810867.9694
   3267862.19546   2553835.61744  24442138.9064                   24442137.0514
 11  8 22  3  9  0.0000000  0 10G18G12G29G26G05G15G25G02G30G21
   5654007.44546   4416168.89843  24205387.3284                   24205386.0084
 -11454125.56647  -8913832.43445  23441073.1954                   23441070.5904
 -16329681.95348 -12714896.05546  21006080.0864                   21006077.3834
 -11221773.90247  -8733732.17645  21855015.8364                   21855013.4414
 -19218153.43048 -14963341.41846  21704323.0554                   21704320.3054
  -5442220.37147  -4230109.58645  22462878.9534                   22462876.8914
 -12152414.18747  -9457809.33645  22433587.5634                   22433587.8714
 -20350650.25047 -15845648.14145  22733022.1254                   22733017.3404
  -8474469.60247  -6591381.79745  22819582.4534                   22819580.5664
   3187397.02047   2491135.60243  24426826.4924                   24426824.3984
 11  8 22  3  9 30.0000000  0 10G18G12G29G26G05G15G25G02G30G21
   5547194.59046   4332938.28543  24185060.6334                   24185059.5044
 -11384344.87147  -8859457.88344  23454351.4694                   23454349.6764
 -16409539.95748 -12777123.04346  20990883.5864                   20990881.0984
 -11304478.51647  -8798177.30145  21839277.5554                   21839275.1054
 -19167688.68048 -14924018.25046  21713926.1174                   21713922.9844
  -5553314.51247  -4316676.40645  22441738.7114                   22441736.3634
 -12115467.76647  -9429019.93745  22440618.5864                   22440618.4344
 -20324837.25847 -15825534.12945  22737934.0164                   22737929.4654
  -8428392.25447  -6555477.39145  22828350.7814                   22828349.1094
   3106905.88747   2428415.33244  24411510.0004                   24411506.6914
 11  8 22  3 10  0.0000000  0 10G18G12G29G26G05G15G25G02G30G21
   5440590.36346   4249870.24643  24164775.0084                   24164773.2814
 -11314491.13746  -8805026.41044  23467644.5864                   23467642.2894
 -16489045.38348 -12839075.29347  20975754.4844                   20975751.4224
 -11386676.87147  -8862227.93445  21823635.7734                   21823632.8674
 -19116980.69148 -14884505.54346  21723575.8834                   21723572.8524
  -5664171.49647  -4403058.42245  22420643.0314                   22420640.7544
 -12078167.25047  -9399954.60546  22447716.6024                   22447716.8094
 -20298911.28947 -15805332.10545  22742867.4304                   22742862.7234
  -8382027.46547  -6519349.01645  22837173.6094                   22837172.5394
   3026387.68446   2365673.95743  24396187.2734                   24396184.8134
 11  8 22  3 10 30.0000000  0 10G18G12G29G26G05G15G25G02G30G21
   5334193.04746   4166963.39143  24144528.2114                   24144525.9574
 -11244570.03546  -8750542.44144  23480949.8364                   23480947.9574
 -16568198.19548 -12900752.78146  20960691.9614                   20960689.2624
 -11468368.51647  -8925883.71945  21808090.1094                   21808087.8364
 -19066034.49648 -14844807.23046  21733270.4384                   21733267.0514
  -5774791.07447  -4489255.44945  22399592.8134                   22399590.2894
 -12040518.18747  -9370617.67245  22454880.7974                   22454881.2624
 -20272874.25447 -15785043.50845  22747822.5234                   22747817.5864
  -8335381.04747  -6483001.16845  22846050.3364                   22846048.8364
   2945839.32846   2302909.08643  24380859.4534                   24380856.8364
 11  8 22  3 11  0.0000000  0 10G18G12G29G26G05G15G25G02G30G21
   5228004.56646   4084219.27743  24124321.1094                   24124319.7544
 -11174583.67646  -8696007.62944  23494267.8984                   23494265.6294
 -16646995.34848 -12962153.12946  20945697.2814                   20945694.7974
 -11549549.51247  -8989141.60545  21792641.7584                   21792639.5984
 -19014851.97748 -14804924.75846  21743010.0314                   21743007.3524
  -5885168.90647  -4575264.09845  22378588.5784                   22378586.0824
 -12002522.58647  -9341010.72745  22462111.0784                   22462111.7154
 -20246725.47347 -15764667.84845  22752797.9534                   22752793.4844
  -8288455.28547  -6446435.64845  22854979.7424                   22854978.6804
   2865261.46146   2240121.23443  24365525.7584                   24365522.6174
 11  8 22  3 11 30.0000000  0 10G18G12G29G26G05G15G25G02G30G21
   5122030.18846   4001642.01243  24104154.3674                   24104152.8914
 -11104531.10246  -8641421.21944  23507598.6884                   23507596.5594
 -16725430.83248 -13023271.65646  20930771.1884                   20930768.4804
 -11630212.87947  -9051996.14545  21777292.0234                   21777290.1804
 -18963431.68048 -14764857.00046  21752794.9224                   21752792.3794
  -5995298.32447  -4661079.18445  22357631.6174                   22357629.1644
 -11964179.55947  -9311133.05145  22469407.8754                   22469408.0594
 -20220460.36747 -15744201.52745  22757796.1174                   22757792.0204
  -8241249.63747  -6409652.04345  22863963.4304                   22863961.9734
   2784657.50446   2177313.02743  24350187.8594                   24350184.3634
 11  8 22  3 12  0.0000000  0 10G18G12G29G26G05G15G25G02G30G21
   5016265.83647   3919228.43443  24084028.2114                   24084026.8984
 -11034419.51246  -8586788.82444  23520940.4144                   23520938.4454
 -16803506.65648 -13084109.93746  20915914.0234                   20915911.0704
 -11710360.19147  -9114448.56645  21762040.7424                   21762038.0984
 -18911780.34448 -14724609.20746  21762623.7664                   21762621.2584
  -6105180.55547  -4746701.64845  22336721.4064                   22336719.3444
 -11925496.40247  -9280990.35245  22476769.0784                   22476769.2034
 -20194082.85547 -15723647.63745  22762815.4694                   22762811.2384
  -8193771.72747  -6372656.28545  22872997.8134                   22872996.1414
   2704022.70746   2114480.81643  24334843.0944                   24334840.9104
 11  8 22  3 12 30.0000000  0 10G18G12G29G26G05G15G25G02G30G21
   4910713.01246   3836979.68444  24063941.9384                   24063940.2854
 -10964252.09446  -8532112.91444  23534292.9454                   23534291.0594
 -16881220.37948 -13144666.05946  20901125.6564                   20901122.8914
 -11789987.76647  -9176496.00045  21746888.3594                   21746885.3954
 -18859900.13748 -14684183.08646  21772496.3594                   21772493.2974
  -6214812.26647  -4832128.91445  22315859.4694                   22315856.7894
 -11886475.74647  -9250584.64145  22484194.8914                   22484194.4804
 -20167592.32447 -15703005.66045  22767856.9384                   22767851.8364
  -8146024.37147  -6335450.55945  22882083.9614                   22882081.8324
   2623356.93046   2051624.44544  24319492.9454                   24319490.5204
 11  8 22  3 13  0.0000000  0 10G18G12G29G26G05G15G25G02G30G21
   4805373.72346   3754897.27743  24043896.6724                   24043894.3914
 -10894030.58246  -8477394.87544  23547655.0554                   23547653.6884
 -16958568.48048 -13204937.27746  20886406.7664                   20886403.8834
 -11869092.18447  -9238135.76245  21731835.1804                   21731832.1884
 -18807792.41848 -14643579.68746  21782412.3524                   21782409.2464
  -6324189.48447  -4917357.85245  22295045.4224                   22295042.9844
 -11847119.48847  -9219917.43045  22491683.3674                   22491683.7114
 -20140987.27047 -15682274.45745  22772920.0474                   22772915.4144
  -8098009.81247  -6298036.63345  22891220.4144                   22891219.2034
   2542660.73446   1988744.37544  24304137.0634                   24304134.3204
 11  8 22  3 13 30.0000000  0 10G18G12G29G26G05G15G25G02G30G21
   4700248.40246   3672981.61743  24023891.8524                   24023890.4454
 -10823758.84446  -8422637.67244  23561028.0164                   23561026.3404
 -17035549.41448 -13264922.39846  20871757.8364                   20871755.1884
 -11947670.48447  -9299365.55945  21716881.8754                   21716879.2034
 -18755460.14848 -14602801.30946  21792370.6884                   21792367.6564
  -6433309.40647  -5002386.32845  22274281.1724                   22274278.3954
 -11807431.12947  -9188991.44146  22499236.1644                   22499236.0824
 -20114267.78947 -15661454.10245  22778004.1564                   22777999.6764
  -8049731.78547  -6260417.40645  22900407.2894                   22900406.0704
   2461933.21546   1925839.90244  24288774.4614                   24288772.0704
 11  8 22  3 14  0.0000000  0 10G18G12G29G26G05G15G25G02G30G21
   4595338.45747   3591233.77744  24003927.6024                   24003926.5044
 -10753439.12547  -8367843.10944  23574408.8914                   23574407.3134
 -17112160.40648 -13324619.24247  20857179.1484                   20857176.1684
 -12025719.50047  -9360182.94545  21702029.7734                   21702027.2664
 -18702905.61348 -14561849.74646  21802371.3594                   21802369.0474
  -6542168.74647  -5087211.73845  22253565.4144                   22253562.9454
 -11767413.27047  -9157808.71545  22506851.2894                   22506851.7544
 -20087432.91447 -15640543.80945  22783110.8204                   22783106.4694
  -8001193.11347  -6222595.09044  22909644.2114                   22909642.7074
   2381174.68446   1862911.26644  24273407.0554                   24273404.3954
 11  8 22  3 14 30.0000000  0 10G18G12G29G26G05G15G25G02G30G21
   4490643.50046   3509653.48043  23984004.4924                   23984004.1454
 -10683075.74647  -8313014.51644  23587798.6334                   23587797.0394
 -17188400.48448 -13384027.07846  20842670.9304                   20842668.3754
 -12103237.65247  -9420586.65645  21687278.4844                   21687275.9064
 -18650132.27348 -14520727.65646  21812413.9694                   21812411.6844
  -6650765.50047  -5171832.53945  22232899.9144                   22232897.5984
 -11727070.09847  -9126372.50045  22514528.4384                   22514528.7194
 -20060483.71547 -15619544.44145  22788238.8444                   22788233.7854
  -7952398.32047  -6184573.18744  22918928.9924                   22918928.1374
   2300383.06646   1799956.83643  24258032.4454                   24258030.1094
